[[{"header":{"parameterUnit":"m.s-1","parameterCategory":1,"la1":30.6,"la2":29.2853,"lo1":-89.7004,"lo2":-87.6739,"dy":0.0162,"dx":0.0183,"nx":112,"ny":82,"refTime":"2023-05-29T06:00:00:Z","depth":0,"parameterNumber":2,"parameterNumberName":"U-component_of_WINDS"},"data":[0.0,0.0,0.0,0.0,0.0,0.0,0.0,0.0,0.0,0.0,0.0,0.0,0.0,0.0,0.0,0.0,0.0,0.0,0.0,0.0,0.0,0.0,0.0,0.0,0.0,0.0,0.0,0.0,0.0,0.0,0.0,0.0,0.0,0.0,0.0,0.0,0.0,0.0,0.0,0.0,0.0,0.0,0.0,0.0,0.0,0.0,0.0,0.0,0.0,0.0,0.0,0.0,0.0,0.0,0.0,0.0,0.0,0.0,0.0,0.0,0.0,0.0,0.0,0.0,0.0,0.0,0.0,0.0,0.0,0.0,0.0,0.0,0.0,0.0,0.0,0.0,0.0,0.0,0.0,0.0,0.0,0.0,0.0,0.0,0.0,0.0,0.0,0.0,0.0,0.0,1.8425,1.9741,2.2151,2.4312,2.5787,2.5879,2.55,2.4674,0.0,0.0,0.0,0.0,0.0,0.0,0.0,0.0,0.0,0.0,0.0,0.0,0.0,0.0,0.0,0.0,0.0,0.0,0.0,0.0,0.0,0.0,0.0,0.0,0.0,0.0,0.0,0.0,0.0,0.0,0.0,0.0,0.0,0.0,0.0,0.0,0.0,0.0,0.0,0.0,0.0,0.0,0.0,0.0,0.0,0.0,0.0,0.0,0.0,0.0,0.0,0.0,0.0,0.0,0.0,0.0,0.0,0.0,0.0,0.0,0.0,0.0,0.0,0.0,0.0,0.0,0.0,0.0,0.0,0.0,0.0,0.0,0.0,0.0,0.0,0.0,0.0,0.0,0.0,0.0,0.0,0.0,0.0,0.0,0.0,0.0,0.0,0.0,0.0,0.0,0.0,0.0,0.0,0.0,0.0,0.0,0.0,0.0,0.0,0.0,0.0,0.0,0.0,0.0,1.9182,2.1296,2.2814,2.3953,2.4632,2.4414,2.4103,2.38,0.0,0.0,0.0,0.0,0.0,0.0,0.0,0.0,0.0,0.0,0.0,0.0,0.0,0.0,0.0,0.0,0.0,0.0,0.0,0.0,0.0,0.0,0.0,0.0,0.0,0.0,0.0,0.0,0.0,0.0,0.0,0.0,0.0,0.0,0.0,0.0,0.0,0.0,0.0,0.0,0.0,0.0,0.0,0.0,0.0,0.0,0.0,0.0,0.0,0.0,0.0,0.0,0.0,0.0,0.0,0.0,0.0,0.0,0.0,0.0,0.0,0.0,0.0,0.0,0.0,0.0,0.0,0.0,0.0,0.0,0.0,0.0,0.0,0.0,0.0,0.0,0.0,0.0,0.0,0.0,0.0,0.0,0.0,0.0,0.0,0.0,0.0,0.0,0.0,0.0,0.0,0.0,0.0,0.0,0.0,0.0,0.0,0.0,0.0,0.0,0.0,0.0,0.0,1.8835,1.9708,2.16,2.1979,2.2584,2.3782,2.3023,2.2801,2.3545,2.2434,0.0,0.0,0.0,0.0,0.0,0.0,0.0,0.0,0.0,0.0,0.0,0.0,0.0,0.0,0.0,0.0,0.0,0.0,0.0,0.0,0.0,0.0,0.0,0.0,0.0,0.0,0.0,0.0,0.0,0.0,0.0,0.0,0.0,0.0,0.0,0.0,0.0,0.0,0.0,0.0,0.0,0.0,0.0,0.0,0.0,0.0,0.0,0.0,0.0,0.0,0.0,0.0,0.0,0.0,0.0,0.0,0.0,0.0,0.0,0.0,0.0,0.0,0.0,0.0,0.0,0.0,0.0,0.0,0.0,0.0,0.0,0.0,0.0,0.0,0.0,0.0,0.0,0.0,0.0,0.0,0.0,0.0,0.0,0.0,0.0,0.0,0.0,0.0,0.0,0.0,0.0,0.0,0.0,0.0,0.0,0.0,0.0,0.0,0.0,0.0,0.0,0.0,1.8908,1.9469,2.0934,2.079,2.1111,2.2474,2.1894,2.196,2.2987,2.1767,0.0,0.0,0.0,0.0,0.0,0.0,0.0,0.0,0.0,0.0,0.0,0.0,0.0,0.0,0.0,0.0,0.0,0.0,0.0,0.0,0.0,0.0,0.0,0.0,0.0,0.0,0.0,0.0,0.0,0.0,0.0,0.0,0.0,0.0,0.0,0.0,0.0,0.0,0.0,0.0,0.0,0.0,0.0,0.0,0.0,0.0,0.0,0.0,0.0,0.0,0.0,0.0,0.0,0.0,0.0,0.0,0.0,0.0,0.0,0.0,0.0,0.0,0.0,0.0,0.0,0.0,0.0,0.0,0.0,0.0,0.0,0.0,0.0,0.0,0.0,0.0,0.0,0.0,0.0,0.0,0.0,0.0,0.0,0.0,0.0,0.0,0.0,0.0,0.0,0.0,0.0,0.0,0.0,0.0,0.0,0.0,0.0,0.0,0.0,0.0,0.0,0.0,1.79,1.7996,1.9184,1.969,2.0006,2.0139,2.1308,2.1888,2.1469,2.152,0.0,0.0,0.0,0.0,0.0,0.0,0.0,0.0,0.0,0.0,0.0,0.0,0.0,0.0,0.0,0.0,0.0,0.0,0.0,0.0,0.0,0.0,0.0,0.0,0.0,0.0,0.0,0.0,0.0,0.0,0.0,0.0,0.0,0.0,0.0,0.0,0.0,0.0,0.0,0.0,0.0,0.0,0.0,0.0,0.0,0.0,0.0,0.0,0.0,0.0,0.0,0.0,0.0,0.0,0.0,0.0,0.0,0.0,0.0,0.0,0.0,0.0,0.0,0.0,0.0,0.0,0.0,0.0,0.0,0.0,0.0,0.0,0.0,0.0,0.0,0.0,0.0,0.0,0.0,0.0,0.0,0.0,0.0,0.0,0.0,0.0,0.0,0.0,0.0,0.0,0.0,0.0,0.0,0.0,0.0,0.0,0.0,0.0,0.0,0.0,0.0,0.0,1.8016,1.839,1.9014,1.9225,1.9433,1.9861,2.0347,2.079,2.1285,0.0,0.0,0.0,0.0,0.0,0.0,0.0,0.0,0.0,0.0,0.0,0.0,0.0,0.0,0.0,0.0,0.0,0.0,0.0,0.0,0.0,0.0,0.0,0.0,0.0,0.0,0.0,0.0,0.0,0.0,0.0,0.0,0.0,0.0,0.0,0.0,0.0,0.0,0.0,0.0,0.0,0.0,0.0,0.0,0.0,0.0,0.0,0.0,0.0,0.0,0.0,0.0,0.0,0.0,0.0,0.0,0.0,0.0,0.0,0.0,0.0,0.0,0.0,0.0,0.0,0.0,0.0,0.0,0.0,0.0,0.0,0.0,0.0,0.0,0.0,0.0,0.0,0.0,0.0,0.0,0.0,0.0,0.0,0.0,0.0,0.0,0.0,0.0,0.0,0.0,0.0,0.0,0.0,0.0,0.0,0.0,0.0,0.0,0.0,0.0,0.0,0.0,1.747,1.7728,1.8003,1.8234,1.8502,1.8849,1.9279,1.9713,2.0421,2.1498,0.0,0.0,0.0,0.0,0.0,0.0,0.0,0.0,0.0,0.0,0.0,0.0,0.0,0.0,0.0,0.0,0.0,0.0,0.0,0.0,0.0,0.0,0.0,0.0,0.0,0.0,0.0,0.0,0.0,0.0,0.0,0.0,0.0,0.0,0.0,0.0,0.0,0.0,0.0,0.0,0.0,0.0,0.0,0.0,0.0,0.0,0.0,0.0,0.0,0.0,0.0,0.0,0.0,0.0,0.0,0.0,0.0,0.0,0.0,0.0,0.0,0.0,0.0,0.0,0.0,0.0,0.0,0.0,0.0,0.0,0.0,0.0,0.0,0.0,0.0,0.0,0.0,0.0,0.0,0.0,0.0,0.0,0.0,0.0,0.0,0.0,0.0,0.0,0.0,0.0,0.0,0.0,0.0,0.0,0.0,0.0,0.0,0.0,0.0,0.0,0.0,0.0,1.7199,1.6778,1.6522,1.6522,1.7463,1.8106,1.8106,1.9575,2.0946,0.0,0.0,0.0,0.0,0.0,0.0,0.0,0.0,0.0,0.0,0.0,0.0,0.0,0.0,0.0,0.0,0.0,0.0,0.0,0.0,0.0,0.0,0.0,0.0,0.0,0.0,0.0,0.0,0.0,0.0,0.0,0.0,0.0,0.0,0.0,0.0,0.0,0.0,0.0,0.0,0.0,0.0,0.0,0.0,0.0,0.0,0.0,0.0,0.0,0.0,0.0,0.0,0.0,0.0,0.0,0.0,0.0,0.0,0.0,0.0,0.0,0.0,0.0,0.0,0.0,0.0,0.0,0.0,0.0,0.0,0.0,0.0,0.0,0.0,0.0,0.0,0.0,0.0,0.0,0.0,0.0,0.0,0.0,0.0,0.0,0.0,0.0,0.0,0.0,0.0,0.0,0.0,0.0,0.0,0.0,0.0,0.0,0.0,0.0,0.0,0.0,0.0,0.0,1.7002,1.6693,1.6522,1.6522,1.7463,1.8106,1.8106,1.9232,2.0638,2.2298,0.0,0.0,0.0,0.0,0.0,0.0,0.0,0.0,0.0,0.0,0.0,0.0,0.0,0.0,0.0,0.0,0.0,0.0,0.0,0.0,0.0,0.0,0.0,0.0,0.0,0.0,0.0,0.0,0.0,0.0,0.0,0.0,0.0,0.0,0.0,0.0,0.0,0.0,0.0,0.0,0.0,0.0,0.0,0.0,0.0,0.0,0.0,0.0,0.0,0.0,0.0,0.0,0.0,0.0,0.0,0.0,0.0,0.0,0.0,0.0,0.0,0.0,0.0,0.0,0.0,0.0,0.0,0.0,0.0,0.0,0.0,0.0,0.0,0.0,0.0,0.0,0.0,0.0,0.0,0.0,0.0,0.0,0.0,0.0,0.0,0.0,0.0,0.0,0.0,0.0,0.0,0.0,0.0,0.0,0.0,0.0,0.0,0.0,0.0,0.0,0.0,0.0,1.7299,1.7033,1.6752,1.6522,1.7463,1.8106,1.8106,1.908,2.0348,2.1928,0.0,0.0,0.0,0.0,0.0,0.0,0.0,0.0,0.0,0.0,0.0,0.0,0.0,0.0,0.0,0.0,0.0,0.0,0.0,0.0,0.0,0.0,0.0,0.0,0.0,0.0,0.0,0.0,0.0,0.0,0.0,0.0,0.0,0.0,0.0,0.0,0.0,0.0,0.0,0.0,0.0,0.0,0.0,0.0,0.0,0.0,0.0,0.0,0.0,0.0,0.0,0.0,0.0,0.0,0.0,0.0,0.0,0.0,0.0,0.0,0.0,0.0,0.0,0.0,0.0,0.0,0.0,0.0,0.0,0.0,0.0,0.0,0.0,0.0,0.0,0.0,0.0,0.0,0.0,0.0,0.0,0.0,0.0,0.0,0.0,0.0,0.0,0.0,0.0,0.0,0.0,0.0,0.0,0.0,0.0,0.0,0.0,0.0,0.0,0.0,0.0,0.0,1.7909,1.7525,1.7118,1.6637,1.7504,1.8145,1.8185,1.9132,2.0161,2.1259,0.0,0.0,0.0,0.0,0.0,0.0,0.0,0.0,0.0,0.0,0.0,0.0,0.0,0.0,0.0,0.0,0.0,0.0,0.0,0.0,0.0,0.0,0.0,0.0,0.0,0.0,0.0,0.0,0.0,0.0,0.0,0.0,0.0,0.0,0.0,0.0,0.0,0.0,0.0,0.0,0.0,0.0,0.0,0.0,0.0,0.0,0.0,0.0,0.0,0.0,0.0,0.0,0.0,0.0,0.0,0.0,0.0,0.0,0.0,0.0,1.6383,1.635,0.0,0.0,0.0,0.0,0.0,0.0,0.0,0.0,0.0,0.0,0.0,0.0,0.0,0.0,0.0,0.0,0.0,0.0,0.0,0.0,0.0,0.0,0.0,0.0,0.0,0.0,0.0,0.0,0.0,0.0,0.0,0.0,0.0,0.0,0.0,0.0,0.0,0.0,0.0,0.0,1.7828,1.7483,1.7271,1.7146,1.7706,1.8263,1.8688,1.9332,2.0258,2.1525,2.1005,0.0,0.0,0.0,0.0,0.0,0.0,0.0,0.0,0.0,0.0,0.0,0.0,0.0,0.0,0.0,0.0,0.0,0.0,0.0,0.0,0.0,0.0,0.0,0.0,0.0,0.0,0.0,0.0,0.0,0.0,0.0,0.0,0.0,0.0,0.0,0.0,0.0,0.0,0.0,0.0,0.0,0.0,0.0,0.0,0.0,0.0,0.0,0.0,0.0,0.0,0.0,0.0,0.0,0.0,0.0,0.0,0.0,0.0,0.0,1.7034,1.644,0.0,0.0,0.0,0.0,0.0,0.0,0.0,0.0,0.0,0.0,0.0,0.0,0.0,0.0,0.0,0.0,0.0,0.0,0.0,0.0,0.0,0.0,0.0,0.0,0.0,0.0,0.0,0.0,0.0,0.0,0.0,0.0,0.0,0.0,0.0,0.0,0.0,0.0,0.0,0.0,1.8412,1.7961,1.7666,1.7666,1.8185,1.8612,1.8893,1.9406,1.9989,2.0677,2.0789,0.0,0.0,0.0,0.0,0.0,0.0,0.0,0.0,0.0,0.0,0.0,0.0,0.0,0.0,0.0,0.0,0.0,0.0,0.0,0.0,0.0,0.0,0.0,0.0,0.0,0.0,0.0,0.0,0.0,0.0,0.0,0.0,0.0,0.0,0.0,0.0,0.0,0.0,0.0,0.0,0.0,0.0,0.0,0.0,0.0,0.0,0.0,0.0,0.0,0.0,0.0,0.0,0.0,2.0027,2.0616,2.0897,2.0427,2.0169,2.0018,1.8454,1.7281,1.6456,1.6836,0.0,0.0,0.0,0.0,0.0,0.0,0.0,0.0,0.0,0.0,0.0,0.0,0.0,0.0,0.0,0.0,0.0,0.0,0.0,0.0,0.0,0.0,2.1689,2.3516,2.3314,2.2446,2.158,0.0,0.0,0.0,0.0,0.0,0.0,0.0,0.0,0.0,0.0,0.0,1.91,1.8585,1.8263,1.8263,1.865,1.893,1.9043,1.9442,1.969,1.969,2.0546,2.0922,0.0,0.0,0.0,0.0,0.0,0.0,0.0,0.0,0.0,0.0,0.0,0.0,0.0,0.0,0.0,0.0,0.0,0.0,0.0,0.0,0.0,0.0,0.0,0.0,0.0,0.0,0.0,0.0,0.0,0.0,0.0,0.0,1.6976,1.7822,0.0,0.0,0.0,0.0,0.0,0.0,0.0,0.0,0.0,0.0,0.0,0.0,0.0,1.9163,1.9917,2.0074,2.05,2.1091,2.0803,2.0942,2.1433,2.1357,2.1264,2.1264,2.1116,0.0,1.878,1.7977,0.0,0.0,0.0,0.0,0.0,0.0,0.0,0.0,0.0,0.0,0.0,0.0,0.0,0.0,0.0,0.0,0.0,0.0,0.0,0.0,0.0,0.0,2.4119,2.4448,2.4388,2.4283,2.4104,2.2965,2.1958,2.1873,2.093,2.0243,0.0,0.0,0.0,0.0,0.0,0.0,1.9073,1.8838,1.8779,1.8779,1.8855,1.9095,1.9566,1.9639,1.969,1.969,1.9818,2.0146,2.0692,2.0587,0.0,0.0,0.0,0.0,0.0,0.0,0.0,0.0,0.0,0.0,0.0,0.0,0.0,0.0,0.0,0.0,0.0,0.0,0.0,0.0,0.0,0.0,0.0,0.0,0.0,0.0,0.0,0.0,0.0,1.768,1.8743,1.9861,1.9752,1.9371,0.0,0.0,0.0,0.0,0.0,0.0,0.0,0.0,0.0,1.9693,2.045,2.0888,2.1062,2.138,2.1787,2.2422,2.2498,2.2836,2.3364,2.3364,2.3364,2.3364,2.3437,2.2892,2.1819,2.0538,1.9306,1.827,0.0,0.0,0.0,0.0,1.69,1.7362,1.7695,1.8364,1.9035,1.9166,0.0,0.0,0.0,0.0,0.0,0.0,0.0,2.1081,2.2186,2.3733,2.5099,2.5597,2.545,2.5285,2.5644,2.4834,2.3762,2.2805,2.2119,2.17,2.1801,2.1513,0.0,0.0,0.0,1.9762,1.8616,1.8705,1.8893,1.8893,1.9169,1.9442,1.969,1.969,1.969,1.969,1.969,1.9824,2.0124,2.0742,2.1237,0.0,0.0,0.0,0.0,0.0,0.0,0.0,0.0,0.0,0.0,0.0,0.0,0.0,0.0,0.0,0.0,0.0,0.0,0.0,0.0,0.0,0.0,0.0,0.0,0.0,0.0,0.0,0.0,1.8914,2.0222,2.1278,2.1287,2.0994,0.0,0.0,0.0,0.0,0.0,0.0,2.1038,2.1027,2.1368,2.2159,2.2649,2.2845,2.2761,2.3163,2.3653,2.4205,2.4494,2.4921,2.5448,2.531,2.5322,2.5448,2.5297,2.5008,2.4494,2.2791,2.1062,1.9573,1.9838,1.9251,1.829,1.8345,1.8776,1.9389,1.9664,2.0029,2.0471,2.0843,2.1212,2.1419,2.0897,0.0,0.0,0.0,0.0,2.177,2.3445,2.4737,2.5782,2.6677,2.6467,2.6243,2.6737,2.6318,2.5416,2.4028,2.3524,2.3287,2.3151,2.2525,0.0,2.0854,2.0337,1.9695,1.8634,1.8999,1.9284,1.9109,1.9605,1.9884,1.969,1.969,1.969,1.969,1.969,1.969,1.969,2.0812,2.1396,2.1263,0.0,0.0,0.0,0.0,0.0,0.0,0.0,0.0,0.0,0.0,0.0,0.0,0.0,0.0,0.0,0.0,0.0,0.0,0.0,0.0,0.0,0.0,0.0,0.0,0.0,0.0,0.0,0.0,0.0,2.0541,2.2284,0.0,0.0,0.0,0.0,2.1278,2.2241,2.293,2.2981,2.3253,2.3777,2.4582,2.5109,2.5661,2.6269,2.6307,2.6527,2.7067,2.6565,2.6628,2.7143,2.6615,2.6666,2.713,2.6603,2.6433,2.6231,2.3954,2.2987,2.2786,2.1757,2.1631,2.1958,2.1486,2.1335,2.1448,2.1977,2.1794,2.1581,2.2623,2.3077,2.2779,2.0538,2.0809,0.0,0.0,2.2352,2.2249,2.4217,2.5502,2.6452,2.737,2.755,2.7535,2.7565,2.7006,2.6333,2.5597,2.4955,2.4447,2.4233,0.0,2.2988,2.1495,2.145,2.1117,1.9766,2.0221,2.037,1.9713,2.0236,2.0393,1.9735,1.969,1.969,1.969,1.969,1.969,1.969,2.0378,2.1051,2.164,2.2655,0.0,0.0,0.0,0.0,0.0,0.0,0.0,0.0,0.0,0.0,0.0,0.0,0.0,0.0,0.0,0.0,0.0,0.0,0.0,0.0,0.0,0.0,0.0,0.0,0.0,0.0,0.0,0.0,2.3084,2.4479,0.0,2.4097,2.4824,2.4861,2.3678,2.4525,2.5384,2.6103,2.5699,2.5908,2.6892,2.7118,2.7306,2.7519,2.7519,2.762,2.7808,2.7256,2.7281,2.7795,2.7243,2.7092,2.7293,2.7444,2.7318,2.6954,2.6515,2.5297,2.369,2.3653,2.354,2.3376,2.3175,2.3326,2.3615,2.3452,2.3263,2.3037,2.2573,2.2728,2.2865,2.1335,2.1784,2.2808,2.3022,2.3502,2.4446,2.6609,2.7379,2.7793,2.8666,2.8547,2.8233,2.8233,2.7694,2.7156,2.6916,2.6004,2.5224,2.5131,2.4298,2.3316,2.2469,2.1957,2.1262,2.0108,2.0764,2.1114,2.0533,2.0976,2.1246,2.1006,2.0976,2.0797,2.0378,2.0348,2.0154,1.9705,2.0348,2.1021,2.168,2.2072,2.274,0.0,0.0,0.0,0.0,0.0,0.0,0.0,0.0,0.0,0.0,0.0,0.0,0.0,0.0,0.0,0.0,0.0,0.0,0.0,0.0,0.0,0.0,0.0,0.0,0.0,0.0,2.3888,2.5429,2.6558,2.723,2.7142,2.6909,2.6773,2.6773,2.7183,2.7817,2.8666,2.8155,2.8066,2.8649,2.8674,2.8674,2.8674,2.8674,2.8674,2.8674,2.8109,2.8034,2.836,2.7808,2.7657,2.7846,2.8034,2.8009,2.7846,2.8034,2.703,2.5423,2.6095,2.6204,2.5871,2.5871,2.6114,2.6266,2.5201,2.4833,2.4607,2.3226,2.3053,2.3389,2.2799,2.3201,2.3941,2.4192,2.4708,2.5612,2.742,2.8099,2.8541,2.9351,2.9387,2.9235,2.9235,2.8891,2.8427,2.7993,2.7036,2.6225,2.5967,2.5242,2.4437,2.3702,2.3196,2.2585,2.158,2.2048,2.2285,2.1656,2.1842,2.1934,2.1724,2.1962,2.1802,2.1057,2.1282,2.1134,2.0393,2.1099,2.1687,2.2117,2.2246,2.2856,2.4047,0.0,0.0,0.0,0.0,0.0,0.0,0.0,0.0,0.0,0.0,0.0,0.0,0.0,0.0,0.0,0.0,0.0,0.0,0.0,0.0,0.0,0.0,0.0,2.138,2.3833,2.6006,2.7316,2.8455,2.9287,2.9639,2.854,2.854,3.0357,3.0035,3.0072,3.0596,3.0472,3.0225,2.9844,2.9856,2.9869,2.9792,2.9792,2.9792,2.9779,2.9202,2.8938,2.8938,2.8386,2.8423,2.89,2.8386,2.8448,2.8888,2.8373,2.816,2.822,2.9151,2.9478,2.9548,2.9478,2.9465,2.9197,2.7245,2.6533,2.6294,2.477,2.4242,2.4406,2.4845,2.5197,2.5665,2.6395,2.6068,2.5737,2.6621,2.7673,2.8722,2.926,2.9941,3.0507,3.0507,3.0492,3.0118,2.8876,2.8098,2.7452,2.6736,2.6774,2.6437,2.518,2.5223,0.0,2.4247,2.4144,2.3814,2.3094,2.286,2.2488,2.1834,2.2496,2.26,2.1759,2.2452,2.2527,2.1754,2.2495,2.2935,2.295,2.3266,2.3212,2.2857,0.0,0.0,0.0,0.0,0.0,0.0,0.0,0.0,0.0,0.0,0.0,0.0,0.0,0.0,0.0,0.0,0.0,0.0,0.0,0.0,0.0,0.0,2.3039,2.2069,2.4367,2.6982,2.9125,2.9875,3.0429,3.1124,3.038,2.9789,2.9722,2.9954,3.0452,3.1309,3.1133,3.0961,3.0833,3.0833,3.0482,2.9792,2.9792,2.9792,2.9779,2.9202,2.9151,2.9528,2.8963,2.8787,2.895,2.9214,2.9176,2.895,2.9214,2.9327,2.9289,2.9149,2.9546,3.0039,2.9327,2.8918,2.8684,2.8271,2.7769,2.7219,2.6164,2.6113,2.6691,2.8021,2.7921,2.7457,2.7946,2.8196,2.8549,2.9443,3.0051,3.0632,3.1441,3.1038,3.0507,3.0507,3.0148,2.9729,2.9385,2.916,2.8659,2.752,2.6971,2.655,2.6208,2.5781,2.5461,2.5236,2.4739,2.4574,2.4858,2.4381,2.4015,2.3824,2.3981,2.3658,2.2488,2.2644,2.2438,2.1724,2.1917,2.2054,2.2061,2.3188,2.3265,0.0,0.0,0.0,0.0,0.0,0.0,0.0,0.0,0.0,0.0,0.0,0.0,0.0,0.0,0.0,0.0,0.0,0.0,0.0,0.0,0.0,0.0,2.351,2.5104,2.5174,2.7169,2.942,3.1668,3.2004,3.2379,3.325,3.1834,3.1142,3.1914,3.1469,3.1446,3.1998,3.2258,3.2033,3.1254,3.1609,3.1536,3.0996,3.0558,3.0419,3.0419,2.9656,2.9465,2.9779,2.9453,2.9289,2.9315,2.9641,2.9603,2.9315,2.9654,2.9792,2.9831,0.0,0.0,0.0,0.0,2.9749,2.9623,2.9469,2.944,2.9093,2.7135,2.6949,2.7695,2.9315,2.9114,2.836,2.8436,2.8698,2.906,2.9672,3.0201,3.0791,3.1452,3.1248,3.0941,3.0941,3.0657,3.0313,3.0028,2.9968,0.0,2.8644,2.7928,2.7543,2.753,2.7085,2.6725,2.6638,2.6046,2.5663,2.5734,2.5029,2.4476,2.4212,2.4496,0.0,0.0,0.0,2.3348,2.2697,2.2668,0.0,0.0,0.0,2.3885,2.2683,2.3537,0.0,0.0,2.1628,2.1655,0.0,0.0,0.0,0.0,0.0,0.0,0.0,0.0,0.0,0.0,0.0,0.0,0.0,0.0,0.0,0.0,2.4413,2.696,2.9459,3.1012,3.2537,3.4237,3.4112,3.4245,3.5213,3.2904,3.2407,3.4986,3.3547,3.2664,3.2749,3.3518,0.0,0.0,0.0,3.2749,3.2593,3.1742,3.1315,3.118,3.0343,2.9934,2.9792,2.9792,2.9792,2.9792,2.9792,2.9792,2.9792,2.9792,2.9856,3.0075,3.097,3.1315,3.1254,3.1536,3.1569,3.1376,3.0868,0.0,0.0,2.804,2.7443,2.8151,2.9441,2.934,2.875,2.8398,2.8432,2.8643,2.8921,2.9564,3.0325,3.0614,3.1073,3.1482,3.1482,3.1482,3.1287,3.0746,3.0612,3.0447,2.9894,2.9311,2.8882,2.8897,2.8627,2.8382,2.8154,2.7544,2.6872,2.6156,2.5272,0.0,2.3896,2.4481,2.4493,2.3641,2.4305,2.4513,2.399,2.3961,2.4065,2.4347,2.4926,2.4735,2.3755,2.4372,2.4105,2.3113,2.2683,2.2873,0.0,0.0,0.0,0.0,0.0,0.0,0.0,0.0,0.0,0.0,0.0,0.0,0.0,0.0,0.0,2.5136,2.7373,2.9656,3.1705,3.2859,3.3715,3.4028,3.3378,3.3241,3.4177,3.3101,3.2522,3.3115,3.282,3.2961,3.3671,3.3876,3.3808,3.3449,3.3602,3.338,3.2593,3.2393,3.196,3.118,3.1044,0.0,2.9792,2.9792,2.9792,2.9792,2.9792,2.9792,2.9792,2.9792,3.0279,3.1044,3.196,3.1888,3.1462,3.3837,3.3821,3.2727,3.2667,3.2416,3.1931,3.0563,3.005,3.0019,2.9809,2.9691,0.0,2.949,3.0581,3.1738,3.1815,3.2307,3.28,3.2882,3.2169,3.1482,3.1482,3.1482,3.1437,3.1302,3.1345,3.13,3.118,3.0212,2.9446,2.9455,2.9366,2.9154,2.8581,2.7914,2.7454,2.7273,2.6169,2.5334,2.5232,2.4897,2.4373,2.364,2.3747,2.3792,2.3673,2.3673,2.3941,2.4517,2.4612,2.4544,2.4231,2.4329,2.3943,2.3065,2.2576,2.2627,0.0,0.0,0.0,0.0,0.0,0.0,0.0,0.0,0.0,0.0,0.0,2.1254,0.0,0.0,2.5555,2.6518,2.8596,3.0634,3.237,3.3031,3.3671,3.4624,3.4341,3.4259,3.4691,3.3891,3.3533,3.4041,3.3602,3.3518,3.3959,3.4461,3.4543,3.4027,3.4461,3.4704,3.4517,3.3689,3.3255,3.3121,3.1817,3.097,3.0482,3.0482,3.0482,3.0558,3.0983,3.0908,3.0482,3.0482,3.0758,3.1315,3.2749,3.2749,3.2105,3.3547,3.3854,3.3581,3.3566,3.3711,3.3803,3.3383,3.2713,3.1842,3.0253,2.9792,2.9934,3.0583,3.1429,3.2266,3.2751,3.3039,3.3235,3.3034,3.2497,3.1943,3.1541,3.1482,3.1482,3.1482,3.1482,3.1482,3.1482,3.127,3.0821,3.0148,2.9774,2.946,2.9131,2.8502,2.7965,2.7638,2.6674,2.5949,2.5644,2.5307,2.4837,2.4163,2.4418,2.4462,2.4118,2.4433,2.4762,2.5106,2.5401,2.5149,2.4391,2.4708,2.4279,2.3065,2.2862,2.2874,0.0,0.0,0.0,0.0,0.0,0.0,0.0,0.0,2.187,2.2433,2.3594,2.4381,2.4071,2.5968,2.7499,2.7426,2.9061,3.0824,3.2396,3.2593,3.3325,3.5279,3.5504,3.5504,3.5504,3.4758,3.461,3.5439,3.4758,3.4312,3.4312,3.5067,3.5133,3.4312,3.5067,3.5759,3.6297,3.4955,3.4423,3.4776,3.2684,3.1669,3.1462,3.1462,3.1462,3.1536,3.2249,3.2177,3.1462,3.1462,3.1609,3.1888,3.338,3.3671,3.3115,3.2961,3.3449,3.4245,3.4095,3.4691,3.5504,3.5504,3.4572,3.2918,3.0508,3.0292,3.1009,3.1709,3.1856,3.2109,3.2965,3.3388,3.3441,3.2987,3.2796,3.2557,3.2033,3.1913,3.1913,3.1913,3.1913,3.1913,3.1913,3.2362,3.2287,3.1076,3.0462,3.0103,2.9983,2.9385,2.8712,2.809,2.726,2.6467,2.5674,2.5734,2.5525,2.4821,2.5315,2.5375,2.4837,2.533,2.5674,2.5794,2.6318,2.6009,2.4799,2.5204,2.4667,2.3305,2.3185,2.3078,1.6317,1.6393,1.726,1.7927,1.947,2.1636,0.0,0.0,2.6069,2.7223,2.7441,2.7169,2.6311,2.7202,2.8142,2.8623,2.9391,3.0506,3.2307,3.2593,3.3325,3.5279,3.5504,3.5504,3.5504,3.5424,3.5359,3.5504,3.5424,3.5359,3.5359,3.5439,3.5439,3.5359,3.5424,3.5549,3.5609,3.5404,3.4949,3.4128,3.3837,3.3241,3.2464,3.2464,3.2464,3.2464,3.2522,3.2522,3.2464,3.2464,3.2961,3.3739,3.3945,3.4461,3.5067,3.4177,3.4476,3.5213,3.4312,3.4691,3.5504,3.5504,3.4274,3.2321,3.0355,3.2146,3.4505,3.2975,3.2536,3.2664,3.3338,3.4403,3.5061,3.4442,3.3814,3.3365,3.329,3.3275,3.3275,3.3275,3.3275,3.3275,3.3275,3.3335,3.314,3.2407,3.2228,3.1973,3.139,3.0717,3.0043,2.943,2.8218,2.6961,2.5719,2.6153,2.6198,2.554,2.557,2.557,2.5495,2.557,2.5884,2.6467,2.6557,2.6509,2.6289,2.57,2.4951,2.4176,2.3424,2.3078,1.8916,1.8852,1.9362,0.0,2.3082,2.4446,2.7086,2.8231,2.898,2.9732,2.9979,3.0079,3.0084,2.9994,3.0194,0.0,3.1243,3.1901,3.3241,3.338,3.3815,3.4807,3.5265,3.5504,3.5504,3.5504,3.5504,3.5504,3.5504,3.5504,3.5504,3.5504,3.5504,3.5504,3.5504,3.5684,3.6073,3.5699,3.5472,3.5465,3.4501,3.3808,3.338,3.338,3.3754,3.4274,3.3671,3.3754,3.4259,3.3671,3.3671,3.4027,3.461,3.4758,3.461,3.4177,3.4245,3.4476,3.3533,3.3463,3.3973,3.5148,3.4192,3.2249,3.0355,3.0934,3.2001,3.1206,3.2563,3.4341,3.4639,3.5082,3.5325,3.4637,3.4262,3.3963,3.3574,3.3499,3.3499,3.3499,3.3499,3.3499,3.3499,3.3814,3.3978,3.3694,3.3006,3.2422,3.2138,3.1165,3.0268,2.9639,2.9071,2.8517,2.7979,2.7829,2.747,2.6797,2.6752,2.6572,2.6198,2.6557,2.6886,2.7156,2.7156,2.7166,2.7057,2.6771,2.6428,2.6013,2.5208,2.487,2.0251,2.0695,0.0,2.5129,2.6594,2.7658,2.9535,3.0806,3.1664,3.1878,3.1893,3.2012,3.2524,3.1815,3.1389,3.2105,3.2249,3.2522,3.3449,3.3449,3.3647,3.442,3.4775,3.503,3.5205,3.5385,3.5504,3.5504,3.5504,3.5504,3.5504,3.5504,3.5504,3.5504,3.5504,3.5729,3.6207,3.5744,3.5744,3.6207,3.4978,3.4394,3.4394,3.4394,3.4839,3.5439,3.4758,3.4839,3.5424,3.4691,3.4394,3.4476,3.5213,3.5052,3.4394,3.4095,3.4027,3.3876,3.2961,3.2593,3.282,3.4259,3.3754,3.2249,3.0355,2.9792,2.9792,2.9792,3.1796,3.407,3.4787,3.5001,3.4949,3.4812,3.4756,3.4622,3.4158,3.4053,3.4053,3.4053,3.4053,3.4053,3.4053,3.4442,3.4756,3.4756,3.3784,3.2991,3.2811,3.1614,3.0552,2.9909,2.9998,2.9968,2.9609,2.9146,2.8577,2.7904,2.773,2.7365,2.6886,2.737,2.7715,2.7844,2.7859,2.7951,2.8065,2.7871,2.7683,2.7563,2.6593,2.6334,1.9031,0.0,2.2598,2.6267,2.9268,3.1646,3.3036,3.3858,3.4263,3.3946,3.3185,3.2579,3.2593,3.1815,3.118,3.1254,3.1254,3.1609,3.2536,3.2105,3.2386,3.4278,3.3907,3.3818,0.0,3.5115,3.5504,3.5504,3.5504,3.5504,3.5504,3.5504,3.5504,3.5504,3.5504,3.5519,3.5534,3.5519,3.5519,3.5534,3.5454,3.5424,3.5424,3.5424,3.5439,3.5504,3.5439,3.5439,3.5504,3.5439,3.5424,3.5439,3.5504,3.5504,3.5359,3.4394,3.4027,3.3876,3.2961,3.2593,3.2593,3.2664,3.2664,3.2249,3.0355,2.9792,2.9792,2.9792,2.9869,3.0508,3.3003,3.3644,3.3934,3.5198,3.5474,3.5474,3.5444,3.5444,3.5444,3.5444,3.5444,3.5444,3.5444,3.5459,3.5474,3.5474,3.4876,3.4188,3.3544,3.2317,3.124,3.0552,3.1076,3.0956,2.9684,2.9564,2.9265,2.8607,2.7934,2.761,2.7595,2.761,2.7889,2.8562,2.8562,2.8891,2.9549,2.8747,2.8381,2.8339,2.6835,2.6856,2.183,0.0,2.674,2.9896,3.2109,3.3724,3.4622,3.4484,3.4002,3.3584,3.1772,3.0418,3.0746,2.9034,2.8319,3.0538,3.0374,3.0758,3.3154,3.2779,3.2845,3.4312,3.4115,0.0,0.0,0.0,0.0,3.5474,3.5504,3.5504,3.5504,3.5504,3.5504,3.5504,3.5504,3.5504,3.5504,3.5504,3.5504,3.5504,3.5504,3.5504,3.5504,3.5504,3.5504,3.5504,3.5504,3.5504,3.5504,3.5504,3.5504,3.5504,3.5504,3.5504,3.5439,3.5133,3.4543,3.3808,3.2249,3.1267,3.0709,3.0709,3.0709,3.0646,3.0011,2.9792,2.9792,2.9792,2.9792,3.0011,3.0872,3.1988,3.3185,3.4259,3.4476,3.4691,3.5359,3.5504,3.5504,3.5504,3.5504,3.5504,3.5504,3.5504,3.5504,3.5504,3.4921,3.4083,3.2976,3.2452,3.1928,3.127,3.1405,3.136,3.0911,3.0447,3.0103,2.9879,2.9265,2.8712,2.8263,2.8667,2.8801,2.8607,2.9026,2.9564,3.0193,2.9941,3.0036,3.0423,2.9383,2.912,2.3512,2.6136,2.8541,3.1909,3.3554,3.444,3.4883,3.4301,3.3379,3.2105,3.0072,2.862,2.899,2.74,2.6735,2.9192,2.9038,2.9513,3.2066,3.1638,3.1737,3.3303,3.3365,3.3503,0.0,0.0,0.0,3.5444,3.5504,3.5504,3.5504,3.5504,3.5504,3.5504,3.5504,3.5504,3.5504,3.5504,3.5504,3.5504,3.5504,3.5504,3.5504,3.5504,3.5504,3.5504,3.5504,3.5504,3.5504,3.5504,3.5504,3.5504,3.5504,3.5504,3.5504,3.5504,3.4839,3.3808,3.2593,3.1402,3.0203,2.9934,2.9792,2.9792,2.9792,2.9792,2.9792,2.9792,2.9792,2.9792,2.9792,3.0709,3.1842,3.2904,3.3891,3.461,3.4905,3.5213,3.5504,3.5504,3.5504,3.5504,3.5504,3.5504,3.5504,3.5504,3.513,3.4367,3.3036,3.2662,3.2258,3.1541,3.1482,3.1482,3.1482,3.0911,3.0507,3.0507,2.9924,2.94,2.8966,2.9355,2.949,2.928,2.9699,3.0223,3.0866,3.0866,3.1106,3.1467,3.0644,3.045,2.4209,2.6524,2.8343,3.2151,3.346,3.3945,3.3916,3.3451,3.227,2.991,2.8264,2.7229,0.0,0.0,2.6414,2.7311,2.7485,2.8045,2.9363,2.9001,2.9305,0.0,0.0,0.0,0.0,0.0,0.0,3.5459,3.5504,3.5504,3.5504,3.5504,3.5504,3.5504,3.5504,3.5504,3.5504,3.5504,3.5504,3.5504,3.5504,3.5504,3.5504,3.5504,3.5504,3.5504,3.5504,3.5504,3.5504,3.5504,3.5504,3.5504,3.5504,3.5504,3.5504,3.5504,3.4905,3.4095,3.4095,3.282,3.1106,3.0139,2.9792,2.9792,2.9792,2.9792,2.9792,2.9792,2.9792,2.9792,2.9792,2.9792,3.0075,3.1294,3.3506,3.5067,3.4177,3.4758,3.5504,3.5504,3.5504,3.5504,3.5504,3.5504,3.5504,3.5504,3.5504,3.504,3.3709,3.3006,3.2347,3.1601,3.1526,3.1511,3.1482,3.0941,3.0552,3.0552,2.9998,2.9669,2.9624,2.9669,2.9939,3.0492,3.0537,3.0881,3.1482,3.1482,3.1482,3.1467,3.0718,3.0777,2.7602,2.9545,3.0842,3.2319,3.2849,3.2989,3.325,3.1396,2.937,2.8542,2.5771,2.3352,0.0,0.0,0.0,2.5435,2.6985,0.0,3.0519,3.0021,0.0,3.2146,0.0,3.2034,3.3647,3.3999,0.0,0.0,3.5504,3.5504,3.5504,3.5504,3.5504,3.5504,3.5504,3.5504,3.5504,3.5504,3.5504,3.5504,3.5504,3.5504,3.5504,3.5504,3.5504,3.5504,3.5504,3.5504,3.5504,3.5504,3.5504,3.5504,3.5504,3.5504,3.5504,3.5504,3.5359,3.5133,3.5133,3.3837,3.196,3.0355,2.9792,2.9792,2.9792,2.9792,2.9792,2.9792,2.9792,2.9792,2.9792,2.9792,2.9869,3.0228,3.1516,3.2918,3.3822,3.4758,3.5504,3.5504,3.5504,3.5504,3.5504,3.5504,3.5504,3.5504,3.5504,3.519,3.4337,3.4083,3.3529,3.2392,3.2273,3.2063,3.1511,3.1317,3.127,3.127,3.112,3.0806,3.0283,3.0761,3.0866,3.0507,3.1001,3.1302,3.1482,3.1482,3.1482,3.1482,3.1278,3.1278,2.8589,3.009,3.1003,3.1807,3.1784,3.151,3.0932,2.9077,2.6958,2.501,2.2771,0.0,2.0871,2.1476,0.0,0.0,0.0,0.0,2.9541,2.9401,2.9655,0.0,3.1609,0.0,3.331,3.4177,3.4905,0.0,3.5504,3.5504,3.5504,3.5504,3.5504,3.5504,3.5504,3.5504,3.5504,3.5504,3.5504,3.5504,3.5504,3.5504,3.5504,3.5504,3.5504,3.5504,3.5504,3.5504,3.5504,3.5504,3.5504,3.5504,3.5504,3.5213,3.4839,3.4839,3.4839,3.4839,3.4839,3.4409,3.3699,3.2635,3.1709,3.1206,3.2074,3.1158,2.9792,2.9792,2.9792,2.9792,2.9792,2.9792,2.9792,2.9792,3.0368,3.1355,3.3031,3.4177,3.4986,3.5424,3.5504,3.5504,3.5504,3.5504,3.5504,3.5504,3.5504,3.537,3.4981,3.4666,3.4083,3.3051,3.2946,3.2677,3.2018,3.1958,3.1839,3.1497,3.1482,3.1302,3.0971,3.133,3.1287,3.0971,3.1345,3.1482,3.1482,3.1482,3.1482,3.1482,3.1482,3.1482,2.8437,2.9415,2.9998,3.097,3.0632,2.971,2.8266,2.685,2.4797,2.1159,0.0,1.9812,2.0059,2.0264,2.1407,2.4473,0.0,2.5576,2.8126,2.8467,2.8747,2.9666,3.1476,3.2593,3.2593,3.4259,3.5359,3.5504,3.5504,3.5504,3.5504,3.5504,3.5504,3.5504,3.5504,3.5504,3.5504,3.5504,3.5504,3.5504,3.5504,3.5504,3.5504,3.5504,3.5504,3.5504,3.5504,3.5504,3.5504,3.5504,3.5504,3.5504,3.5504,3.4905,3.4027,3.4027,3.3945,3.3808,3.3959,3.4543,3.5294,3.5439,3.4341,3.3325,3.5001,3.3213,3.0432,2.9934,2.9792,2.9792,2.9792,2.9792,2.9792,2.9792,2.9792,3.0292,3.2119,3.3394,3.4461,3.5359,3.5504,3.5504,3.5504,3.5504,3.5504,3.5504,3.5504,3.5504,3.5504,3.4981,3.4367,3.3694,3.3619,3.332,3.2572,3.2512,3.2228,3.1511,3.1482,3.1482,3.1482,3.1482,3.1482,3.1482,3.1482,3.1482,3.1482,3.1482,3.1482,3.1482,3.1482,3.1482,2.9415,2.9716,2.9998,3.097,2.9831,2.8486,2.8266,2.5464,0.0,0.0,1.9562,1.859,1.946,2.0585,2.247,2.58,2.6303,2.728,3.027,3.0275,2.9969,0.0,3.1476,3.2593,3.2593,3.3602,0.0,0.0,3.5504,3.5504,3.5504,3.5504,3.5504,3.5504,3.5504,3.5504,3.5504,3.5504,3.5504,3.5504,3.5504,3.5504,3.5504,3.5504,3.5504,3.5504,3.5504,3.5504,3.5504,3.5504,3.5504,3.5504,3.5504,3.4905,3.4027,3.4027,3.3518,3.2961,3.3739,3.4095,3.4394,3.5213,3.5279,3.5067,3.5424,3.5001,3.3865,3.0722,2.9792,2.9792,2.9792,2.9792,2.9792,2.9792,2.9792,3.0152,3.1576,3.363,3.5279,3.5439,3.5504,3.5504,3.5504,3.5504,3.5504,3.5504,3.5504,3.5504,3.5504,3.54,3.507,3.4382,3.4307,3.3814,3.2617,3.2512,3.2228,3.1511,3.1482,3.1482,3.1482,3.1482,3.1482,3.1482,3.1482,3.1482,3.1482,3.1482,3.1482,3.1482,3.1482,3.1482,2.8283,2.8975,2.9998,3.097,2.9738,2.7932,2.6742,0.0,0.0,0.0,1.8235,1.781,1.9153,1.9726,0.0,2.3934,2.4323,0.0,2.9143,2.9321,0.0,3.1101,3.2464,3.331,0.0,3.4177,3.4986,3.5439,3.5504,3.5504,3.5504,3.5504,3.5504,3.5504,3.5504,3.5504,3.5504,3.5504,3.5504,3.5504,3.5504,3.5504,3.5504,3.5504,3.5504,3.5504,3.5504,3.5504,3.5504,3.5504,3.5504,3.5504,3.5504,3.4905,3.4027,3.4027,3.3739,3.338,3.3808,3.4327,3.4839,3.5359,3.5504,3.5504,3.5504,3.5504,3.5148,3.3297,3.1294,2.9792,2.9792,2.9792,2.9792,2.9792,3.057,3.1415,3.206,3.3919,3.5504,3.5504,3.5504,3.5504,3.5504,3.5504,3.5504,3.5504,3.5504,3.5504,3.5504,3.5504,3.5385,3.504,3.4696,3.4083,3.3095,3.2706,3.2228,3.1511,3.1482,3.1482,3.1482,3.1482,3.1482,3.1482,3.1482,3.1482,3.1482,3.1482,3.1482,3.1482,3.1482,3.1482,2.7276,2.8434,2.9998,3.097,2.9476,2.7262,2.5186,2.3151,0.0,0.0,1.7023,1.727,1.8693,0.0,1.9155,0.0,2.1969,2.3167,2.7651,0.0,2.9188,0.0,3.3516,0.0,3.4027,3.4905,0.0,3.5504,3.5504,3.5504,3.5504,3.5504,3.5504,3.5504,3.5504,3.5504,3.5504,3.5504,3.5504,3.5504,3.5504,3.5504,3.5504,3.5504,3.5504,3.5504,3.5504,3.5504,3.5504,3.5504,3.5504,3.5504,3.5504,3.4905,3.4027,3.4027,3.3876,3.3739,3.3945,3.4543,3.5213,3.5439,3.5504,3.5504,3.5504,3.5504,3.5504,3.5504,3.3367,3.0797,3.0011,2.9792,2.9792,2.9792,3.1355,3.2749,3.2593,3.4124,3.5504,3.5504,3.5504,3.5424,3.5213,3.5213,3.5133,3.492,3.4854,3.4854,3.4854,3.4854,3.4854,3.4854,3.4669,3.4203,3.3559,3.2901,3.2228,3.1511,3.1482,3.1482,3.1482,3.1482,3.1482,3.1482,3.1482,3.1482,3.1482,3.1482,3.1482,3.1482,3.1351,3.1219,2.8197,2.9227,2.9998,3.097,2.8537,2.5651,2.4896,0.0,0.0,1.7102,1.6794,1.7101,1.7745,1.7622,1.8583,2.2157,0.0,2.2315,0.0,0.0,0.0,3.1433,0.0,0.0,3.4095,3.4905,3.5504,3.5504,3.5504,3.5504,3.5504,3.5504,3.5504,3.5504,3.5504,3.5504,3.5504,3.5504,3.5504,3.5504,3.5504,3.5504,3.5504,3.5504,3.5504,3.5504,3.5504,3.5504,3.5504,3.5504,3.5504,3.5504,3.5504,3.4905,3.4027,3.4027,3.3449,3.289,3.3671,3.4095,3.4312,3.5213,3.5504,3.5504,3.5504,3.5504,3.5504,3.5504,3.5228,3.4153,3.0722,2.9792,2.9792,2.9792,3.1723,3.3353,3.2749,3.4124,3.5504,3.5504,3.5504,3.5213,3.4312,3.4163,3.3822,3.2961,3.289,3.289,3.289,3.289,3.289,3.289,3.3812,3.4203,3.3559,3.2901,3.2228,3.1511,3.1482,3.1482,3.1482,3.1482,3.1482,3.1482,3.1482,3.1482,3.1482,3.1482,3.1482,3.1467,3.0777,3.0389,2.5048,2.7402,2.9922,3.0564,2.8216,2.5504,2.445,0.0,1.9195,1.6983,1.6499,1.6481,1.6679,1.634,1.6757,1.8955,0.0,0.0,2.5535,0.0,0.0,3.2225,3.3642,0.0,0.0,0.0,3.5504,3.5504,3.5504,3.5504,3.5504,3.5504,3.5504,3.5504,3.5504,3.5504,3.5504,3.5504,3.5504,3.5504,3.5504,3.5504,3.5504,3.5504,3.5504,3.5504,3.5504,3.5504,3.5504,3.5504,3.5504,3.5504,3.5504,3.5279,3.4905,3.4905,3.4691,3.4409,3.4773,3.4905,3.4986,3.5359,3.5504,3.5504,3.5504,3.5504,3.5504,3.5504,3.5504,3.5148,3.3644,3.2349,3.1549,3.2001,3.2563,3.3115,3.3394,3.3602,3.3905,3.4476,3.4124,3.3616,3.3241,3.3171,3.3031,3.2664,3.2593,3.2593,3.2593,3.2593,3.2593,3.2593,3.3197,3.341,3.2737,3.2553,3.2228,3.1511,3.1482,3.1482,3.1482,3.1482,3.1482,3.1482,3.1482,3.1482,3.1482,3.1029,3.1029,3.1467,3.0133,2.9827,2.2905,2.5589,2.8482,2.9261,2.7246,2.4758,0.0,0.0,1.8787,1.6678,1.6153,1.5946,1.5594,1.5494,1.5755,1.6564,0.0,1.8631,2.3083,2.4161,0.0,0.0,0.0,3.2865,0.0,3.4976,3.5504,3.5504,3.5504,3.5504,3.5504,3.5504,3.5504,3.5504,3.5504,3.5504,3.5504,3.5504,3.5504,3.5504,3.5504,3.5504,3.5504,3.5504,3.5504,3.5504,3.5504,3.5504,3.5504,3.5504,3.5504,3.5504,3.5504,3.5504,3.5504,3.5504,3.5504,3.5504,3.5504,3.5504,3.5504,3.5504,3.5504,3.5504,3.5504,3.5504,3.5504,3.5504,3.5504,3.5504,3.5504,3.4192,3.2975,3.3506,3.3269,3.3101,3.3518,3.331,3.3101,3.3518,3.3031,3.2536,3.2249,3.2177,3.2105,3.1829,3.1756,3.1756,3.1756,3.1756,3.1901,3.2177,3.2667,3.2787,3.2421,3.2211,3.199,3.1795,3.1586,3.1482,3.1482,3.1482,3.1482,3.1482,3.1482,3.1482,3.1482,3.0896,3.0837,3.1087,2.969,2.9066,2.2905,2.4418,2.514,2.6892,2.5209,2.2908,0.0,0.0,1.7492,1.6006,1.5845,1.5627,1.4457,1.5319,1.6154,1.6025,1.7063,0.0,2.1108,2.3324,0.0,0.0,0.0,3.0203,3.1043,3.3761,3.5504,3.5504,3.5504,3.5504,3.5504,3.5504,3.5504,3.5504,3.5504,3.5504,3.5504,3.5504,3.5504,3.5504,3.5504,3.5504,3.5504,3.5504,3.5504,3.5504,3.5504,3.5504,3.5504,3.5504,3.5504,3.5504,3.5504,3.5504,3.5504,3.5504,3.5504,3.5504,3.5504,3.5504,3.5504,3.5504,3.5504,3.5504,3.5504,3.5504,3.5504,3.5504,3.5504,3.5504,3.5504,3.4572,3.3575,3.3575,3.3837,3.3739,3.282,3.331,3.3739,3.282,3.2593,3.2321,3.1389,3.118,3.0895,3.0011,2.9869,2.9869,2.9869,2.9869,3.0216,3.1106,3.2019,3.2709,3.3044,3.1875,3.1529,3.2437,3.1898,3.1482,3.1482,3.1482,3.1482,3.1482,3.1482,3.1482,3.1482,3.1482,3.1087,3.0269,2.938,2.8117,1.9332,2.1698,2.3723,2.3221,2.2201,2.0939,1.9387,0.0,1.6506,1.521,1.5078,1.4945,1.4199,1.4393,1.4971,1.586,1.6284,0.0,0.0,0.0,0.0,2.7744,3.1368,3.3813,0.0,0.0,3.5504,3.5504,3.5504,3.5504,3.5504,3.5504,3.5504,3.5504,3.5504,3.5504,3.5504,3.5504,3.5504,3.5504,3.5504,3.5504,3.5504,3.5504,3.5504,3.5504,3.5504,3.5504,3.5504,3.5504,3.5504,3.5504,3.5504,3.5504,3.5504,3.5504,3.5504,3.5504,3.5504,3.5504,3.5504,3.5504,3.5504,3.5504,3.5504,3.5504,3.5504,3.5504,3.5504,3.5504,3.5504,3.5213,3.4935,3.4935,3.4409,3.3945,3.3602,3.282,3.2033,3.1669,3.1119,3.057,3.0279,3.0203,3.0139,2.9856,2.9792,2.9792,2.9792,2.9792,2.9934,3.0216,3.0495,3.1336,3.2978,3.3293,3.3324,3.3215,3.2557,3.2198,3.2198,3.1205,3.0703,3.0703,3.0072,2.9766,2.9766,2.9192,2.8492,2.7736,2.7986,2.755,0.0,1.9098,2.0974,2.0822,2.0165,0.0,0.0,0.0,1.5799,1.4869,1.4779,1.4676,1.4093,1.452,1.5108,1.5585,1.6322,0.0,0.0,0.0,0.0,2.7254,0.0,0.0,0.0,3.4927,3.5504,3.5504,3.5504,3.5504,3.5504,3.5504,3.5504,3.5504,3.5133,3.492,3.492,3.4558,3.4558,3.492,3.492,3.5133,3.5504,3.5504,3.5504,3.5504,3.5504,3.5504,0.0,3.5504,3.5504,3.5504,3.5504,3.5504,3.5504,3.5504,3.5504,3.5504,3.5504,3.5504,3.5504,3.5504,3.5504,3.5504,3.5504,3.5504,3.5504,3.5504,3.5504,3.5504,3.5504,3.5504,3.5504,3.5504,3.4624,3.3754,3.3533,3.2321,3.1106,3.0758,3.0216,2.9792,2.9792,2.9792,2.9792,2.9792,2.9792,2.9792,2.9792,2.9792,2.9934,3.0279,3.0355,3.1061,3.2734,3.3235,3.3404,3.3357,3.2473,3.185,3.1529,3.0416,2.9827,2.9827,2.9254,2.9002,2.9002,2.8117,2.7417,2.6973,2.7162,2.6973,0.0,0.0,0.0,0.0,0.0,0.0,0.0,0.0,0.0,1.4867,1.4817,1.4671,1.4126,1.5305,1.609,1.5268,1.6842,0.0,0.0,1.9208,0.0,0.0,2.9039,0.0,3.1863,3.4099,3.5504,3.5504,3.5504,3.5504,3.5504,3.5504,3.5504,3.5504,3.4543,3.4027,3.4027,3.3241,3.3241,3.4027,3.4095,3.461,3.5504,3.5504,3.5504,3.5504,3.5504,3.5504,3.5504,3.5504,3.5504,3.5504,3.5504,3.5504,3.5504,3.5504,3.5504,3.5504,3.5504,3.5504,3.5504,3.5504,3.5504,3.5504,3.5504,3.5504,3.5504,3.5504,3.5504,3.5504,3.5504,3.5504,3.5504,3.5504,3.4505,3.3422,3.2678,3.1815,3.0895,2.9998,2.9792,2.9792,2.9792,2.9792,2.9792,2.9792,2.9792,2.9792,2.9792,2.9792,3.0139,3.1044,3.1106,3.1462,3.2393,3.2012,3.2054,3.2992,3.1889,3.0779,2.9904,2.9284,2.8939,2.8939,2.8876,2.8812,2.8812,2.7986,2.7604,2.7604,2.685,2.6533,1.4749,0.0,1.5951,1.5864,1.6271,1.6444,0.0,0.0,0.0,0.0,0.0,0.0,0.0,0.0,0.0,0.0,0.0,0.0,1.7246,0.0,0.0,2.7299,3.1645,3.4092,3.3166,3.4558,3.5504,3.5504,3.5504,3.5504,3.5504,3.5504,3.5504,3.5504,3.4543,3.4027,3.4027,3.4543,3.4543,3.4027,3.4758,3.5279,3.5504,3.5504,3.5504,3.5504,3.5504,3.5504,3.5504,3.5504,3.5504,3.5504,3.5504,3.5504,3.5504,3.5504,3.5504,3.5504,3.5504,3.5504,3.5504,3.5504,3.5504,3.5504,3.5504,3.5504,3.5504,3.5504,3.5504,3.5504,3.5504,3.5504,3.5504,3.5504,3.4505,3.3297,3.2146,3.1549,3.0895,2.9998,2.9792,2.9792,2.9792,2.9792,2.9792,2.9792,2.9792,2.9792,2.9792,2.9792,2.9856,3.0139,3.0139,3.0495,3.1462,3.2041,3.247,3.2681,3.1593,3.079,3.0591,2.8917,2.7986,2.7986,2.7417,2.7095,2.7095,2.6905,2.6782,2.6782,2.6589,2.6533,1.4523,1.4867,1.5128,1.5026,1.5352,1.5599,0.0,0.0,0.0,0.0,0.0,0.0,0.0,0.0,0.0,0.0,1.6719,0.0,0.0,0.0,2.6958,2.8004,3.1929,3.4643,0.0,3.5296,3.5604,3.6006,3.5668,3.5504,3.5504,3.5504,3.5504,3.5504,3.4986,3.4461,3.4027,3.4109,3.4109,3.4027,3.4543,3.5052,3.5504,3.5504,3.5504,3.5504,3.5504,3.5504,3.5504,3.5504,3.5504,3.5504,3.5504,3.5504,3.5504,3.5504,3.5504,3.5504,3.5504,3.5504,3.5504,3.5504,3.5504,3.5504,3.5504,3.5504,3.5504,3.5504,3.5504,3.5504,3.5504,3.5504,3.5504,3.5504,3.4274,3.2847,3.1928,3.1071,3.0419,2.9934,2.9792,2.9792,2.9792,2.9792,2.9792,2.9792,2.9792,2.9792,2.9792,2.9792,2.9792,2.9792,2.9792,2.9998,3.0482,3.1057,3.1476,3.196,3.085,2.9994,2.9591,2.8017,2.7162,2.7162,2.6967,2.6841,2.6841,2.7092,2.7218,2.7218,2.7218,2.7218,1.4779,1.471,1.4798,1.544,1.535,1.5203,0.0,0.0,0.0,0.0,0.0,0.0,0.0,0.0,0.0,0.0,0.0,0.0,2.1225,2.4379,2.7002,2.7983,3.1498,0.0,3.6151,3.5995,3.607,3.6554,3.5991,3.5619,3.5504,3.5504,3.5504,3.5504,3.5504,3.5067,3.4245,3.3463,3.338,3.4027,3.4177,3.4691,3.5504,3.5504,3.5444,3.5355,3.5355,3.5295,3.5205,3.531,3.5295,3.522,3.5429,3.5444,3.5355,3.5474,3.5504,3.5504,3.5504,3.5504,3.5504,3.5504,3.5504,3.5504,3.5504,3.5504,3.5504,3.5504,3.5504,3.5504,3.5504,3.5504,3.5504,3.5504,3.3768,3.2046,3.1502,3.0583,2.9792,2.9792,2.9792,2.9792,2.9792,2.9792,2.9792,2.9792,2.9792,2.9792,2.9792,2.9792,2.9792,2.9792,2.9792,2.9792,2.9792,2.9792,3.0139,3.097,2.9882,2.8834,2.7931,2.6954,2.6533,2.6533,2.7005,2.7281,2.7281,2.7833,2.8109,2.8109,2.8109,2.8109,1.4227,1.4789,1.5222,1.546,1.5507,1.5536,0.0,0.0,0.0,0.0,0.0,0.0,0.0,0.0,1.6451,0.0,0.0,2.1597,0.0,0.0,2.8708,2.8126,0.0,3.5195,3.5031,3.6499,3.7219,3.6661,3.6492,3.6165,3.5504,3.5504,3.5504,3.5504,3.5504,3.5439,3.5279,3.5148,3.4691,3.4027,3.4839,3.5359,3.5504,3.5504,3.519,3.4637,3.4637,3.4322,3.3844,3.4397,3.4307,3.3918,3.5055,3.5145,3.4696,3.5295,3.5504,3.5504,3.5504,3.5504,3.5504,3.5504,3.5504,3.5504,3.5504,3.5504,3.5504,3.5504,3.5504,3.5504,3.5504,3.5504,3.5504,3.5504,3.2791,3.0216,3.0075,2.9934,2.9792,2.9792,2.9792,2.9792,2.9792,2.9792,2.9792,2.9792,2.9792,2.9792,2.9792,2.9792,2.9792,2.9792,2.9792,2.9792,2.9792,2.9792,2.9856,2.9998,2.8935,2.7814,2.6823,2.6622,2.6533,2.6533,2.7005,2.7281,2.7281,2.7833,2.8109,2.8109,2.8109,2.8109,1.4569,1.5246,1.5916,1.6277,1.6352,0.0,0.0,0.0,0.0,0.0,0.0,0.0,0.0,0.0,1.777,2.012,0.0,2.4212,2.5986,2.7814,2.9062,0.0,0.0,3.4919,3.5774,3.7042,3.7632,3.7279,3.6843,3.6275,3.5569,3.5504,3.5504,3.5504,3.5504,3.5504,3.5504,3.5504,3.5279,3.4839,3.5279,3.5504,3.5504,3.5504,3.513,3.4472,3.4472,3.4098,3.3514,3.3829,3.3769,3.3559,3.4173,3.4218,3.4023,3.4696,3.519,3.5504,3.5504,3.5504,3.5504,3.5504,3.5504,3.5504,3.5504,3.5504,3.5504,3.5504,3.5504,3.5504,3.5504,3.5504,3.5504,3.5504,3.2577,2.9792,2.9792,2.9792,2.9792,2.9792,2.9792,2.9792,2.9792,2.9792,2.9792,2.9792,2.9792,2.9792,2.9792,2.9792,2.9792,2.9792,2.9792,2.9792,2.9792,2.9792,2.9666,2.934,2.8561,2.7871,2.7369,2.6848,2.6672,2.6904,2.7444,2.772,2.772,2.8599,2.9013,2.9013,2.9013,2.9013,1.4734,1.5474,1.6316,1.6864,0.0,0.0,0.0,0.0,0.0,0.0,0.0,0.0,0.0,1.792,0.0,2.3187,2.5047,2.6584,2.8083,2.8876,2.9674,3.0851,3.2711,3.462,3.6373,3.7342,3.7753,3.7536,3.6949,3.6211,3.5314,3.525,3.525,3.525,3.509,3.509,3.525,3.509,3.519,3.5504,3.5504,3.5429,3.5265,3.5265,3.4801,3.4023,3.4023,3.3649,3.3051,3.32,3.317,3.3066,3.338,3.3499,3.3559,3.4068,3.4577,3.5055,3.522,3.537,3.5504,3.5504,3.5504,3.5504,3.5504,3.5504,3.5504,3.5504,3.5504,3.5504,3.5504,3.5504,3.5294,3.4356,3.1942,2.9792,2.9792,2.9792,2.9792,2.9792,2.9792,2.9792,2.9792,2.9792,2.9792,2.9792,2.9792,2.9792,2.9792,2.9792,2.9792,2.9792,2.9792,2.9792,2.9792,2.9792,2.9603,2.9164,2.836,2.7971,2.8097,2.7168,2.6917,2.7469,2.8009,2.8298,2.8298,2.9302,2.9792,2.9792,2.9792,2.9792,1.398,1.4994,1.5959,1.6512,0.0,0.0,0.0,0.0,0.0,0.0,0.0,0.0,0.0,2.0483,2.2149,2.4432,2.6285,2.8112,3.0007,0.0,3.1541,3.2288,3.3717,3.4951,3.5696,3.7067,3.7569,3.6828,3.676,3.6093,3.4651,3.4549,3.4549,3.4549,3.3955,3.3955,3.4549,3.3955,3.4262,3.5504,3.5504,3.5175,3.4547,3.4547,3.3858,3.2662,3.2662,3.2273,3.1719,3.2332,3.2228,3.1794,3.3021,3.3499,3.3499,3.3544,3.3604,3.3724,3.4337,3.4966,3.5504,3.5504,3.5504,3.5504,3.5504,3.5504,3.5504,3.5504,3.5504,3.5504,3.5504,3.5504,3.4572,3.1084,3.0011,2.9792,2.9792,2.9792,2.9792,2.9792,2.9792,2.9792,2.9792,2.9792,2.9792,2.9792,2.9792,2.9792,2.9792,2.9792,2.9792,2.9792,2.9792,2.9792,2.9792,2.9792,2.9779,2.9729,2.8222,2.757,2.8084,2.7544,2.7482,2.8034,2.8586,2.8875,2.8875,2.949,2.9792,2.9792,2.9792,2.9792,1.4163,1.5407,1.6575,1.7189,0.0,0.0,0.0,0.0,0.0,0.0,0.0,0.0,0.0,0.0,2.2962,2.4987,2.6584,2.8142,2.9689,3.0473,3.0981,3.1258,3.3299,3.4807,3.5064,3.6788,3.7564,3.675,3.6699,3.6283,3.5268,3.5212,3.5212,3.5212,3.4945,3.4945,3.5212,3.4469,3.4392,3.4851,3.4482,3.4113,3.3858,3.3858,3.3365,3.2512,3.2512,3.1898,3.0941,3.1629,3.1509,3.0986,3.1913,3.2527,3.2886,3.2886,3.314,3.3529,3.3784,3.4592,3.5504,3.5504,3.5504,3.5504,3.5504,3.5504,3.5001,3.2648,3.3644,3.5504,3.5504,3.5504,3.4572,3.0722,2.9792,2.9792,2.9792,2.9792,2.9792,2.9792,2.9792,2.9792,2.9792,2.9792,2.9792,2.9792,2.9792,2.9792,2.9792,2.9792,2.9792,2.9792,2.9792,2.9792,2.9792,2.9792,2.9792,2.9792,2.885,2.8561,2.9126,2.8273,2.8059,2.8612,2.8825,2.8925,2.8925,2.9515,2.9792,2.9792,2.9792,2.9792,1.4483,1.5778,1.7085,0.0,0.0,0.0,0.0,0.0,0.0,0.0,0.0,0.0,0.0,0.0,0.0,0.0,2.6751,2.8167,2.9146,2.9848,3.0223,3.0238,3.2081,3.3508,3.3689,3.5212,3.6038,3.5708,3.566,3.5366,3.4607,3.4607,3.4607,3.4607,3.4398,3.4398,3.4607,3.3887,3.345,3.3243,3.2779,3.2794,3.3185,3.2976,3.2512,3.1869,3.1674,3.1061,3.0253,3.0717,3.0642,3.0283,3.0941,3.148,3.1898,3.2123,3.2482,3.2901,3.311,3.3664,3.4322,3.4741,3.516,3.5504,3.5504,3.4921,3.3697,3.1087,3.1985,3.3628,3.3297,3.3414,3.3017,3.0136,2.9453,2.9465,2.9515,2.9515,2.9578,2.9754,2.9792,2.9792,2.9792,2.9792,2.9792,2.9792,2.9792,2.9792,2.9792,2.9792,2.9792,2.9792,2.9792,2.9792,2.9792,2.9792,2.9716,2.9528,2.9315,2.9377,2.9779,2.8712,2.8448,2.9189,2.9026,2.9013,2.9202,2.9603,2.9792,2.9792,2.9603,2.9616,1.4836,1.6041,1.7342,0.0,0.0,0.0,0.0,0.0,0.0,0.0,0.0,2.3599,2.4587,0.0,0.0,2.4813,2.6842,2.8419,2.8554,2.9152,2.9549,2.9549,3.0198,3.0843,3.1437,3.2081,3.2735,3.3347,3.3347,3.3074,3.2422,3.236,3.236,3.236,3.1741,3.1725,3.2377,3.1741,3.1112,3.049,3.049,3.1197,3.2467,3.175,3.115,3.0462,2.9849,2.9579,2.9564,2.9619,2.9579,2.9639,3.0253,3.0492,3.0567,3.127,3.1452,3.1556,3.2258,3.2078,3.1691,3.3051,3.4382,3.5474,3.5474,3.3634,3.1482,3.1467,3.0608,2.9503,2.8411,2.8938,2.9578,2.8863,2.8687,2.8725,2.8888,2.8925,2.9101,2.9679,2.9792,2.9792,2.9792,2.9792,2.9792,2.9792,2.9792,2.9792,2.9792,2.9779,2.9779,2.9779,2.9779,2.9779,2.9779,2.9779,2.9528,2.895,2.9453,2.9779,2.9779,2.8712,2.8649,2.9767,2.9214,2.9214,2.9779,2.9779,2.9779,2.9767,2.9202,2.9239,1.5213,1.6523,0.0,0.0,0.0,0.0,0.0,0.0,0.0,0.0,0.0,2.329,2.3438,0.0,0.0,2.5005,2.5757,2.6457,2.6993,2.7278,2.7494,2.7484,2.8891,2.9787,2.9474,3.0911,3.1753,3.1471,3.1422,3.1332,3.1151,3.068,3.0449,3.0449,3.0709,3.0905,3.1151,3.0941,3.0763,3.0576,3.0105,3.0081,3.0447,3.0253,3.0058,2.9849,2.9669,2.9325,2.8944,2.9367,2.9553,2.9648,3.0266,3.0251,2.9879,3.0088,3.0163,3.0193,3.0387,3.0926,3.1541,3.1988,3.2377,3.2721,3.2721,3.2153,3.1029,2.862,2.7721,2.7733,2.8976,2.8373,2.7784,2.8964,2.8554,2.8084,2.8775,2.8925,2.9101,2.9679,2.9792,2.9792,2.9792,2.9792,2.9792,2.9792,2.9792,2.9792,2.9792,2.944,2.9189,2.9189,2.8837,2.8599,2.8599,2.8599,2.8536,2.836,2.8511,2.8599,2.8599,2.9051,2.9264,2.9189,2.9013,2.9013,2.9189,2.9189,2.8988,2.8612,2.8825,2.8812,1.548,0.0,0.0,0.0,0.0,0.0,0.0,0.0,0.0,0.0,0.0,2.3964,2.4491,2.4446,0.0,2.5061,2.5013,2.5035,2.55,2.5693,2.5824,2.5821,2.71,2.7966,2.7791,2.8873,2.9482,2.9331,2.9343,2.9343,2.9343,2.8925,2.8742,2.8742,2.9118,2.9343,2.9343,2.9324,2.9218,2.8947,2.8538,2.8233,2.8023,2.8547,2.8839,2.8757,2.8233,2.7934,2.785,2.8206,2.8516,2.8854,2.9514,2.9531,2.922,2.949,2.9579,2.9579,2.9579,3.0103,3.0761,3.0761,3.0387,2.9953,2.9953,2.977,2.9066,2.7095,2.6533,2.6836,2.8122,2.7795,2.741,2.8686,2.8341,2.7808,2.7921,2.8298,2.875,2.9264,2.9352,2.9302,2.9151,2.9302,2.9453,2.9453,2.9641,2.9792,2.9792,2.9289,2.8925,2.8925,2.8436,2.8109,2.8109,2.8109,2.8009,2.7795,2.7984,2.7908,2.7469,2.8323,2.8737,2.8612,2.8386,2.8386,2.8599,2.8599,2.8436,2.8109,2.8222,2.821,1.5679,0.0,0.0,0.0,0.0,0.0,0.0,0.0,2.3885,2.4893,0.0,2.5067,2.6392,2.5481,2.4611,2.4986,2.4479,2.4084,2.4164,2.4298,2.4371,2.4356,2.4927,2.5515,2.6019,2.6171,2.6436,2.6949,2.6974,2.6974,2.6974,2.691,2.6894,2.6894,2.6942,2.7006,2.707,2.707,2.6825,2.6342,2.628,2.5969,2.5465,2.6797,2.7445,2.732,2.6123,2.5959,2.6497,2.6594,2.689,2.7505,2.8135,2.8374,2.8397,2.8996,2.922,2.922,2.922,2.9295,2.94,2.94,2.8562,2.756,2.7291,2.6726,2.6219,2.6219,2.6219,2.6269,2.6483,2.7205,2.7959,2.7959,2.7959,2.7682,2.6747,2.7256,2.8097,2.8561,2.8612,2.8473,2.8122,2.8499,2.8875,2.8925,2.9377,2.9716,2.9716,2.9214,2.8837,2.8787,2.8285,2.7959,2.7959,2.7959,2.7745,2.7243,2.767,2.7507,2.6571,2.703,2.757,2.8021,2.7544,2.7532,2.8034,2.8034,2.8009,2.7946,2.7494,2.7519,0.0,1.7506,0.0,0.0,0.0,0.0,0.0,2.33,2.3184,2.2247,2.3392,2.4286,2.3402,2.3927,2.4515,2.4627,2.4133,2.3689,2.3417,2.3026,2.2693,2.2346,2.2935,2.3167,2.2757,2.3637,2.4106,2.3716,2.3727,2.3727,2.3727,2.3224,2.2949,2.2949,2.3453,2.393,2.4417,2.4432,2.462,2.4987,2.4489,2.4145,2.4073,2.542,2.6033,2.6019,2.5734,2.5689,2.5856,2.6321,2.6321,2.6081,2.6703,2.6687,2.6273,2.6408,2.6467,2.6467,2.6467,2.7141,2.8008,2.8008,2.7865,2.7174,2.4797,2.3983,2.3853,2.3853,2.3853,2.4255,2.6013,2.6697,2.6816,2.6816,2.6816,2.6753,2.6584,2.6653,2.7092,2.8047,2.7996,2.777,2.7682,2.8009,2.8423,2.8863,2.9038,2.9114,2.9114,2.8624,2.8109,2.7682,2.7143,2.6816,2.6816,2.6816,2.6766,2.671,2.6753,2.6703,2.6533,2.7406,2.7783,2.7469,2.7344,2.7344,2.7457,2.7457,2.7231,2.6816,2.713,2.7118,0.0,0.0,0.0,0.0,0.0,0.0,0.0,2.2863,2.2642,2.1832,2.2909,2.382,2.3393,2.3667,2.3955,2.3968,2.3254,2.2611,2.2407,2.2049,2.175,2.1523,2.1918,2.2064,2.1732,2.2314,2.2562,2.2233,2.2203,2.2203,2.2203,2.1874,2.1695,2.1695,2.2024,2.2353,2.2682,2.2682,2.2877,2.3221,2.2862,2.2682,2.2712,2.3744,2.4029,2.3729,2.3729,2.4088,2.4612,2.4678,2.5046,2.5616,2.5591,2.5576,2.5615,2.5615,2.5615,2.5615,2.5615,2.6063,2.6737,2.7415,2.6707,2.5408,2.3807,2.3344,2.3589,2.4915,2.5245,2.5534,2.674,2.7023,2.6661,2.5231,2.5686,2.6533,2.6533,2.6533,2.6697,2.7205,2.7155,2.71,2.71,2.7406,2.7896,2.8448,2.8536,2.8536,2.8536,2.8059,2.7607,2.7318,2.6791,2.6533,2.6533,2.6533,2.6533,2.6533,2.6533,2.6533,2.6533,2.7017,2.718,2.6892,2.6892,2.6892,2.6892,2.6892,2.6741,2.6533,2.6753,2.6798,0.0,0.0,0.0,0.0,0.0,0.0,2.189,2.1932,2.191,2.1894,2.2609,2.3363,2.3858,2.3435,2.3017,2.3021,2.2062,2.139,2.1575,2.1343,2.1186,2.1241,2.1452,2.1568,2.1568,2.1529,2.1452,2.1452,2.1374,2.135,2.135,2.135,2.135,2.135,2.135,2.141,2.153,2.141,2.141,2.153,2.1473,2.1491,2.1583,2.2049,2.2059,2.1695,2.1695,2.2293,2.3236,2.2712,2.3475,2.4881,2.4343,2.4462,2.4941,2.5061,2.5106,2.5121,2.5226,2.5255,2.5435,2.6527,2.539,2.3595,2.3595,2.3595,2.4059,2.6273,2.7215,2.7505,2.7055,2.7265,2.6953,2.4469,2.5312,2.6568,2.6009,2.5887,2.5887,2.5887,2.6168,2.6345,2.637,2.6766,2.7318,2.7883,2.7959,2.7934,2.7833,2.7507,2.7205,2.7017,2.6666,2.6533,2.6533,2.6533,2.6533,2.6533,2.6533,2.6533,2.6533,2.6533,2.6533,2.6533,2.6533,2.6533,2.6533,2.6533,2.6533,2.6533,2.6533,2.6533,0.0,0.0,0.0,0.0,0.0,0.0,0.0,0.0,2.032,0.0,2.1448,2.2287,2.1746,2.1563,2.1507,2.1471,2.0767,2.0552,2.1474,2.1028,2.0708,2.099,2.1051,2.1082,2.1082,2.0746,2.0489,2.0489,2.0182,1.9959,1.9959,1.9959,1.9959,1.9959,1.9959,2.0243,2.0842,2.0258,2.0258,2.0842,2.0599,2.0696,2.1082,2.0771,2.1005,2.1695,2.1695,2.1799,2.1949,2.1859,2.1979,2.2203,2.2113,2.2143,2.2293,2.2862,2.3113,2.3146,2.3684,2.3864,2.3894,2.4073,2.3894,2.3595,2.3595,2.3595,2.367,2.4029,2.5794,2.7036,2.4732,2.5839,2.7509,2.7071,2.7217,2.674,2.4146,2.3577,2.3577,2.3577,2.4619,2.5548,2.5686,2.6189,2.6753,2.7306,2.7394,2.7218,2.6741,2.703,2.6904,2.5925,2.6201,2.6533,2.6533,2.6533,2.6533,2.6533,2.6533,2.6533,2.6533,2.6533,2.6533,2.6533,2.6533,2.6533,2.6533,2.6533,2.6533,2.6533,2.6533,2.6533,1.5876,0.0,0.0,0.0,0.0,0.0,1.894,0.0,1.8771,1.8768,1.9292,1.9942,2.045,2.0534,2.0525,2.0534,2.023,2.0162,2.0642,2.0229,1.9935,2.0088,1.9913,1.9762,1.9762,1.9374,1.9273,1.9675,1.9349,1.9391,2.0004,1.9818,1.9909,2.0398,2.0158,2.0312,2.0879,2.0569,2.0569,2.0879,2.0756,2.0797,2.0991,2.0797,2.0758,2.0898,2.067,2.0782,2.1111,2.0722,2.1006,2.1665,2.1291,2.138,2.1739,2.2024,2.2368,2.2753,2.2981,2.331,2.3595,2.3595,2.3595,2.3595,2.3595,2.3595,2.3595,2.3595,2.4448,2.5076,2.3909,2.557,2.7625,2.7625,2.6422,2.4988,2.3666,2.4535,2.5425,2.4688,2.4631,2.482,2.5109,2.5372,2.5624,2.5862,2.5912,2.5812,2.5573,2.5749,2.5711,2.5222,2.5385,2.5661,2.595,2.5975,2.6113,2.6508,2.6533,2.6533,2.6533,2.6533,2.6533,2.6533,2.6533,2.6533,2.6533,2.6533,2.6533,2.6533,2.6533,2.6533,0.0,0.0,0.0,0.0,0.0,0.0,0.0,0.0,1.7253,0.0,1.7253,1.7591,1.8667,1.9188,1.9517,1.9705,1.9559,1.9573,1.9958,1.9579,1.9346,1.9522,1.9274,1.9095,1.9095,1.8734,1.87,1.9202,1.9115,1.9357,2.0169,2.0081,2.0345,2.0959,2.0649,2.0665,2.0991,2.0991,2.1055,2.115,2.115,2.1213,2.1323,2.1229,2.0943,2.0616,2.0208,2.0248,2.0578,2.0065,2.0369,2.1141,2.0647,2.0752,2.1201,2.138,2.1754,2.2218,2.2562,2.3086,2.3595,2.3595,2.3595,2.3595,2.3595,2.3595,2.3595,2.3595,2.3595,2.3595,2.3595,2.5061,2.6557,2.6557,2.5046,2.3671,2.3881,2.5475,2.6553,2.5526,2.4819,2.4431,2.4556,2.4732,2.482,2.482,2.482,2.477,2.4632,2.4732,2.477,2.4619,2.4745,2.4971,2.536,2.5398,2.5586,2.6013,2.6163,2.6239,2.6239,2.6445,2.6458,2.6239,2.6445,2.6533,2.6533,2.6533,2.6533,2.6533,2.6533,2.6533,0.0,0.0,0.0,0.0,0.0,0.0,0.0,0.0,1.5714,1.5714,1.5714,1.5731,1.5815,1.6976,1.8143,1.8853,1.8369,1.8398,1.9809,1.9389,1.9188,1.9904,1.995,1.9934,1.9934,1.9578,1.9334,1.9383,1.9672,1.986,1.9908,2.0544,2.0959,2.0991,2.0959,2.0959,2.0991,2.0991,2.1181,2.1552,2.1552,2.1794,2.2209,2.1764,2.1552,2.1521,2.1118,2.0714,2.0326,2.0296,2.008,1.9794,1.975,1.975,1.9869,2.0528,2.0782,2.0991,2.2248,2.3086,2.3595,2.3595,2.3595,2.3595,2.3595,2.3595,2.3595,2.3595,2.3595,2.3595,2.3595,2.3699,2.3804,2.3804,2.3699,2.3822,2.4562,2.4867,2.4829,2.4473,2.4734,2.4827,2.4154,2.4469,2.482,2.482,2.482,2.4632,2.4104,2.4506,2.4619,2.4104,2.4506,2.4833,2.4858,2.4858,2.487,2.4908,2.5372,2.5636,2.5636,2.6163,2.6201,2.5649,2.6189,2.6533,2.6533,2.6533,2.6533,2.6533,2.6533,2.6533,0.0,0.0,0.0,0.0,0.0,1.5175,1.5485,1.4942,1.4571,1.5274,1.4762,1.4363,1.4984,1.6194,1.7182,1.7456,1.7659,1.798,1.85,1.8358,1.8308,1.8574,1.8595,1.8582,1.8582,1.8261,1.8217,1.8641,1.8619,1.8844,1.9552,1.9578,1.9825,2.0356,2.0557,2.0803,2.1142,2.1142,2.1199,2.134,2.134,2.1681,2.2282,2.2135,2.2032,2.2032,2.1915,2.1415,2.0764,2.0764,2.0665,2.0499,2.0193,2.0089,2.01,2.0053,2.0333,2.0842,2.1739,2.2727,2.3595,2.3595,2.3595,2.3595,2.3595,2.3595,2.3595,2.3595,2.3595,2.3595,2.3595,2.3595,2.3595,2.3595,2.3595,2.3672,2.3966,2.4026,2.4094,2.4341,2.3769,2.3297,2.3376,2.3615,2.3679,2.3679,2.3679,2.3665,2.3477,2.3615,2.3665,2.3464,2.3615,2.3891,2.4255,2.4293,2.4443,2.4795,2.4996,2.5096,2.5096,2.5297,2.531,2.5109,2.531,2.5573,2.59,2.6276,2.6533,2.6533,2.6533,2.6533,0.0,0.0,0.0,0.0,0.0,1.4519,1.4844,1.4321,1.3953,1.4749,1.4092,1.3599,1.4277,1.5256,1.6035,1.6292,1.6745,1.7067,1.7067,1.7067,1.7151,1.7405,1.7439,1.754,1.7794,1.7595,1.7655,1.8104,1.8149,1.8477,1.918,1.9214,1.9443,1.9976,2.0204,2.0471,2.0788,2.0788,2.0788,2.0788,2.0788,2.1059,2.1522,2.182,2.1938,2.1938,2.2192,2.1886,2.1213,2.1213,2.1118,2.0959,2.0649,2.0516,2.0483,2.007,2.0197,2.0661,2.1165,2.2069,2.3026,2.346,2.3595,2.3595,2.3595,2.3595,2.3595,2.3595,2.3595,2.3595,2.3595,2.3595,2.3595,2.3595,2.3595,2.3595,2.3595,2.3589,2.3611,2.3705,2.3176,2.2704,2.2569,2.2736,2.2862,2.2862,2.2952,2.3078,2.3078,2.3078,2.3078,2.3078,2.3078,2.3288,2.3678,2.3703,2.3866,2.423,2.4443,2.4544,2.4544,2.472,2.4732,2.4544,2.4732,2.4908,2.5059,2.5812,2.6264,2.6533,2.6533,2.6533,0.0,0.0,0.0,0.0,0.0,0.0,1.4265,0.0,1.3892,1.4078,1.3741,1.3462,1.3586,1.4093,1.4716,1.5428,1.5561,1.5595,1.5595,1.5595,1.5866,1.658,1.6665,1.697,1.771,1.7777,1.7794,1.7811,1.8454,1.886,1.886,1.9553,1.9951,1.9968,1.9968,1.9968,1.9968,1.9968,1.9968,1.9968,1.9968,1.9985,2.0052,2.0839,2.1221,2.1262,2.1989,2.2032,2.1612,2.1612,2.1399,2.1039,2.1023,2.1023,2.0959,2.0483,2.0314,2.0354,2.0639,2.1111,2.1844,2.3131,2.352,2.349,2.358,2.3595,2.3595,2.3595,2.3535,2.3505,2.358,2.3595,2.3595,2.3595,2.3595,2.3595,2.3595,2.3595,2.3377,2.261,2.3067,2.316,2.1801,2.199,2.2284,2.2284,2.2749,2.3053,2.3053,2.3065,2.3078,2.3078,2.3078,2.3078,2.3078,2.3078,2.3078,2.3078,2.3665,2.3966,2.3966,2.4494,2.4519,2.3979,2.4494,2.4519,2.4004,2.5071,2.5887,2.6496,2.6496,2.6496,1.5241,0.0,0.0,0.0,0.0,0.0,0.0,0.0,1.4397,1.4441,1.4172,1.3916,1.3952,1.3898,1.3919,1.4109,1.4979,1.5595,1.5595,1.5595,1.568,1.5866,1.59,1.6187,1.6915,1.6999,1.7219,1.776,1.7997,1.8115,1.8115,1.8318,1.8657,1.9198,1.9198,1.9198,1.9198,1.9198,1.9198,1.9198,1.9198,1.979,2.0873,2.1119,2.1481,2.2006,2.2226,2.2237,2.2106,2.2106,2.2049,2.1915,2.1568,2.143,2.1368,2.0959,2.0797,2.0892,2.1434,2.1039,2.0468,2.1799,2.156,2.1126,2.3026,2.3595,2.3595,2.3595,2.2233,2.1201,2.3101,2.3595,2.3595,2.3595,2.3595,2.3595,2.3595,2.3595,2.3524,2.3301,2.3059,2.2899,2.2855,2.2602,2.2337,2.2337,2.2458,2.2535,2.2535,2.2887,2.3078,2.3078,2.3078,2.3078,2.3078,2.3078,2.3078,2.3078,2.3288,2.3376,2.3376,2.3514,2.3466,2.3376,2.3466,2.3728,2.4004,2.5071,2.5686,2.5837,2.5837,2.5837,0.0,0.0,0.0,0.0,0.0,0.0,1.5015,1.4801,1.4663,0.0,1.4423,1.4192,1.4277,1.4034,1.3792,1.3768,1.4429,1.4882,1.4702,1.4721,1.4858,1.5119,1.5255,1.5605,1.6308,1.6743,1.7136,1.7437,1.7778,1.7927,1.7811,1.7811,1.8014,1.8437,1.8437,1.8437,1.8437,1.8437,1.8437,1.8437,1.8535,1.9011,1.979,2.0526,2.1028,2.137,2.204,2.231,2.231,2.231,2.231,2.2265,2.2003,2.1899,2.184,2.1415,2.1244,2.1277,2.1503,2.1012,2.0381,2.1147,2.1136,2.0931,2.1719,2.1964,2.1964,2.1964,2.0872,2.0034,2.1575,2.1964,2.2248,2.334,2.3595,2.3595,2.3595,2.3595,2.3508,2.3143,2.2844,2.2678,2.2669,2.2603,2.2469,2.2469,2.2656,2.2652,2.2398,2.3101,2.3553,2.3289,2.3729,2.4034,2.4034,2.3767,2.359,2.359,2.3305,2.3078,2.3078,2.3078,2.3078,2.3078,2.3078,2.3427,2.4004,2.4632,2.5046,2.5272,2.5272,2.5272,0.0,0.0,0.0,0.0,1.5265,0.0,1.4993,1.4867,1.4763,1.4717,1.4478,1.4359,1.4589,1.4283,1.4013,1.4038,1.3948,1.3774,1.3494,1.3556,1.3831,1.4378,1.4707,1.511,1.5713,1.6606,1.7098,1.6969,1.7714,1.8057,1.7811,1.7811,1.7811,1.7811,1.7811,1.7811,1.7811,1.7811,1.7811,1.7811,1.8057,1.807,1.798,1.963,2.0267,2.0204,2.1684,2.231,2.231,2.231,2.231,2.231,2.231,2.231,2.2237,2.1823,2.1688,2.1628,2.1291,2.1134,2.1134,2.1134,2.1524,2.1721,2.0174,1.969,1.969,1.969,1.969,1.969,1.969,1.969,2.0273,2.2607,2.3161,2.3251,2.3535,2.3595,2.3377,2.2694,2.2694,2.2589,2.1993,2.2325,2.2602,2.2602,2.3013,2.309,2.2472,2.35,2.4081,2.3442,2.4477,2.5191,2.5191,2.4592,2.4235,2.4302,2.3664,2.3301,2.3352,2.3365,2.3365,2.3365,2.3245,2.345,2.3904,2.3966,2.428,2.482,2.4757,2.4732,0.0,0.0,0.0,0.0,1.532,0.0,1.4318,1.4675,1.487,1.3751,1.4239,1.4844,1.484,1.4043,1.3585,1.421,1.3597,1.3213,1.3742,1.3827,1.388,1.3996,1.4071,1.4337,1.4949,1.529,1.5819,1.668,1.7458,1.7856,1.7811,1.7811,1.7811,1.7811,1.7811,1.7811,1.7811,1.7811,1.7811,1.7811,1.7839,1.8161,1.8724,1.9653,2.0416,2.1008,2.1921,2.231,2.231,2.231,2.231,2.231,2.231,2.231,2.2282,2.2209,2.2163,2.2135,2.2077,2.2049,2.2049,2.2049,2.1197,2.0139,1.9782,1.969,1.969,1.969,1.969,1.969,1.969,1.969,1.9809,2.0333,2.0453,2.1021,2.3146,2.3595,2.3551,2.3421,2.3421,2.3363,2.326,2.2917,2.2683,2.2683,2.2734,2.2729,2.2579,2.3149,2.3571,2.3414,2.3628,2.3802,2.3802,2.3644,2.3809,2.4341,2.4259,2.4366,2.4924,2.4951,2.4951,2.4951,2.4394,2.3832,2.3314,2.3766,2.428,2.4808,2.4368,2.4167,0.0,0.0,0.0,1.5394,1.5362,0.0,0.0,1.4966,1.5091,1.4348,1.4329,1.438,1.4185,1.378,1.3466,1.3374,1.3595,1.3614,1.3127,1.3602,1.3952,1.3828,1.4047,1.4275,1.4438,1.4499,1.5088,1.6407,1.6959,1.7253,1.7253,1.7723,1.7992,1.7992,1.8125,1.8187,1.8187,1.8187,1.8187,1.8208,1.833,1.8522,1.8776,1.9652,2.0413,2.1084,2.1636,2.2148,2.2473,2.2349,2.231,2.231,2.231,2.231,2.231,2.231,2.231,2.231,2.231,2.231,2.231,2.231,2.1721,2.0991,2.0991,2.0379,1.969,1.969,1.969,1.969,1.969,1.969,1.969,1.969,1.969,2.0049,2.1365,2.1635,2.1844,2.2517,2.2652,2.2847,2.349,2.3334,2.3143,2.3143,2.3136,2.3001,2.2687,2.343,2.3863,2.3604,2.4134,2.4482,2.4482,2.417,2.4095,2.4455,2.4107,2.4035,2.4405,2.4708,2.508,2.5384,2.5063,2.4667,2.4266,2.4569,2.4468,2.3979,2.3703,2.3565,0.0,0.0,0.0,0.0,1.5487,1.5418,0.0,0.0,0.0,1.5226,1.4521,1.384,1.3577,1.3424,1.3124,1.2456,1.333,1.3652,1.2396,1.3018,1.3563,1.3449,1.395,1.418,1.3844,1.3798,1.4431,1.5979,1.6424,1.6649,1.6744,1.7669,1.8166,1.8125,1.833,1.845,1.845,1.8489,1.8528,1.8528,1.8789,1.8896,1.8852,1.9826,2.0575,2.1153,2.1633,2.2191,2.2772,2.2554,2.2443,2.236,2.2321,2.231,2.231,2.231,2.231,2.231,2.231,2.231,2.231,2.231,2.231,2.2254,2.1915,2.0829,1.969,1.969,1.969,1.969,1.969,1.969,1.969,1.969,1.969,1.969,1.969,1.969,2.0004,2.1096,2.1306,2.1799,2.334,2.349,2.346,2.358,2.3595,2.3421,2.2934,2.3762,2.4238,2.3737,2.4606,2.5211,2.5211,2.4666,2.4361,2.4491,2.3936,2.3691,2.3803,2.4329,2.4903,2.5423,2.5437,2.5328,2.5218,2.5218,2.4603,2.3531,2.3424,2.3305,0.0,0.0,1.5429,1.5978,1.5746,1.5514,1.5994,0.0,1.5377,1.5297,0.0,1.3981,1.3945,0.0,0.0,1.2382,1.199,1.1779,1.2226,1.201,1.1969,1.2418,1.3142,1.3399,1.2833,1.2723,1.3439,1.5289,1.595,1.6464,1.6952,1.7752,1.8082,1.7839,1.7861,1.7883,1.7883,1.8125,1.8249,1.8249,1.8508,1.8996,1.9688,2.0451,2.1231,2.2012,2.2705,2.3071,2.3141,2.3093,2.2923,2.2634,2.2371,2.231,2.231,2.231,2.231,2.231,2.231,2.231,2.231,2.231,2.231,2.202,2.0465,1.9854,1.969,1.969,1.969,1.969,1.969,1.969,1.969,1.969,1.969,1.969,1.969,1.969,1.9735,1.9884,1.9914,2.0692,2.3176,2.3146,2.2966,2.352,2.3595,2.3551,2.3508,2.3626,2.3671,2.3627,2.3731,2.3834,2.3834,2.3732,2.3956,2.4551,2.4489,2.4741,2.5334,2.5423,2.5458,2.5515,2.5478,2.5152,2.4502,2.4502,2.4737,2.5119,2.4452,2.4176,0.0,0.0,1.5478,1.4983,1.5086,1.5357,1.5662,1.5565,1.526,1.4701,0.0,0.0,0.0,0.0,0.0,0.0,1.1642,1.1776,1.1122,1.1662,1.23,1.2716,1.1997,1.1704,1.2308,1.2243,1.264,1.3811,1.4488,1.5309,1.6317,1.7345,1.8034,1.8252,1.8531,1.8681,1.8681,1.8771,1.8842,1.8842,1.8964,1.9196,1.9522,1.983,2.0409,2.1186,2.1335,2.1935,2.2775,2.2579,2.2706,2.2972,2.2857,2.2624,2.231,2.231,2.231,2.231,2.231,2.231,2.231,2.231,2.231,2.2152,2.1415,2.1197,2.0991,1.998,1.969,1.969,1.969,1.969,1.969,1.969,1.969,1.969,1.969,1.969,1.969,1.969,1.969,2.0288,2.2173,2.2892,2.3295,2.3565,2.3595,2.3595,2.3595,2.3595,2.3595,2.3595,2.3595,2.3595,2.3595,2.3595,2.3729,2.4014,2.4029,2.4343,2.5016,2.5046,2.5191,2.5541,2.5555,2.5394,2.5084,2.5084,2.5228,2.5503,2.4321,2.3798,1.4841,1.4909,1.5297,1.4033,1.4514,1.5294,1.5278,1.5145,1.4863,1.4237,1.3216,0.0,0.0,0.0,1.0932,0.0,0.0,1.1525,1.0299,1.1179,1.2022,1.2246,1.0947,1.0524,1.179,1.1568,1.1829,1.2971,1.3503,1.4446,1.6011,1.7128,1.8,1.8586,1.893,1.9097,1.9097,1.918,1.923,1.923,1.9274,1.9418,1.962,1.962,2.0079,2.0851,2.088,2.1568,2.2654,2.2611,2.2892,2.3346,2.3346,2.3007,2.2535,2.2453,2.2398,2.2415,2.2338,2.231,2.231,2.231,2.231,2.231,2.231,2.231,2.2049,2.0764,2.0398,2.0311,1.9818,1.969,1.969,1.969,1.969,1.969,1.969,1.969,1.969,1.969,1.969,1.9989,2.0976,2.2069,2.2906,2.3191,2.3146,2.3071,2.3071,2.3071,2.3071,2.3071,2.3236,2.334,2.334,2.3505,2.3595,2.3595,2.3595,2.3819,2.4328,2.4343,2.4657,2.533,2.5345,2.5345,2.5345,2.5345,2.5241,2.5015,2.4099,2.3701,1.3963,1.4162,1.4823,1.3538,1.441,1.547,1.5023,1.4519,1.4128,1.4106,1.2739,1.1526,1.151,1.0811,0.0,0.0,0.0,0.0,0.0,1.0234,1.0258,1.0194,1.0133,1.0392,1.1162,1.0458,1.0932,1.3309,1.3438,1.4352,1.6453,1.7356,1.8035,1.8586,1.8604,1.8623,1.8623,1.8878,1.9001,1.9001,1.9214,1.9711,2.0448,2.0448,2.0941,2.1803,2.2557,2.2942,2.3052,2.3822,2.3939,2.3692,2.3692,2.3459,2.3117,2.2797,2.2695,2.266,2.2388,2.231,2.231,2.231,2.231,2.231,2.231,2.231,2.2282,2.2237,2.2225,2.1827,2.0139,1.969,1.969,1.969,1.969,1.969,1.969,1.969,1.969,1.969,1.969,1.969,1.975,2.0348,2.1156,2.2188,2.2009,2.1754,2.1754,2.1754,2.1754,2.1754,2.2323,2.2753,2.2753,2.3251,2.3595,2.3595,2.3595,2.361,2.3625,2.3625,2.3954,2.4597,2.4612,2.4612,2.4612,2.4612,2.4313,2.3699,2.4196,2.4468,1.3659,1.4033,1.4468,1.2713,1.3387,1.4335,1.3763,1.3852,1.3925,1.3527,1.2728,1.1924,1.1407,0.0,0.0,0.0,0.0,0.0,0.0,1.0192,1.0196,1.0163,1.0122,1.0204,1.0445,1.0206,1.0624,1.2076,1.2536,1.3401,1.4927,1.6456,1.7238,1.7214,1.8422,1.8812,1.8286,1.8893,1.9198,1.9198,1.9259,1.9436,1.9711,1.9711,1.9858,2.0168,2.0427,2.0849,2.1401,2.2263,2.285,2.3286,2.3815,2.3958,2.3795,2.3253,2.3021,2.2947,2.2453,2.231,2.231,2.231,2.231,2.231,2.231,2.231,2.231,2.231,2.231,2.2152,2.1554,2.1432,2.1432,2.1432,2.0548,1.969,1.969,1.969,1.969,1.969,1.969,1.969,1.969,1.9884,2.0348,2.1291,2.1575,2.1695,2.1695,2.1695,2.1695,2.1695,2.1889,2.2024,2.2024,2.2218,2.2517,2.2966,2.2981,2.3176,2.358,2.3595,2.3714,2.3939,2.3939,2.3744,2.334,2.3744,2.3625,2.3011,2.3629,2.3894,1.2814,1.3492,1.3991,1.203,1.3084,1.4217,1.2916,1.316,1.3502,1.2992,1.2188,1.1553,1.1469,0.0,0.0,0.0,0.0,0.0,0.0,1.0208,1.0195,1.0192,1.0153,1.0148,1.0133,1.0109,1.0594,1.1807,1.2222,1.3128,1.4726,1.5937,1.6619,1.6639,1.7822,1.8207,1.7679,1.8463,1.8867,1.8867,1.9161,1.9305,1.9305,1.9365,1.9413,1.9413,1.9708,2.0132,2.0689,2.1783,2.2538,2.3088,2.3896,2.419,2.4113,2.3566,2.33,2.3093,2.2508,2.231,2.231,2.231,2.231,2.231,2.231,2.231,2.231,2.231,2.231,2.231,2.231,2.231,2.231,2.231,2.1462,2.0632,2.0632,2.0632,2.0431,1.9818,2.0208,2.0548,2.0224,1.9925,1.9869,2.0438,2.0782,2.0976,2.0976,2.0976,2.0976,2.0976,2.1201,2.144,2.168,2.1695,2.1874,2.2308,2.2589,2.2862,2.3251,2.349,2.3819,2.4298,2.3625,2.3295,2.337,2.3071,2.2832,2.2724,2.3086,2.3385]},{"header":{"parameterUnit":"m.s-1","parameterCategory":1,"la1":30.6,"la2":29.2853,"lo1":-89.7004,"lo2":-87.6739,"dy":0.0162,"dx":0.0183,"nx":112,"ny":82,"refTime":"2023-05-29T06:00:00:Z","depth":0,"parameterNumber":3,"parameterNumberName":"V-component_of_WINDS"},"data":[0.0,0.0,0.0,0.0,0.0,0.0,0.0,0.0,0.0,0.0,0.0,0.0,0.0,0.0,0.0,0.0,0.0,0.0,0.0,0.0,0.0,0.0,0.0,0.0,0.0,0.0,0.0,0.0,0.0,0.0,0.0,0.0,0.0,0.0,0.0,0.0,0.0,0.0,0.0,0.0,0.0,0.0,0.0,0.0,0.0,0.0,0.0,0.0,0.0,0.0,0.0,0.0,0.0,0.0,0.0,0.0,0.0,0.0,0.0,0.0,0.0,0.0,0.0,0.0,0.0,0.0,0.0,0.0,0.0,0.0,0.0,0.0,0.0,0.0,0.0,0.0,0.0,0.0,0.0,0.0,0.0,0.0,0.0,0.0,0.0,0.0,0.0,0.0,0.0,0.0,-1.9079,-2.0442,-2.1205,-2.0765,-1.8736,-1.8374,-1.769,-1.6332,0.0,0.0,0.0,0.0,0.0,0.0,0.0,0.0,0.0,0.0,0.0,0.0,0.0,0.0,0.0,0.0,0.0,0.0,0.0,0.0,0.0,0.0,0.0,0.0,0.0,0.0,0.0,0.0,0.0,0.0,0.0,0.0,0.0,0.0,0.0,0.0,0.0,0.0,0.0,0.0,0.0,0.0,0.0,0.0,0.0,0.0,0.0,0.0,0.0,0.0,0.0,0.0,0.0,0.0,0.0,0.0,0.0,0.0,0.0,0.0,0.0,0.0,0.0,0.0,0.0,0.0,0.0,0.0,0.0,0.0,0.0,0.0,0.0,0.0,0.0,0.0,0.0,0.0,0.0,0.0,0.0,0.0,0.0,0.0,0.0,0.0,0.0,0.0,0.0,0.0,0.0,0.0,0.0,0.0,0.0,0.0,0.0,0.0,0.0,0.0,0.0,0.0,0.0,0.0,-1.995,-2.1296,-2.1555,-2.0822,-1.8815,-1.7901,-1.7432,-1.7451,0.0,0.0,0.0,0.0,0.0,0.0,0.0,0.0,0.0,0.0,0.0,0.0,0.0,0.0,0.0,0.0,0.0,0.0,0.0,0.0,0.0,0.0,0.0,0.0,0.0,0.0,0.0,0.0,0.0,0.0,0.0,0.0,0.0,0.0,0.0,0.0,0.0,0.0,0.0,0.0,0.0,0.0,0.0,0.0,0.0,0.0,0.0,0.0,0.0,0.0,0.0,0.0,0.0,0.0,0.0,0.0,0.0,0.0,0.0,0.0,0.0,0.0,0.0,0.0,0.0,0.0,0.0,0.0,0.0,0.0,0.0,0.0,0.0,0.0,0.0,0.0,0.0,0.0,0.0,0.0,0.0,0.0,0.0,0.0,0.0,0.0,0.0,0.0,0.0,0.0,0.0,0.0,0.0,0.0,0.0,0.0,0.0,0.0,0.0,0.0,0.0,0.0,0.0,-2.0464,-2.1227,-2.16,-2.1411,-2.0424,-1.8414,-1.7349,-1.7027,-1.7662,-1.7059,0.0,0.0,0.0,0.0,0.0,0.0,0.0,0.0,0.0,0.0,0.0,0.0,0.0,0.0,0.0,0.0,0.0,0.0,0.0,0.0,0.0,0.0,0.0,0.0,0.0,0.0,0.0,0.0,0.0,0.0,0.0,0.0,0.0,0.0,0.0,0.0,0.0,0.0,0.0,0.0,0.0,0.0,0.0,0.0,0.0,0.0,0.0,0.0,0.0,0.0,0.0,0.0,0.0,0.0,0.0,0.0,0.0,0.0,0.0,0.0,0.0,0.0,0.0,0.0,0.0,0.0,0.0,0.0,0.0,0.0,0.0,0.0,0.0,0.0,0.0,0.0,0.0,0.0,0.0,0.0,0.0,0.0,0.0,0.0,0.0,0.0,0.0,0.0,0.0,0.0,0.0,0.0,0.0,0.0,0.0,0.0,0.0,0.0,0.0,0.0,0.0,0.0,-2.1372,-2.1813,-2.1489,-2.0973,-1.9946,-1.8118,-1.7183,-1.7003,-1.7879,-1.747,0.0,0.0,0.0,0.0,0.0,0.0,0.0,0.0,0.0,0.0,0.0,0.0,0.0,0.0,0.0,0.0,0.0,0.0,0.0,0.0,0.0,0.0,0.0,0.0,0.0,0.0,0.0,0.0,0.0,0.0,0.0,0.0,0.0,0.0,0.0,0.0,0.0,0.0,0.0,0.0,0.0,0.0,0.0,0.0,0.0,0.0,0.0,0.0,0.0,0.0,0.0,0.0,0.0,0.0,0.0,0.0,0.0,0.0,0.0,0.0,0.0,0.0,0.0,0.0,0.0,0.0,0.0,0.0,0.0,0.0,0.0,0.0,0.0,0.0,0.0,0.0,0.0,0.0,0.0,0.0,0.0,0.0,0.0,0.0,0.0,0.0,0.0,0.0,0.0,0.0,0.0,0.0,0.0,0.0,0.0,0.0,0.0,0.0,0.0,0.0,0.0,0.0,-2.0411,-2.0794,-2.0753,-2.0301,-1.9489,-1.8293,-1.7722,-1.7724,-1.8499,-1.8138,0.0,0.0,0.0,0.0,0.0,0.0,0.0,0.0,0.0,0.0,0.0,0.0,0.0,0.0,0.0,0.0,0.0,0.0,0.0,0.0,0.0,0.0,0.0,0.0,0.0,0.0,0.0,0.0,0.0,0.0,0.0,0.0,0.0,0.0,0.0,0.0,0.0,0.0,0.0,0.0,0.0,0.0,0.0,0.0,0.0,0.0,0.0,0.0,0.0,0.0,0.0,0.0,0.0,0.0,0.0,0.0,0.0,0.0,0.0,0.0,0.0,0.0,0.0,0.0,0.0,0.0,0.0,0.0,0.0,0.0,0.0,0.0,0.0,0.0,0.0,0.0,0.0,0.0,0.0,0.0,0.0,0.0,0.0,0.0,0.0,0.0,0.0,0.0,0.0,0.0,0.0,0.0,0.0,0.0,0.0,0.0,0.0,0.0,0.0,0.0,0.0,0.0,-2.0725,-2.0969,-2.075,-1.9908,-1.9097,-1.8279,-1.7378,-1.7368,-1.8503,0.0,0.0,0.0,0.0,0.0,0.0,0.0,0.0,0.0,0.0,0.0,0.0,0.0,0.0,0.0,0.0,0.0,0.0,0.0,0.0,0.0,0.0,0.0,0.0,0.0,0.0,0.0,0.0,0.0,0.0,0.0,0.0,0.0,0.0,0.0,0.0,0.0,0.0,0.0,0.0,0.0,0.0,0.0,0.0,0.0,0.0,0.0,0.0,0.0,0.0,0.0,0.0,0.0,0.0,0.0,0.0,0.0,0.0,0.0,0.0,0.0,0.0,0.0,0.0,0.0,0.0,0.0,0.0,0.0,0.0,0.0,0.0,0.0,0.0,0.0,0.0,0.0,0.0,0.0,0.0,0.0,0.0,0.0,0.0,0.0,0.0,0.0,0.0,0.0,0.0,0.0,0.0,0.0,0.0,0.0,0.0,0.0,0.0,0.0,0.0,0.0,0.0,-2.0009,-2.0484,-2.071,-2.0429,-1.9412,-1.8604,-1.8215,-1.7364,-1.7441,-1.8853,0.0,0.0,0.0,0.0,0.0,0.0,0.0,0.0,0.0,0.0,0.0,0.0,0.0,0.0,0.0,0.0,0.0,0.0,0.0,0.0,0.0,0.0,0.0,0.0,0.0,0.0,0.0,0.0,0.0,0.0,0.0,0.0,0.0,0.0,0.0,0.0,0.0,0.0,0.0,0.0,0.0,0.0,0.0,0.0,0.0,0.0,0.0,0.0,0.0,0.0,0.0,0.0,0.0,0.0,0.0,0.0,0.0,0.0,0.0,0.0,0.0,0.0,0.0,0.0,0.0,0.0,0.0,0.0,0.0,0.0,0.0,0.0,0.0,0.0,0.0,0.0,0.0,0.0,0.0,0.0,0.0,0.0,0.0,0.0,0.0,0.0,0.0,0.0,0.0,0.0,0.0,0.0,0.0,0.0,0.0,0.0,0.0,0.0,0.0,0.0,0.0,0.0,-1.9101,-1.9472,-1.969,-1.969,-1.8727,-1.8106,-1.8106,-1.7781,-1.8208,0.0,0.0,0.0,0.0,0.0,0.0,0.0,0.0,0.0,0.0,0.0,0.0,0.0,0.0,0.0,0.0,0.0,0.0,0.0,0.0,0.0,0.0,0.0,0.0,0.0,0.0,0.0,0.0,0.0,0.0,0.0,0.0,0.0,0.0,0.0,0.0,0.0,0.0,0.0,0.0,0.0,0.0,0.0,0.0,0.0,0.0,0.0,0.0,0.0,0.0,0.0,0.0,0.0,0.0,0.0,0.0,0.0,0.0,0.0,0.0,0.0,0.0,0.0,0.0,0.0,0.0,0.0,0.0,0.0,0.0,0.0,0.0,0.0,0.0,0.0,0.0,0.0,0.0,0.0,0.0,0.0,0.0,0.0,0.0,0.0,0.0,0.0,0.0,0.0,0.0,0.0,0.0,0.0,0.0,0.0,0.0,0.0,0.0,0.0,0.0,0.0,0.0,0.0,-1.9302,-1.9545,-1.969,-1.969,-1.8727,-1.8106,-1.8106,-1.7316,-1.7548,-1.9213,0.0,0.0,0.0,0.0,0.0,0.0,0.0,0.0,0.0,0.0,0.0,0.0,0.0,0.0,0.0,0.0,0.0,0.0,0.0,0.0,0.0,0.0,0.0,0.0,0.0,0.0,0.0,0.0,0.0,0.0,0.0,0.0,0.0,0.0,0.0,0.0,0.0,0.0,0.0,0.0,0.0,0.0,0.0,0.0,0.0,0.0,0.0,0.0,0.0,0.0,0.0,0.0,0.0,0.0,0.0,0.0,0.0,0.0,0.0,0.0,0.0,0.0,0.0,0.0,0.0,0.0,0.0,0.0,0.0,0.0,0.0,0.0,0.0,0.0,0.0,0.0,0.0,0.0,0.0,0.0,0.0,0.0,0.0,0.0,0.0,0.0,0.0,0.0,0.0,0.0,0.0,0.0,0.0,0.0,0.0,0.0,0.0,0.0,0.0,0.0,0.0,0.0,-1.9639,-1.9509,-1.9442,-1.969,-1.8727,-1.8106,-1.8106,-1.7105,-1.7226,-1.8894,0.0,0.0,0.0,0.0,0.0,0.0,0.0,0.0,0.0,0.0,0.0,0.0,0.0,0.0,0.0,0.0,0.0,0.0,0.0,0.0,0.0,0.0,0.0,0.0,0.0,0.0,0.0,0.0,0.0,0.0,0.0,0.0,0.0,0.0,0.0,0.0,0.0,0.0,0.0,0.0,0.0,0.0,0.0,0.0,0.0,0.0,0.0,0.0,0.0,0.0,0.0,0.0,0.0,0.0,0.0,0.0,0.0,0.0,0.0,0.0,0.0,0.0,0.0,0.0,0.0,0.0,0.0,0.0,0.0,0.0,0.0,0.0,0.0,0.0,0.0,0.0,0.0,0.0,0.0,0.0,0.0,0.0,0.0,0.0,0.0,0.0,0.0,0.0,0.0,0.0,0.0,0.0,0.0,0.0,0.0,0.0,0.0,0.0,0.0,0.0,0.0,0.0,-2.0065,-1.9464,-1.9095,-1.9566,-1.8688,-1.8066,-1.8027,-1.7076,-1.7144,-1.8562,0.0,0.0,0.0,0.0,0.0,0.0,0.0,0.0,0.0,0.0,0.0,0.0,0.0,0.0,0.0,0.0,0.0,0.0,0.0,0.0,0.0,0.0,0.0,0.0,0.0,0.0,0.0,0.0,0.0,0.0,0.0,0.0,0.0,0.0,0.0,0.0,0.0,0.0,0.0,0.0,0.0,0.0,0.0,0.0,0.0,0.0,0.0,0.0,0.0,0.0,0.0,0.0,0.0,0.0,0.0,0.0,0.0,0.0,0.0,0.0,-1.5959,-1.5114,0.0,0.0,0.0,0.0,0.0,0.0,0.0,0.0,0.0,0.0,0.0,0.0,0.0,0.0,0.0,0.0,0.0,0.0,0.0,0.0,0.0,0.0,0.0,0.0,0.0,0.0,0.0,0.0,0.0,0.0,0.0,0.0,0.0,0.0,0.0,0.0,0.0,0.0,0.0,0.0,-2.024,-1.9502,-1.893,-1.9043,-1.8496,-1.7947,-1.7504,-1.6879,-1.6999,-1.8223,-1.8259,0.0,0.0,0.0,0.0,0.0,0.0,0.0,0.0,0.0,0.0,0.0,0.0,0.0,0.0,0.0,0.0,0.0,0.0,0.0,0.0,0.0,0.0,0.0,0.0,0.0,0.0,0.0,0.0,0.0,0.0,0.0,0.0,0.0,0.0,0.0,0.0,0.0,0.0,0.0,0.0,0.0,0.0,0.0,0.0,0.0,0.0,0.0,0.0,0.0,0.0,0.0,0.0,0.0,0.0,0.0,0.0,0.0,0.0,0.0,-1.795,-1.695,0.0,0.0,0.0,0.0,0.0,0.0,0.0,0.0,0.0,0.0,0.0,0.0,0.0,0.0,0.0,0.0,0.0,0.0,0.0,0.0,0.0,0.0,0.0,0.0,0.0,0.0,0.0,0.0,0.0,0.0,0.0,0.0,0.0,0.0,0.0,0.0,0.0,0.0,0.0,0.0,-1.9658,-1.9009,-1.8535,-1.8535,-1.8027,-1.7585,-1.7312,-1.6795,-1.6773,-1.735,-1.7913,0.0,0.0,0.0,0.0,0.0,0.0,0.0,0.0,0.0,0.0,0.0,0.0,0.0,0.0,0.0,0.0,0.0,0.0,0.0,0.0,0.0,0.0,0.0,0.0,0.0,0.0,0.0,0.0,0.0,0.0,0.0,0.0,0.0,0.0,0.0,0.0,0.0,0.0,0.0,0.0,0.0,0.0,0.0,0.0,0.0,0.0,0.0,0.0,0.0,0.0,0.0,0.0,0.0,-2.1383,-2.2302,-2.3209,-2.2686,-2.2498,-2.2527,-2.1043,-1.9967,-1.9182,-1.8454,0.0,0.0,0.0,0.0,0.0,0.0,0.0,0.0,0.0,0.0,0.0,0.0,0.0,0.0,0.0,0.0,0.0,0.0,0.0,0.0,0.0,0.0,-1.8361,-1.9558,-1.9737,-1.9341,-1.8188,0.0,0.0,0.0,0.0,0.0,0.0,0.0,0.0,0.0,0.0,0.0,-1.8934,-1.8344,-1.7947,-1.7947,-1.7544,-1.7271,-1.7146,-1.6752,-1.6522,-1.6522,-1.7626,-1.8027,0.0,0.0,0.0,0.0,0.0,0.0,0.0,0.0,0.0,0.0,0.0,0.0,0.0,0.0,0.0,0.0,0.0,0.0,0.0,0.0,0.0,0.0,0.0,0.0,0.0,0.0,0.0,0.0,0.0,0.0,0.0,0.0,-1.5151,-1.4888,0.0,0.0,0.0,0.0,0.0,0.0,0.0,0.0,0.0,0.0,0.0,0.0,0.0,-2.064,-2.212,-2.2294,-2.3171,-2.4804,-2.4357,-2.452,-2.5206,-2.5116,-2.5118,-2.5118,-2.4834,0.0,-2.1795,-2.0499,0.0,0.0,0.0,0.0,0.0,0.0,0.0,0.0,0.0,0.0,0.0,0.0,0.0,0.0,0.0,0.0,0.0,0.0,0.0,0.0,0.0,0.0,-2.0328,-2.0514,-2.0555,-2.0467,-2.0315,-1.9875,-1.9512,-1.9608,-1.8845,-1.8469,0.0,0.0,0.0,0.0,0.0,0.0,-1.9073,-1.8112,-1.7435,-1.7435,-1.7353,-1.7118,-1.6637,-1.6552,-1.6522,-1.6522,-1.6703,-1.698,-1.7363,-1.7817,0.0,0.0,0.0,0.0,0.0,0.0,0.0,0.0,0.0,0.0,0.0,0.0,0.0,0.0,0.0,0.0,0.0,0.0,0.0,0.0,0.0,0.0,0.0,0.0,0.0,0.0,0.0,0.0,0.0,-1.4967,-1.5797,-1.6591,-1.717,-1.7366,0.0,0.0,0.0,0.0,0.0,0.0,0.0,0.0,0.0,-2.1585,-2.2613,-2.361,-2.4443,-2.4813,-2.5622,-2.6722,-2.6811,-2.7215,-2.7844,-2.7844,-2.7844,-2.7844,-2.7808,-2.7041,-2.5774,-2.3941,-2.2604,-2.1486,0.0,0.0,0.0,0.0,-1.8687,-1.9453,-1.9653,-2.0757,-2.2091,-2.1951,0.0,0.0,0.0,0.0,0.0,0.0,0.0,-1.9318,-1.9371,-2.036,-2.1437,-2.1574,-2.1355,-2.1217,-2.1518,-2.1116,-2.0565,-2.0176,-1.9742,-1.9625,-2.0065,-1.9887,0.0,0.0,0.0,-1.8672,-1.8535,-1.7828,-1.7312,-1.7312,-1.7034,-1.6752,-1.6522,-1.6522,-1.6522,-1.6522,-1.6522,-1.6635,-1.6886,-1.7637,-1.838,0.0,0.0,0.0,0.0,0.0,0.0,0.0,0.0,0.0,0.0,0.0,0.0,0.0,0.0,0.0,0.0,0.0,0.0,0.0,0.0,0.0,0.0,0.0,0.0,0.0,0.0,0.0,0.0,-1.5591,-1.6522,-1.7697,-1.8261,-1.8656,0.0,0.0,0.0,0.0,0.0,0.0,-2.0584,-2.2158,-2.3731,-2.5379,-2.6169,-2.6748,-2.7126,-2.7604,-2.8188,-2.8846,-2.919,-2.9699,-3.0328,-3.0163,-3.0178,-3.0328,-3.0148,-2.9804,-2.919,-2.6922,-2.488,-2.3121,-2.3125,-2.2342,-2.1133,-2.0826,-2.141,-2.2404,-2.2423,-2.3142,-2.4075,-2.4296,-2.4726,-2.4858,-2.3209,0.0,0.0,0.0,0.0,-2.084,-2.0926,-2.1409,-2.202,-2.2385,-2.2209,-2.202,-2.2435,-2.2083,-2.1516,-2.0795,-2.063,-2.0693,-2.0845,-2.046,0.0,-1.9277,-1.88,-1.8286,-1.776,-1.7485,-1.7287,-1.7131,-1.6893,-1.6685,-1.6522,-1.6522,-1.6522,-1.6522,-1.6522,-1.6522,-1.6522,-1.7463,-1.8194,-1.8647,0.0,0.0,0.0,0.0,0.0,0.0,0.0,0.0,0.0,0.0,0.0,0.0,0.0,0.0,0.0,0.0,0.0,0.0,0.0,0.0,0.0,0.0,0.0,0.0,0.0,0.0,0.0,0.0,0.0,-1.6933,-1.8534,0.0,0.0,0.0,0.0,-1.866,-2.074,-2.2533,-2.3694,-2.5713,-2.7595,-2.9295,-2.9924,-3.0582,-3.1168,-3.1213,-3.1614,-3.2258,-3.1659,-3.1734,-3.2347,-3.1719,-3.1779,-3.2332,-3.1704,-3.1362,-3.1123,-2.8547,-2.7395,-2.7156,-2.5929,-2.5779,-2.6168,-2.5493,-2.5314,-2.5448,-2.6075,-2.5974,-2.5719,-2.6961,-2.6547,-2.5299,-2.3941,-2.3314,0.0,0.0,-2.45,-2.2055,-2.3591,-2.2962,-2.2196,-2.2865,-2.3015,-2.3002,-2.3027,-2.2661,-2.2096,-2.1574,-2.1033,-2.0787,-2.1066,0.0,-1.9547,-1.8768,-1.8401,-1.7798,-1.6734,-1.7043,-1.7169,-1.6615,-1.7055,-1.7112,-1.6559,-1.6522,-1.6522,-1.6522,-1.6522,-1.6522,-1.6522,-1.7099,-1.7664,-1.8239,-1.9607,0.0,0.0,0.0,0.0,0.0,0.0,0.0,0.0,0.0,0.0,0.0,0.0,0.0,0.0,0.0,0.0,0.0,0.0,0.0,0.0,0.0,0.0,0.0,0.0,0.0,0.0,0.0,0.0,-2.0244,-2.1467,0.0,-2.2471,-2.1962,-2.1802,-2.2177,-2.3891,-2.5495,-2.6678,-2.8793,-3.0604,-3.2048,-3.2317,-3.2542,-3.2796,-3.2796,-3.2916,-3.314,-3.2482,-3.2512,-3.3125,-3.2467,-3.2287,-3.2527,-3.2706,-3.2557,-3.2123,-3.1599,-3.0148,-2.8233,-2.8188,-2.8053,-2.7859,-2.7619,-2.7799,-2.8143,-2.7949,-2.7724,-2.7455,-2.6901,-2.6847,-2.6653,-2.5314,-2.5393,-2.6238,-2.7315,-2.6564,-2.5537,-2.5922,-2.5309,-2.4589,-2.4267,-2.3954,-2.369,-2.369,-2.3238,-2.2786,-2.2585,-2.182,-2.1259,-2.1369,-2.0479,-1.9826,-1.9879,-1.892,-1.8321,-1.8587,-1.8209,-1.7953,-1.8087,-1.7994,-1.7827,-1.7626,-1.7601,-1.7451,-1.7099,-1.7074,-1.6911,-1.6534,-1.7074,-1.7639,-1.8191,-1.9442,-2.0746,0.0,0.0,0.0,0.0,0.0,0.0,0.0,0.0,0.0,0.0,0.0,0.0,0.0,0.0,0.0,0.0,0.0,0.0,0.0,0.0,0.0,0.0,0.0,0.0,0.0,0.0,-2.1134,-2.2897,-2.4124,-2.4952,-2.5421,-2.4983,-2.4641,-2.4641,-2.6481,-2.8061,-2.9171,-3.0997,-3.2716,-3.4143,-3.4173,-3.4173,-3.4173,-3.4173,-3.4173,-3.4173,-3.3499,-3.341,-3.3799,-3.314,-3.2961,-3.3185,-3.341,-3.338,-3.3185,-3.341,-3.2213,-3.0298,-3.0419,-3.0144,-2.9761,-2.9761,-3.0041,-3.0349,-2.9769,-2.9594,-2.9325,-2.7679,-2.7595,-2.7874,-2.7171,-2.7649,-2.8532,-2.8831,-2.8675,-2.832,-2.7903,-2.7135,-2.6268,-2.5627,-2.4988,-2.4531,-2.4531,-2.4243,-2.3853,-2.3489,-2.2686,-2.2103,-2.2375,-2.175,-2.1337,-2.1719,-2.0794,-2.0247,-2.084,-1.9939,-1.9287,-1.9499,-1.8904,-1.8405,-1.8229,-1.8674,-1.8621,-1.7748,-1.8177,-1.805,-1.7112,-1.7941,-1.8605,-1.8974,-2.0475,-2.188,-2.3121,0.0,0.0,0.0,0.0,0.0,0.0,0.0,0.0,0.0,0.0,0.0,0.0,0.0,0.0,0.0,0.0,0.0,0.0,0.0,0.0,0.0,0.0,0.0,-1.875,-2.1459,-2.383,-2.4596,-2.6188,-2.7072,-2.6687,-2.7803,-2.7803,-2.5927,-2.8502,-3.0335,-3.0999,-3.2393,-3.3864,-3.5409,-3.5424,-3.5439,-3.5504,-3.5504,-3.5504,-3.5489,-3.4801,-3.4487,-3.4487,-3.3829,-3.3873,-3.4442,-3.3829,-3.3903,-3.4427,-3.3814,-3.3559,-3.3483,-3.2518,-3.2169,-3.2105,-3.2169,-3.2155,-3.2003,-3.1619,-3.1482,-3.1198,-2.952,-2.9019,-2.9086,-2.9609,-3.0028,-3.0451,-3.1317,-3.0929,-3.0134,-2.9566,-2.8284,-2.7019,-2.6929,-2.6258,-2.5598,-2.5598,-2.5586,-2.5272,-2.423,-2.3577,-2.3343,-2.4073,-2.4002,-2.3909,-2.3999,-2.3727,0.0,-2.311,-2.1931,-2.1069,-2.0703,-1.9697,-1.8869,-1.8402,-1.9729,-1.9907,-1.8339,-1.969,-1.9842,-1.8254,-1.9641,-2.0471,-2.0484,-2.2665,-2.3932,-2.4191,0.0,0.0,0.0,0.0,0.0,0.0,0.0,0.0,0.0,0.0,0.0,0.0,0.0,0.0,0.0,0.0,0.0,0.0,0.0,0.0,0.0,0.0,-2.2055,-2.3054,-2.5233,-2.71,-2.8125,-2.9231,-3.0033,-3.0188,-3.0248,-3.0313,-3.0378,-3.1565,-3.2089,-3.1584,-3.2951,-3.3936,-3.4394,-3.4394,-3.4758,-3.5504,-3.5504,-3.5504,-3.5489,-3.4801,-3.4741,-3.519,-3.4517,-3.4307,-3.4502,-3.4816,-3.4771,-3.4502,-3.4816,-3.4951,-3.4906,-3.4129,-3.3396,-3.2926,-3.3588,-3.283,-3.144,-3.1261,-3.0977,-3.063,-3.077,-3.112,-3.1809,-3.3395,-3.3275,-3.2721,-3.3305,-3.2579,-3.143,-3.0622,-2.9274,-2.7946,-2.7331,-2.6392,-2.5598,-2.5598,-2.5297,-2.4946,-2.4657,-2.4469,-2.4155,-2.3504,-2.3035,-2.2776,-2.2783,-2.2411,-2.2035,-2.1937,-2.1317,-2.1268,-2.2481,-2.1194,-2.0511,-2.1264,-2.0939,-2.0117,-1.8869,-1.9169,-1.9079,-1.8229,-1.8637,-1.9256,-2.0127,-2.2295,-2.3469,0.0,0.0,0.0,0.0,0.0,0.0,0.0,0.0,0.0,0.0,0.0,0.0,0.0,0.0,0.0,0.0,0.0,0.0,0.0,0.0,0.0,0.0,-2.3612,-2.577,-2.7715,-2.8012,-2.841,-2.9273,-3.0371,-3.0996,-3.087,-3.1695,-3.1968,-3.1225,-3.2303,-3.2706,-3.2138,-3.2541,-3.3171,-3.3959,-3.3602,-3.3671,-3.4274,-3.4691,-3.4839,-3.4839,-3.4877,-3.5115,-3.5489,-3.51,-3.4906,-3.4936,-3.5325,-3.528,-3.4936,-3.534,-3.5504,-3.5394,0.0,0.0,0.0,0.0,-3.3477,-3.2328,-3.2019,-3.1433,-3.0927,-3.1353,-3.1974,-3.3006,-3.4936,-3.4696,-3.3799,-3.3888,-3.3306,-3.2416,-3.1268,-3.0069,-2.8839,-2.7704,-2.6688,-2.5963,-2.5963,-2.5724,-2.5435,-2.5197,-2.5146,0.0,-2.3929,-2.3748,-2.3837,-2.4356,-2.3857,-2.3438,-2.3567,-2.2642,-2.2309,-2.3171,-2.1758,-2.0904,-2.1327,-2.1388,0.0,0.0,0.0,-2.0118,-1.9557,-1.9532,0.0,0.0,0.0,-2.3678,-2.4113,-2.524,0.0,0.0,-2.4232,-2.3945,0.0,0.0,0.0,0.0,0.0,0.0,0.0,0.0,0.0,0.0,0.0,0.0,0.0,0.0,0.0,0.0,-2.6876,-2.9681,-3.1868,-3.0079,-2.866,-2.9112,-3.0446,-3.097,-3.0075,-3.2335,-3.2834,-3.0279,-3.1696,-3.2522,-3.2464,-3.1669,0.0,0.0,0.0,-3.2464,-3.2593,-3.3449,-3.3876,-3.4027,-3.4905,-3.5359,-3.5504,-3.5504,-3.5504,-3.5504,-3.5504,-3.5504,-3.5504,-3.5504,-3.5424,-3.5213,-3.4245,-3.3876,-3.3959,-3.3671,-3.3559,-3.35,-3.2958,0.0,0.0,-3.1416,-3.199,-3.3106,-3.4931,-3.4966,-3.4262,-3.3844,-3.3585,-3.3096,-3.17,-3.0614,-2.9413,-2.8053,-2.713,-2.6533,-2.6533,-2.6533,-2.637,-2.5799,-2.5686,-2.5548,-2.5084,-2.5256,-2.5892,-2.6947,-2.6463,-2.6008,-2.614,-2.4693,-2.3566,-2.3345,-2.1776,0.0,-2.0229,-2.1375,-2.148,-1.9925,-2.1221,-2.1783,-2.1225,-2.1199,-2.1668,-2.2605,-2.3244,-2.4096,-2.5142,-2.5795,-2.6654,-2.7545,-2.5751,-2.5739,0.0,0.0,0.0,0.0,0.0,0.0,0.0,0.0,0.0,0.0,0.0,0.0,0.0,0.0,0.0,-2.8039,-2.9354,-3.0443,-3.2263,-3.1456,-3.0624,-3.0773,-3.1675,-3.196,-3.1044,-3.2105,-3.2664,-3.2119,-3.2393,-3.2249,-3.1536,-3.1315,-3.1389,-3.1742,-3.1609,-3.1815,-3.2593,-3.282,-3.3241,-3.4027,-3.4177,0.0,-3.5504,-3.5504,-3.5504,-3.5504,-3.5504,-3.5504,-3.5504,-3.5504,-3.4986,-3.4177,-3.3241,-3.331,-3.3739,-3.1415,-3.0856,-3.1057,-3.0864,-3.0361,-2.9907,-3.0563,-3.1528,-3.276,-3.4901,-3.5385,0.0,-3.5145,-3.3964,-3.2723,-3.2375,-3.0392,-2.8388,-2.8083,-2.7233,-2.6533,-2.6533,-2.6533,-2.6496,-2.6382,-2.6302,-2.6264,-2.6163,-2.5464,-2.5038,-2.5268,-2.5192,-2.49,-2.4518,-2.3735,-2.3552,-2.4557,-2.2649,-2.1733,-2.262,-2.1642,-2.0633,-1.9836,-2.0103,-2.0231,-2.0129,-2.0129,-2.0447,-2.1125,-2.2258,-2.3393,-2.4657,-2.5863,-2.6826,-2.761,-2.6668,-2.6728,0.0,0.0,0.0,0.0,0.0,0.0,0.0,0.0,0.0,0.0,0.0,-2.1913,0.0,0.0,-2.7284,-2.9973,-3.107,-3.1861,-3.2512,-3.2177,-3.1536,-3.0633,-3.0921,-3.0983,-3.0558,-3.1328,-3.1683,-3.1193,-3.1609,-3.1669,-3.1254,-3.0758,-3.0696,-3.118,-3.0758,-3.0838,-3.1629,-3.183,-3.2255,-3.2977,-3.3675,-3.4245,-3.4758,-3.4758,-3.4758,-3.4691,-3.4259,-3.4327,-3.4758,-3.4758,-3.4461,-3.3876,-3.2464,-3.2464,-3.3101,-3.1696,-3.1022,-3.0771,-3.0758,-3.022,-2.9645,-3.0059,-3.1043,-3.2403,-3.4802,-3.5504,-3.5359,-3.4721,-3.3851,-3.2835,-3.1765,-3.0408,-2.9019,-2.7965,-2.7268,-2.6804,-2.6584,-2.6533,-2.6533,-2.6533,-2.6533,-2.6533,-2.6533,-2.6239,-2.5862,-2.5297,-2.4983,-2.472,-2.4443,-2.3916,-2.3674,-2.4026,-2.2781,-2.2065,-2.239,-2.1614,-2.084,-2.0275,-2.0489,-2.0526,-2.0238,-2.0501,-2.0778,-2.1066,-2.1984,-2.3146,-2.4498,-2.5474,-2.6496,-2.761,-2.7245,-2.726,0.0,0.0,0.0,0.0,0.0,0.0,0.0,0.0,-1.9435,-2.1475,-2.3389,-2.5138,-2.65,-2.8339,-3.0141,-3.1411,-3.2703,-3.3346,-3.268,-3.2593,-3.1901,-2.9998,-2.9792,-2.9792,-2.9792,-3.0482,-3.062,-2.9869,-3.0482,-3.0895,-3.0895,-3.0216,-3.0139,-3.0895,-3.0216,-3.0005,-3.0457,-3.079,-3.1268,-3.1866,-3.2971,-3.3518,-3.3739,-3.3739,-3.3739,-3.3671,-3.2961,-3.3031,-3.3739,-3.3739,-3.3602,-3.331,-3.1815,-3.1536,-3.2119,-3.2249,-3.1742,-3.097,-3.1106,-3.0558,-2.9792,-2.9792,-3.0722,-3.2349,-3.4787,-3.5001,-3.4288,-3.3561,-3.3422,-3.2961,-3.1146,-3.0461,-2.9848,-2.805,-2.7519,-2.7318,-2.6879,-2.6779,-2.6779,-2.6779,-2.6779,-2.6779,-2.6779,-2.7155,-2.7092,-2.6076,-2.5561,-2.5259,-2.5159,-2.4657,-2.4092,-2.3466,-2.2874,-2.2209,-2.1543,-2.1594,-2.1418,-2.092,-2.1242,-2.1292,-2.084,-2.1255,-2.1543,-2.1644,-2.2083,-2.301,-2.4476,-2.5094,-2.6108,-2.7408,-2.7509,-2.7625,-1.535,-1.5354,-1.5885,-1.6284,-1.7225,-1.8725,0.0,0.0,-2.4309,-2.6635,-2.8292,-2.9649,-3.0671,-3.199,-3.3242,-3.3961,-3.4718,-3.4633,-3.2876,-3.2593,-3.1901,-2.9998,-2.9792,-2.9792,-2.9792,-2.9856,-2.9934,-2.9792,-2.9856,-2.9934,-2.9934,-2.9869,-2.9869,-2.9934,-2.9856,-2.9829,-2.988,-2.9972,-3.0381,-3.1272,-3.1415,-3.196,-3.2749,-3.2749,-3.2749,-3.2749,-3.2664,-3.2664,-3.2749,-3.2749,-3.2249,-3.1462,-3.1241,-3.0758,-3.0216,-3.1044,-3.0771,-3.0075,-3.0895,-3.0558,-2.9792,-2.9792,-3.0996,-3.289,-3.492,-3.3143,-3.0797,-3.2263,-3.2678,-3.2522,-3.1775,-3.0706,-2.9681,-2.89,-2.8373,-2.7996,-2.7934,-2.7921,-2.7921,-2.7921,-2.7921,-2.7921,-2.7921,-2.7971,-2.7808,-2.7193,-2.7042,-2.6829,-2.6339,-2.5774,-2.5209,-2.4695,-2.3678,-2.2623,-2.1581,-2.1945,-2.1983,-2.143,-2.1455,-2.1455,-2.1393,-2.1455,-2.1719,-2.2209,-2.2284,-2.2943,-2.4302,-2.5036,-2.5837,-2.6616,-2.7306,-2.7625,-1.7258,-1.7124,-1.7434,0.0,-1.9889,-2.0879,-2.293,-2.4325,-2.5753,-2.7969,-2.9849,-3.1284,-3.198,-3.3021,-3.3682,0.0,-3.365,-3.3325,-3.196,-3.1815,-3.1122,-2.9467,-2.9591,-2.9792,-2.9792,-2.9792,-2.9792,-2.9792,-2.9792,-2.9792,-2.9792,-2.9792,-2.9792,-2.9792,-2.9792,-2.9942,-3.0269,-2.9955,-3.0163,-3.083,-3.1065,-3.1389,-3.1815,-3.1815,-3.1476,-3.0996,-3.1536,-3.1476,-3.0983,-3.1536,-3.1536,-3.118,-3.062,-3.0482,-3.062,-3.1044,-3.097,-3.0771,-3.1683,-3.1756,-3.1267,-3.0152,-3.1057,-3.2961,-3.492,-3.4356,-3.3283,-3.4056,-3.2706,-3.0921,-3.0646,-3.0228,-2.9641,-2.9063,-2.875,-2.8499,-2.8172,-2.8109,-2.8109,-2.8109,-2.8109,-2.8109,-2.8109,-2.8373,-2.8511,-2.8273,-2.7695,-2.7205,-2.6967,-2.6151,-2.5398,-2.487,-2.4393,-2.3929,-2.3477,-2.3351,-2.305,-2.2485,-2.2447,-2.2297,-2.1983,-2.2284,-2.256,-2.2786,-2.2786,-2.3408,-2.4794,-2.5074,-2.5745,-2.682,-2.7631,-2.7988,-1.8315,-1.8552,0.0,-2.1462,-2.2513,-2.3311,-2.4782,-2.585,-2.7043,-2.8956,-3.0798,-3.2152,-3.2524,-3.338,-3.3808,-3.3101,-3.2961,-3.2664,-3.1742,-3.1742,-3.1103,-2.9139,-2.905,-2.9263,-2.9541,-2.9691,-2.9792,-2.9792,-2.9792,-2.9792,-2.9792,-2.9792,-2.9792,-2.9792,-2.9792,-2.998,-3.0382,-2.9993,-2.9993,-3.0382,-3.0675,-3.0833,-3.0833,-3.0833,-3.0419,-2.9869,-3.0482,-3.0419,-2.9856,-3.0558,-3.0833,-3.0771,-3.0075,-3.0203,-3.0833,-3.1106,-3.118,-3.1315,-3.2249,-3.2593,-3.2393,-3.0983,-3.1476,-3.2961,-3.492,-3.5504,-3.5504,-3.5504,-3.3506,-3.122,-3.0508,-3.0292,-3.0114,-2.934,-2.9164,-2.9051,-2.8662,-2.8574,-2.8574,-2.8574,-2.8574,-2.8574,-2.8574,-2.89,-2.9164,-2.9164,-2.8348,-2.7682,-2.7532,-2.6527,-2.5636,-2.5096,-2.5172,-2.5146,-2.4845,-2.4456,-2.3979,-2.3414,-2.3165,-2.2962,-2.256,-2.2865,-2.3153,-2.3364,-2.3376,-2.3872,-2.5049,-2.5205,-2.5815,-2.6734,-2.778,-2.824,-1.7824,0.0,-2.0437,-2.2834,-2.4887,-2.6672,-2.772,-2.8411,-2.9263,-3.0834,-3.1906,-3.2579,-3.2593,-3.338,-3.4027,-3.3959,-3.3959,-3.3602,-3.2678,-3.3101,-3.2386,-2.9276,-2.82,-2.8002,0.0,-2.9465,-2.9792,-2.9792,-2.9792,-2.9792,-2.9792,-2.9792,-2.9792,-2.9792,-2.9792,-2.9804,-2.9817,-2.9804,-2.9804,-2.9817,-2.9882,-2.9856,-2.9856,-2.9856,-2.9869,-2.9792,-2.9869,-2.9869,-2.9792,-2.9869,-2.9856,-2.9869,-2.9792,-2.9792,-2.9934,-3.0833,-3.118,-3.1315,-3.2249,-3.2593,-3.2593,-3.2522,-3.2522,-3.2961,-3.492,-3.5504,-3.5504,-3.5504,-3.5439,-3.4787,-3.229,-3.1649,-3.1368,-3.0062,-2.9767,-2.9767,-2.9741,-2.9741,-2.9741,-2.9741,-2.9741,-2.9741,-2.9741,-2.9754,-2.9767,-2.9767,-2.9264,-2.8687,-2.8147,-2.7118,-2.6214,-2.5636,-2.6076,-2.5975,-2.4908,-2.4808,-2.4556,-2.4004,-2.3439,-2.3065,-2.3053,-2.3065,-2.3401,-2.3966,-2.3966,-2.4243,-2.4795,-2.5545,-2.5893,-2.5968,-2.7547,-2.8177,-1.9743,0.0,-2.3451,-2.5534,-2.7062,-2.8298,-2.9051,-2.9845,-3.0481,-3.0506,-3.0951,-3.0954,-2.9821,-3.0066,-3.0502,-3.0671,-3.0641,-3.0893,-3.16,-3.2072,-3.1442,-2.9176,-2.9525,0.0,0.0,0.0,0.0,-2.9767,-2.9792,-2.9792,-2.9792,-2.9792,-2.9792,-2.9792,-2.9792,-2.9792,-2.9792,-2.9792,-2.9792,-2.9792,-2.9792,-2.9792,-2.9792,-2.9792,-2.9792,-2.9792,-2.9792,-2.9792,-2.9792,-2.9792,-2.9792,-2.9792,-2.9792,-2.9792,-2.9869,-3.0139,-3.0696,-3.1389,-3.2961,-3.3973,-3.4558,-3.4558,-3.4558,-3.4639,-3.5294,-3.5504,-3.5504,-3.5504,-3.5504,-3.5294,-3.4438,-3.3269,-3.2046,-3.0983,-3.0771,-3.0558,-2.9934,-2.9792,-2.9792,-2.9792,-2.9792,-2.9792,-2.9792,-2.9792,-2.9792,-2.9792,-2.9302,-2.8599,-2.767,-2.7231,-2.6791,-2.6239,-2.6352,-2.6314,-2.5937,-2.5548,-2.5259,-2.5071,-2.4556,-2.4092,-2.3715,-2.4054,-2.4167,-2.4004,-2.4356,-2.4808,-2.5335,-2.5572,-2.5881,-2.633,-2.74,-2.7877,-2.2607,-2.4694,-2.6498,-2.7983,-2.9039,-2.9806,-3.019,-3.0615,-3.0586,-2.9807,-2.9811,-2.938,-2.739,-2.74,-2.805,-2.8812,-2.8911,-2.9513,-3.1237,-3.2055,-3.1737,-3.0118,-3.0573,-3.0566,0.0,0.0,0.0,-2.9741,-2.9792,-2.9792,-2.9792,-2.9792,-2.9792,-2.9792,-2.9792,-2.9792,-2.9792,-2.9792,-2.9792,-2.9792,-2.9792,-2.9792,-2.9792,-2.9792,-2.9792,-2.9792,-2.9792,-2.9792,-2.9792,-2.9792,-2.9792,-2.9792,-2.9792,-2.9792,-2.9792,-2.9792,-3.0419,-3.1389,-3.2593,-3.3822,-3.5052,-3.5359,-3.5504,-3.5504,-3.5504,-3.5504,-3.5504,-3.5504,-3.5504,-3.5504,-3.5504,-3.4558,-3.3408,-3.2335,-3.1328,-3.062,-3.0343,-3.0075,-2.9792,-2.9792,-2.9792,-2.9792,-2.9792,-2.9792,-2.9792,-2.9792,-2.9478,-2.8837,-2.772,-2.7406,-2.7067,-2.6584,-2.6533,-2.6533,-2.6533,-2.5937,-2.5598,-2.5598,-2.5109,-2.4669,-2.4305,-2.4632,-2.4745,-2.4569,-2.4921,-2.536,-2.59,-2.59,-2.6101,-2.6521,-2.7351,-2.7537,-2.6189,-2.8196,-2.935,-3.0244,-3.093,-3.1241,-3.1214,-3.0652,-2.983,-2.8633,-2.8387,-2.7708,0.0,0.0,-2.6646,-2.8282,-2.8711,-2.9553,-3.1904,-3.3069,-3.327,0.0,0.0,0.0,0.0,0.0,0.0,-2.9754,-2.9792,-2.9792,-2.9792,-2.9792,-2.9792,-2.9792,-2.9792,-2.9792,-2.9792,-2.9792,-2.9792,-2.9792,-2.9792,-2.9792,-2.9792,-2.9792,-2.9792,-2.9792,-2.9792,-2.9792,-2.9792,-2.9792,-2.9792,-2.9792,-2.9792,-2.9792,-2.9792,-2.9792,-3.0343,-3.1106,-3.1106,-3.2393,-3.4095,-3.5133,-3.5504,-3.5504,-3.5504,-3.5504,-3.5504,-3.5504,-3.5504,-3.5504,-3.5504,-3.5504,-3.5213,-3.4002,-3.1796,-3.0216,-3.1044,-3.0482,-2.9792,-2.9792,-2.9792,-2.9792,-2.9792,-2.9792,-2.9792,-2.9792,-2.9792,-2.9402,-2.8285,-2.7695,-2.7143,-2.6634,-2.6571,-2.6559,-2.6533,-2.5963,-2.5636,-2.5636,-2.5172,-2.4895,-2.4858,-2.4895,-2.5121,-2.5586,-2.5624,-2.5912,-2.6533,-2.6533,-2.6533,-2.6521,-2.7297,-2.7229,-2.8707,-3.0197,-3.1249,-3.1899,-3.214,-3.1996,-3.087,-3.0187,-2.9242,-2.7323,-2.5771,-2.4394,0.0,0.0,0.0,-2.7396,-2.8189,0.0,-3.3016,-3.4383,0.0,-3.2569,0.0,-3.2598,-3.1103,-3.0747,0.0,0.0,-2.9792,-2.9792,-2.9792,-2.9792,-2.9792,-2.9792,-2.9792,-2.9792,-2.9792,-2.9792,-2.9792,-2.9792,-2.9792,-2.9792,-2.9792,-2.9792,-2.9792,-2.9792,-2.9792,-2.9792,-2.9792,-2.9792,-2.9792,-2.9792,-2.9792,-2.9792,-2.9792,-2.9792,-2.9934,-3.0139,-3.0139,-3.1415,-3.3241,-3.492,-3.5504,-3.5504,-3.5504,-3.5504,-3.5504,-3.5504,-3.5504,-3.5504,-3.5504,-3.5504,-3.5439,-3.5082,-3.3796,-3.2349,-3.1402,-3.0482,-2.9792,-2.9792,-2.9792,-2.9792,-2.9792,-2.9792,-2.9792,-2.9792,-2.9792,-2.9528,-2.8812,-2.8599,-2.8134,-2.718,-2.708,-2.6904,-2.6559,-2.6395,-2.6239,-2.6239,-2.6113,-2.585,-2.541,-2.5812,-2.59,-2.5598,-2.6013,-2.6382,-2.6533,-2.6533,-2.6533,-2.6533,-2.6714,-2.6714,-3.1474,-3.2694,-3.3393,-3.3226,-3.3058,-3.2345,-3.0663,-2.9589,-2.8161,-2.5562,-2.3787,0.0,-2.1332,-2.1476,0.0,0.0,0.0,0.0,-3.3244,-3.4273,-3.4416,0.0,-3.3602,0.0,-3.1888,-3.1044,-3.0343,0.0,-2.9792,-2.9792,-2.9792,-2.9792,-2.9792,-2.9792,-2.9792,-2.9792,-2.9792,-2.9792,-2.9792,-2.9792,-2.9792,-2.9792,-2.9792,-2.9792,-2.9792,-2.9792,-2.9792,-2.9792,-2.9792,-2.9792,-2.9792,-2.9792,-2.9792,-3.0075,-3.0419,-3.0419,-3.0419,-3.0419,-3.0419,-3.0846,-3.1563,-3.2635,-3.3561,-3.4056,-3.3213,-3.4153,-3.5504,-3.5504,-3.5504,-3.5504,-3.5504,-3.5504,-3.5504,-3.5504,-3.4935,-3.3919,-3.2177,-3.1044,-3.0279,-2.9856,-2.9792,-2.9792,-2.9792,-2.9792,-2.9792,-2.9792,-2.9792,-2.9679,-2.9352,-2.9089,-2.8599,-2.7733,-2.7645,-2.7419,-2.6866,-2.6816,-2.6716,-2.6546,-2.6533,-2.6382,-2.5988,-2.6289,-2.637,-2.5988,-2.6302,-2.6533,-2.6533,-2.6533,-2.6533,-2.6533,-2.6533,-2.6533,-3.404,-3.5055,-3.5279,-3.4245,-3.3576,-3.2566,-3.0311,-2.8667,-2.6709,-2.3499,0.0,-2.0969,-1.9798,-2.0531,-2.2362,-2.5565,0.0,-2.9422,-3.3077,-3.3478,-3.3958,-3.5355,-3.3754,-3.2593,-3.2593,-3.0983,-2.9934,-2.9792,-2.9792,-2.9792,-2.9792,-2.9792,-2.9792,-2.9792,-2.9792,-2.9792,-2.9792,-2.9792,-2.9792,-2.9792,-2.9792,-2.9792,-2.9792,-2.9792,-2.9792,-2.9792,-2.9792,-2.9792,-2.9792,-2.9792,-2.9792,-2.9792,-2.9792,-3.0343,-3.118,-3.118,-3.1241,-3.1389,-3.1254,-3.0696,-3.0011,-2.9869,-3.0921,-3.1901,-3.0292,-3.2074,-3.4854,-3.5359,-3.5504,-3.5504,-3.5504,-3.5504,-3.5504,-3.5504,-3.5504,-3.5001,-3.3115,-3.1829,-3.0758,-2.9934,-2.9792,-2.9792,-2.9792,-2.9792,-2.9792,-2.9792,-2.9792,-2.9792,-2.9792,-2.9352,-2.8837,-2.8273,-2.821,-2.7959,-2.7331,-2.7281,-2.7042,-2.6559,-2.6533,-2.6533,-2.6533,-2.6533,-2.6533,-2.6533,-2.6533,-2.6533,-2.6533,-2.6533,-2.6533,-2.6533,-2.6533,-2.6533,-3.5055,-3.5415,-3.5279,-3.4245,-3.3718,-3.2482,-2.9016,-2.6833,0.0,0.0,-1.9907,-1.8918,-1.8874,-1.9705,-2.1605,-2.5353,-2.7001,-2.9254,-3.3324,-3.3477,-3.3725,0.0,-3.3754,-3.2593,-3.2593,-3.1609,0.0,0.0,-2.9792,-2.9792,-2.9792,-2.9792,-2.9792,-2.9792,-2.9792,-2.9792,-2.9792,-2.9792,-2.9792,-2.9792,-2.9792,-2.9792,-2.9792,-2.9792,-2.9792,-2.9792,-2.9792,-2.9792,-2.9792,-2.9792,-2.9792,-2.9792,-2.9792,-3.0343,-3.118,-3.118,-3.1669,-3.2249,-3.1462,-3.1106,-3.0833,-3.0075,-2.9998,-3.0216,-2.9856,-3.0292,-3.1442,-3.4572,-3.5504,-3.5504,-3.5504,-3.5504,-3.5504,-3.5504,-3.5504,-3.5148,-3.3713,-3.1636,-2.9998,-2.9869,-2.9792,-2.9792,-2.9792,-2.9792,-2.9792,-2.9792,-2.9792,-2.9792,-2.9792,-2.9704,-2.9428,-2.885,-2.8787,-2.8373,-2.7369,-2.7281,-2.7042,-2.6559,-2.6533,-2.6533,-2.6533,-2.6533,-2.6533,-2.6533,-2.6533,-2.6533,-2.6533,-2.6533,-2.6533,-2.6533,-2.6533,-2.6533,-3.3557,-3.4379,-3.5279,-3.4245,-3.3173,-3.1433,-2.7692,0.0,0.0,0.0,-1.8801,-1.8124,-1.8658,-1.9384,0.0,-2.3934,-2.6083,0.0,-3.1389,-3.2707,0.0,-3.3941,-3.2749,-3.1888,0.0,-3.1044,-3.0279,-2.9869,-2.9792,-2.9792,-2.9792,-2.9792,-2.9792,-2.9792,-2.9792,-2.9792,-2.9792,-2.9792,-2.9792,-2.9792,-2.9792,-2.9792,-2.9792,-2.9792,-2.9792,-2.9792,-2.9792,-2.9792,-2.9792,-2.9792,-2.9792,-2.9792,-2.9792,-3.0343,-3.118,-3.118,-3.1462,-3.1815,-3.1389,-3.0908,-3.0419,-2.9934,-2.9792,-2.9792,-2.9792,-2.9792,-3.0152,-3.2015,-3.4002,-3.5504,-3.5504,-3.5504,-3.5504,-3.5504,-3.4706,-3.3837,-3.3199,-3.1355,-2.9792,-2.9792,-2.9792,-2.9792,-2.9792,-2.9792,-2.9792,-2.9792,-2.9792,-2.9792,-2.9792,-2.9792,-2.9691,-2.9402,-2.9114,-2.8599,-2.777,-2.7444,-2.7042,-2.6559,-2.6533,-2.6533,-2.6533,-2.6533,-2.6533,-2.6533,-2.6533,-2.6533,-2.6533,-2.6533,-2.6533,-2.6533,-2.6533,-2.6533,-3.2363,-3.3737,-3.5279,-3.4245,-3.2593,-3.0277,-2.6773,-2.4396,0.0,0.0,-1.8175,-1.7805,-1.829,0.0,-1.9922,0.0,-2.4399,-2.6651,-2.9011,0.0,-3.2275,0.0,-3.1529,0.0,-3.118,-3.0343,0.0,-2.9792,-2.9792,-2.9792,-2.9792,-2.9792,-2.9792,-2.9792,-2.9792,-2.9792,-2.9792,-2.9792,-2.9792,-2.9792,-2.9792,-2.9792,-2.9792,-2.9792,-2.9792,-2.9792,-2.9792,-2.9792,-2.9792,-2.9792,-2.9792,-2.9792,-2.9792,-3.0343,-3.118,-3.118,-3.1315,-3.1462,-3.1241,-3.0696,-3.0075,-2.9869,-2.9792,-2.9792,-2.9792,-2.9792,-2.9792,-2.9792,-3.1942,-3.4505,-3.5294,-3.5504,-3.5504,-3.5504,-3.3919,-3.2464,-3.2593,-3.1132,-2.9792,-2.9792,-2.9792,-2.9856,-3.0075,-3.0075,-3.0139,-3.0355,-3.0432,-3.0432,-3.0432,-3.0432,-3.0432,-3.0432,-2.9479,-2.8699,-2.816,-2.7607,-2.7042,-2.6559,-2.6533,-2.6533,-2.6533,-2.6533,-2.6533,-2.6533,-2.6533,-2.6533,-2.6533,-2.6533,-2.6533,-2.6533,-2.6658,-2.6782,-3.3604,-3.4831,-3.5279,-3.4245,-3.2255,-2.977,-2.6697,0.0,0.0,-1.8582,-1.7774,-1.7479,-1.7136,-1.7317,-1.8262,-2.0571,0.0,-2.3413,0.0,0.0,0.0,-3.1571,0.0,0.0,-3.1106,-3.0343,-2.9792,-2.9792,-2.9792,-2.9792,-2.9792,-2.9792,-2.9792,-2.9792,-2.9792,-2.9792,-2.9792,-2.9792,-2.9792,-2.9792,-2.9792,-2.9792,-2.9792,-2.9792,-2.9792,-2.9792,-2.9792,-2.9792,-2.9792,-2.9792,-2.9792,-2.9792,-2.9792,-3.0343,-3.118,-3.118,-3.1742,-3.2321,-3.1536,-3.1106,-3.0895,-3.0075,-2.9792,-2.9792,-2.9792,-2.9792,-2.9792,-2.9792,-3.0088,-3.1158,-3.4572,-3.5504,-3.5504,-3.5504,-3.3575,-3.1928,-3.2464,-3.1132,-2.9792,-2.9792,-2.9792,-3.0075,-3.0895,-3.1031,-3.1402,-3.2249,-3.2321,-3.2321,-3.2321,-3.2321,-3.2321,-3.2321,-3.0312,-2.8699,-2.816,-2.7607,-2.7042,-2.6559,-2.6533,-2.6533,-2.6533,-2.6533,-2.6533,-2.6533,-2.6533,-2.6533,-2.6533,-2.6533,-2.6533,-2.6521,-2.7229,-2.7604,-2.9719,-3.2512,-3.519,-3.3796,-3.1337,-2.8575,-2.5991,0.0,-2.0316,-1.8372,-1.7462,-1.6992,-1.6825,-1.6556,-1.683,-1.8385,0.0,0.0,-2.2691,0.0,0.0,-2.9272,-2.9116,0.0,0.0,0.0,-2.9792,-2.9792,-2.9792,-2.9792,-2.9792,-2.9792,-2.9792,-2.9792,-2.9792,-2.9792,-2.9792,-2.9792,-2.9792,-2.9792,-2.9792,-2.9792,-2.9792,-2.9792,-2.9792,-2.9792,-2.9792,-2.9792,-2.9792,-2.9792,-2.9792,-2.9792,-2.9792,-2.9998,-3.0343,-3.0343,-3.0558,-3.0846,-3.0495,-3.0343,-3.0279,-2.9934,-2.9792,-2.9792,-2.9792,-2.9792,-2.9792,-2.9792,-2.9792,-3.0152,-3.1649,-3.2918,-3.3685,-3.3283,-3.2706,-3.2119,-3.1829,-3.1609,-3.1341,-3.0771,-3.1132,-3.1623,-3.196,-3.2033,-3.2177,-3.2522,-3.2593,-3.2593,-3.2593,-3.2593,-3.2593,-3.2593,-3.0956,-2.9559,-2.8964,-2.7926,-2.7042,-2.6559,-2.6533,-2.6533,-2.6533,-2.6533,-2.6533,-2.6533,-2.6533,-2.6533,-2.6533,-2.6973,-2.6973,-2.6521,-2.7855,-2.8182,-2.7056,-3.0362,-3.3645,-3.3074,-3.0527,-2.7617,0.0,0.0,-1.9625,-1.8042,-1.7171,-1.6585,-1.6219,-1.6045,-1.6173,-1.6856,0.0,-1.8713,-1.9977,-2.2432,0.0,0.0,0.0,-2.8193,0.0,-2.9479,-2.9792,-2.9792,-2.9792,-2.9792,-2.9792,-2.9792,-2.9792,-2.9792,-2.9792,-2.9792,-2.9792,-2.9792,-2.9792,-2.9792,-2.9792,-2.9792,-2.9792,-2.9792,-2.9792,-2.9792,-2.9792,-2.9792,-2.9792,-2.9792,-2.9792,-2.9792,-2.9792,-2.9792,-2.9792,-2.9792,-2.9792,-2.9792,-2.9792,-2.9792,-2.9792,-2.9792,-2.9792,-2.9792,-2.9792,-2.9792,-2.9792,-2.9792,-2.9792,-2.9792,-2.9792,-3.1057,-3.2263,-3.1796,-3.1988,-3.2105,-3.1669,-3.1888,-3.2105,-3.1669,-3.2177,-3.2678,-3.2961,-3.3031,-3.3101,-3.3394,-3.3463,-3.3463,-3.3463,-3.3463,-3.3325,-3.3031,-3.1823,-3.0708,-2.9839,-2.8498,-2.7443,-2.6798,-2.6622,-2.6533,-2.6533,-2.6533,-2.6533,-2.6533,-2.6533,-2.6533,-2.6533,-2.7095,-2.7162,-2.6905,-2.8298,-2.8939,-2.7056,-2.9101,-3.0228,-3.2048,-3.0043,-2.7181,0.0,0.0,-1.9599,-1.7467,-1.6844,-1.6324,-1.5037,-1.5725,-1.6438,-1.6236,-1.7516,0.0,-2.0119,-2.1467,0.0,0.0,0.0,-2.7315,-2.6985,-2.8708,-2.9792,-2.9792,-2.9792,-2.9792,-2.9792,-2.9792,-2.9792,-2.9792,-2.9792,-2.9792,-2.9792,-2.9792,-2.9792,-2.9792,-2.9792,-2.9792,-2.9792,-2.9792,-2.9792,-2.9792,-2.9792,-2.9792,-2.9792,-2.9792,-2.9792,-2.9792,-2.9792,-2.9792,-2.9792,-2.9792,-2.9792,-2.9792,-2.9792,-2.9792,-2.9792,-2.9792,-2.9792,-2.9792,-2.9792,-2.9792,-2.9792,-2.9792,-2.9792,-2.9792,-2.9792,-3.0722,-3.1723,-3.1723,-3.1415,-3.1462,-3.2393,-3.1888,-3.1462,-3.2393,-3.2593,-3.289,-3.3808,-3.4027,-3.4312,-3.5294,-3.5439,-3.5439,-3.5439,-3.5439,-3.5067,-3.4095,-3.3157,-3.2003,-3.0546,-2.9336,-2.8265,-2.7339,-2.6766,-2.6533,-2.6533,-2.6533,-2.6533,-2.6533,-2.6533,-2.6533,-2.6533,-2.6533,-2.6905,-2.7736,-2.862,-2.9889,-2.2736,-2.5518,-2.7899,-2.7069,-2.5653,-2.3981,-2.2302,0.0,-1.8332,-1.6818,-1.6383,-1.6027,-1.5094,-1.5233,-1.5707,-1.6424,-1.7235,0.0,0.0,0.0,0.0,-2.4438,-2.7267,-2.9007,0.0,0.0,-2.9792,-2.9792,-2.9792,-2.9792,-2.9792,-2.9792,-2.9792,-2.9792,-2.9792,-2.9792,-2.9792,-2.9792,-2.9792,-2.9792,-2.9792,-2.9792,-2.9792,-2.9792,-2.9792,-2.9792,-2.9792,-2.9792,-2.9792,-2.9792,-2.9792,-2.9792,-2.9792,-2.9792,-2.9792,-2.9792,-2.9792,-2.9792,-2.9792,-2.9792,-2.9792,-2.9792,-2.9792,-2.9792,-2.9792,-2.9792,-2.9792,-2.9792,-2.9792,-2.9792,-2.9792,-3.0075,-3.0368,-3.0368,-3.0846,-3.1241,-3.1609,-3.2393,-3.3171,-3.3518,-3.4109,-3.4706,-3.4986,-3.5052,-3.5133,-3.5424,-3.5504,-3.5504,-3.5504,-3.5504,-3.5359,-3.5067,-3.4773,-3.3457,-3.0618,-2.9455,-2.8588,-2.7871,-2.7318,-2.7017,-2.7017,-2.7246,-2.7284,-2.7284,-2.792,-2.8247,-2.8247,-2.8812,-2.9504,-3.0269,-3.0011,-3.0464,0.0,-2.2165,-2.4235,-2.3953,-2.2893,0.0,0.0,0.0,-1.747,-1.6442,-1.6128,-1.5877,-1.5246,-1.5301,-1.5576,-1.5929,-1.6902,0.0,0.0,0.0,0.0,-2.4432,0.0,0.0,0.0,-2.9568,-2.9792,-2.9792,-2.9792,-2.9792,-2.9792,-2.9792,-2.9792,-2.9792,-3.0139,-3.0355,-3.0355,-3.0709,-3.0709,-3.0355,-3.0355,-3.0139,-2.9792,-2.9792,-2.9792,-2.9792,-2.9792,-2.9792,0.0,-2.9792,-2.9792,-2.9792,-2.9792,-2.9792,-2.9792,-2.9792,-2.9792,-2.9792,-2.9792,-2.9792,-2.9792,-2.9792,-2.9792,-2.9792,-2.9792,-2.9792,-2.9792,-2.9792,-2.9792,-2.9792,-2.9792,-2.9792,-2.9792,-2.9792,-3.0633,-3.1476,-3.1683,-3.289,-3.4095,-3.4461,-3.5067,-3.5504,-3.5504,-3.5504,-3.5504,-3.5504,-3.5504,-3.5504,-3.5504,-3.5504,-3.5359,-3.4986,-3.492,-3.3897,-3.1473,-3.0454,-2.9684,-2.8997,-2.8228,-2.7932,-2.8265,-2.8239,-2.8182,-2.8182,-2.8748,-2.9002,-2.9002,-2.9889,-3.0584,-3.1029,-3.0837,-3.1029,0.0,0.0,0.0,0.0,0.0,0.0,0.0,0.0,0.0,-1.6153,-1.5959,-1.5802,-1.5348,-1.5711,-1.5811,-1.5004,-1.6551,0.0,0.0,-1.8148,0.0,0.0,-2.5805,0.0,-2.8066,-2.9124,-2.9792,-2.9792,-2.9792,-2.9792,-2.9792,-2.9792,-2.9792,-2.9792,-3.0696,-3.118,-3.118,-3.196,-3.196,-3.118,-3.1106,-3.062,-2.9792,-2.9792,-2.9792,-2.9792,-2.9792,-2.9792,-2.9792,-2.9792,-2.9792,-2.9792,-2.9792,-2.9792,-2.9792,-2.9792,-2.9792,-2.9792,-2.9792,-2.9792,-2.9792,-2.9792,-2.9792,-2.9792,-2.9792,-2.9792,-2.9792,-2.9792,-2.9792,-2.9792,-2.9792,-2.9792,-2.9792,-2.9792,-3.0797,-3.1856,-3.2536,-3.338,-3.4312,-3.5279,-3.5504,-3.5504,-3.5504,-3.5504,-3.5504,-3.5504,-3.5504,-3.5504,-3.5504,-3.5504,-3.5133,-3.4177,-3.4095,-3.3739,-3.282,-3.2152,-3.15,-3.0631,-2.935,-2.908,-3.0034,-2.9412,-2.9066,-2.9066,-2.9129,-2.9192,-2.9192,-3.0011,-3.0389,-3.0389,-3.1161,-3.1482,-1.5542,0.0,-1.7332,-1.6718,-1.6923,-1.7028,0.0,0.0,0.0,0.0,0.0,0.0,0.0,0.0,0.0,0.0,0.0,0.0,-1.717,0.0,0.0,-2.5568,-2.7752,-2.8861,-2.8201,-2.9126,-2.9792,-2.9792,-2.9792,-2.9792,-2.9792,-2.9792,-2.9792,-2.9792,-3.0696,-3.118,-3.118,-3.0696,-3.0696,-3.118,-3.0482,-2.9998,-2.9792,-2.9792,-2.9792,-2.9792,-2.9792,-2.9792,-2.9792,-2.9792,-2.9792,-2.9792,-2.9792,-2.9792,-2.9792,-2.9792,-2.9792,-2.9792,-2.9792,-2.9792,-2.9792,-2.9792,-2.9792,-2.9792,-2.9792,-2.9792,-2.9792,-2.9792,-2.9792,-2.9792,-2.9792,-2.9792,-2.9792,-2.9792,-3.0797,-3.2015,-3.3143,-3.3685,-3.4312,-3.5279,-3.5504,-3.5504,-3.5504,-3.5504,-3.5504,-3.5504,-3.5504,-3.5504,-3.5504,-3.5504,-3.5424,-3.5133,-3.5133,-3.4773,-3.3739,-3.2891,-3.2329,-3.2116,-3.0911,-3.039,-3.0591,-3.0207,-3.0011,-3.0011,-3.0584,-3.0896,-3.0896,-3.1087,-3.1219,-3.1219,-3.1409,-3.1482,-1.4397,-1.5129,-1.5665,-1.5026,-1.5086,-1.5196,0.0,0.0,0.0,0.0,0.0,0.0,0.0,0.0,0.0,0.0,-1.6145,0.0,0.0,0.0,-2.438,-2.5437,-2.7633,-2.8812,0.0,-2.9096,-2.9611,-2.9028,-2.9534,-2.9792,-2.9792,-2.9792,-2.9792,-2.9792,-3.0279,-3.0758,-3.118,-3.1119,-3.1119,-3.118,-3.0696,-3.0203,-2.9792,-2.9792,-2.9792,-2.9792,-2.9792,-2.9792,-2.9792,-2.9792,-2.9792,-2.9792,-2.9792,-2.9792,-2.9792,-2.9792,-2.9792,-2.9792,-2.9792,-2.9792,-2.9792,-2.9792,-2.9792,-2.9792,-2.9792,-2.9792,-2.9792,-2.9792,-2.9792,-2.9792,-2.9792,-2.9792,-2.9792,-2.9792,-3.0996,-3.242,-3.3353,-3.4206,-3.4839,-3.5359,-3.5504,-3.5504,-3.5504,-3.5504,-3.5504,-3.5504,-3.5504,-3.5504,-3.5504,-3.5504,-3.5504,-3.5504,-3.5504,-3.5279,-3.4758,-3.4192,-3.3754,-3.3241,-3.2086,-3.1608,-3.2012,-3.1253,-3.0837,-3.0837,-3.1575,-3.1988,-3.1988,-3.2287,-3.2437,-3.2437,-3.2437,-3.2437,-1.3963,-1.4205,-1.4479,-1.4911,-1.444,-1.4053,0.0,0.0,0.0,0.0,0.0,0.0,0.0,0.0,0.0,0.0,0.0,0.0,-1.9364,-2.2339,-2.4419,-2.4758,-2.6665,0.0,-2.7866,-2.876,-2.8949,-2.8176,-2.9015,-2.9624,-2.9792,-2.9792,-2.9792,-2.9792,-2.9792,-3.0216,-3.097,-3.1756,-3.1815,-3.118,-3.1044,-3.0558,-2.9792,-2.9792,-2.9741,-2.9666,-2.9666,-2.9616,-2.9541,-2.9628,-2.9616,-2.9553,-2.9729,-2.9741,-2.9666,-2.9767,-2.9792,-2.9792,-2.9792,-2.9792,-2.9792,-2.9792,-2.9792,-2.9792,-2.9792,-2.9792,-2.9792,-2.9792,-2.9792,-2.9792,-2.9792,-2.9792,-2.9792,-2.9792,-3.1489,-3.3185,-3.3782,-3.4721,-3.5504,-3.5504,-3.5504,-3.5504,-3.5504,-3.5504,-3.5504,-3.5504,-3.5504,-3.5504,-3.5504,-3.5504,-3.5504,-3.5504,-3.5504,-3.5504,-3.5504,-3.5504,-3.5133,-3.4245,-3.3042,-3.2591,-3.3139,-3.2123,-3.1482,-3.1482,-3.2183,-3.2512,-3.2512,-3.317,-3.3499,-3.3499,-3.3499,-3.3499,-1.2979,-1.3493,-1.3888,-1.3799,-1.3599,-1.3446,0.0,0.0,0.0,0.0,0.0,0.0,0.0,0.0,-1.4683,0.0,0.0,-2.0227,0.0,0.0,-2.5176,-2.6113,0.0,-2.7251,-2.6759,-2.6885,-2.729,-2.8004,-2.8255,-2.8767,-2.9792,-2.9792,-2.9792,-2.9792,-2.9792,-2.9869,-2.9998,-3.0152,-3.0558,-3.118,-3.0419,-2.9934,-2.9792,-2.9792,-2.9528,-2.9063,-2.9063,-2.88,-2.8398,-2.8863,-2.8787,-2.8461,-2.9415,-2.949,-2.9114,-2.9616,-2.9792,-2.9792,-2.9792,-2.9792,-2.9792,-2.9792,-2.9792,-2.9792,-2.9792,-2.9792,-2.9792,-2.9792,-2.9792,-2.9792,-2.9792,-2.9792,-2.9792,-2.9792,-3.2506,-3.5067,-3.5213,-3.5359,-3.5504,-3.5504,-3.5504,-3.5504,-3.5504,-3.5504,-3.5504,-3.5504,-3.5504,-3.5504,-3.5504,-3.5504,-3.5504,-3.5504,-3.5504,-3.5504,-3.5504,-3.5504,-3.5424,-3.5279,-3.4029,-3.2855,-3.1825,-3.1586,-3.1482,-3.1482,-3.2183,-3.2512,-3.2512,-3.317,-3.3499,-3.3499,-3.3499,-3.3499,-1.2443,-1.2793,-1.3179,-1.3478,-1.354,0.0,0.0,0.0,0.0,0.0,0.0,0.0,0.0,0.0,-1.6426,-1.8517,0.0,-2.1327,-2.2293,-2.3339,-2.4494,0.0,0.0,-2.6194,-2.5991,-2.63,-2.6719,-2.7209,-2.7763,-2.8597,-2.9714,-2.9792,-2.9792,-2.9792,-2.9792,-2.9792,-2.9792,-2.9792,-2.9998,-3.0419,-2.9998,-2.9792,-2.9792,-2.9792,-2.9478,-2.8925,-2.8925,-2.8612,-2.8122,-2.8386,-2.8335,-2.816,-2.8674,-2.8712,-2.8549,-2.9114,-2.9528,-2.9792,-2.9792,-2.9792,-2.9792,-2.9792,-2.9792,-2.9792,-2.9792,-2.9792,-2.9792,-2.9792,-2.9792,-2.9792,-2.9792,-2.9792,-2.9792,-2.9792,-3.272,-3.5504,-3.5504,-3.5504,-3.5504,-3.5504,-3.5504,-3.5504,-3.5504,-3.5504,-3.5504,-3.5504,-3.5504,-3.5504,-3.5504,-3.5504,-3.5504,-3.5504,-3.5504,-3.5504,-3.5504,-3.5504,-3.5355,-3.4966,-3.4038,-3.3215,-3.2617,-3.1855,-3.1646,-3.2063,-3.2706,-3.3036,-3.3036,-3.4083,-3.4577,-3.4577,-3.4577,-3.4577,-1.1878,-1.1981,-1.2295,-1.3057,0.0,0.0,0.0,0.0,0.0,0.0,0.0,0.0,0.0,-1.6349,0.0,-2.1154,-2.2063,-2.2705,-2.3565,-2.3803,-2.4462,-2.5887,-2.5672,-2.5385,-2.5351,-2.5425,-2.5585,-2.5798,-2.6599,-2.766,-2.8981,-2.9058,-2.9058,-2.9058,-2.9313,-2.9313,-2.9058,-2.9313,-2.9528,-2.9792,-2.9792,-2.9729,-2.9591,-2.9591,-2.9202,-2.8549,-2.8549,-2.8235,-2.7733,-2.7858,-2.7833,-2.7745,-2.8009,-2.8109,-2.816,-2.8586,-2.9013,-2.9415,-2.9553,-2.9679,-2.9792,-2.9792,-2.9792,-2.9792,-2.9792,-2.9792,-2.9792,-2.9792,-2.9792,-2.9792,-2.9792,-2.9792,-3.0011,-3.0934,-3.3367,-3.5504,-3.5504,-3.5504,-3.5504,-3.5504,-3.5504,-3.5504,-3.5504,-3.5504,-3.5504,-3.5504,-3.5504,-3.5504,-3.5504,-3.5504,-3.5504,-3.5504,-3.5504,-3.5504,-3.5504,-3.5504,-3.528,-3.4756,-3.3799,-3.3335,-3.3484,-3.2377,-3.2078,-3.2736,-3.338,-3.3724,-3.3724,-3.4921,-3.5504,-3.5504,-3.5504,-3.5504,-1.107,-1.1095,-1.1226,-1.1997,0.0,0.0,0.0,0.0,0.0,0.0,0.0,0.0,0.0,-1.8202,-1.9768,-2.032,-2.3051,-2.5201,-2.5403,0.0,-2.6584,-2.7334,-2.6224,-2.5161,-2.4648,-2.3387,-2.291,-2.3689,-2.3758,-2.469,-2.6709,-2.6872,-2.6872,-2.6872,-2.7743,-2.7743,-2.6872,-2.7743,-2.875,-2.9792,-2.9792,-2.9515,-2.8988,-2.8988,-2.8411,-2.7406,-2.7406,-2.708,-2.6615,-2.713,-2.7042,-2.6678,-2.7708,-2.8109,-2.8109,-2.8147,-2.8197,-2.8298,-2.8812,-2.934,-2.9792,-2.9792,-2.9792,-2.9792,-2.9792,-2.9792,-2.9792,-2.9792,-2.9792,-2.9792,-2.9792,-2.9792,-3.0722,-3.4221,-3.5294,-3.5504,-3.5504,-3.5504,-3.5504,-3.5504,-3.5504,-3.5504,-3.5504,-3.5504,-3.5504,-3.5504,-3.5504,-3.5504,-3.5504,-3.5504,-3.5504,-3.5504,-3.5504,-3.5504,-3.5504,-3.5504,-3.5489,-3.5429,-3.3634,-3.2856,-3.3469,-3.2826,-3.2751,-3.341,-3.4068,-3.4412,-3.4412,-3.5145,-3.5504,-3.5504,-3.5504,-3.5504,-1.0673,-1.1092,-1.1606,-1.2261,0.0,0.0,0.0,0.0,0.0,0.0,0.0,0.0,0.0,0.0,-1.9698,-2.0874,-2.2705,-2.4249,-2.5023,-2.5911,-2.646,-2.6345,-2.5551,-2.4827,-2.4325,-2.2765,-2.2237,-2.3412,-2.3492,-2.4129,-2.5624,-2.5701,-2.5701,-2.5701,-2.6095,-2.6095,-2.5701,-2.6689,-2.7357,-2.7846,-2.8425,-2.8624,-2.8411,-2.8411,-2.7996,-2.7281,-2.7281,-2.6766,-2.5963,-2.654,-2.644,-2.6,-2.6779,-2.7293,-2.7595,-2.7595,-2.7808,-2.8134,-2.8348,-2.9026,-2.9792,-2.9792,-2.9792,-2.9792,-2.9792,-2.9792,-3.0292,-3.2648,-3.1649,-2.9792,-2.9792,-2.9792,-3.0722,-3.4572,-3.5504,-3.5504,-3.5504,-3.5504,-3.5504,-3.5504,-3.5504,-3.5504,-3.5504,-3.5504,-3.5504,-3.5504,-3.5504,-3.5504,-3.5504,-3.5504,-3.5504,-3.5504,-3.5504,-3.5504,-3.5504,-3.5504,-3.5504,-3.5504,-3.4382,-3.4038,-3.4711,-3.3694,-3.344,-3.4098,-3.4352,-3.4472,-3.4472,-3.5175,-3.5504,-3.5504,-3.5504,-3.5504,-1.0235,-1.0592,-1.1095,0.0,0.0,0.0,0.0,0.0,0.0,0.0,0.0,0.0,0.0,0.0,0.0,0.0,-2.2051,-2.3219,-2.4456,-2.538,-2.5813,-2.5372,-2.5177,-2.4457,-2.3154,-2.1896,-2.144,-2.2097,-2.2175,-2.264,-2.3785,-2.3785,-2.3785,-2.3785,-2.4086,-2.4086,-2.3785,-2.4733,-2.5321,-2.5624,-2.6308,-2.7033,-2.7846,-2.767,-2.7281,-2.6741,-2.6578,-2.6063,-2.5385,-2.5774,-2.5711,-2.541,-2.5963,-2.6414,-2.6766,-2.6954,-2.7256,-2.7607,-2.7783,-2.8247,-2.88,-2.9151,-2.9503,-2.9792,-2.9792,-2.9302,-2.9292,-3.1912,-3.2124,-3.1496,-3.105,-3.1296,-3.2164,-3.4515,-3.51,-3.5115,-3.5175,-3.5175,-3.525,-3.5459,-3.5504,-3.5504,-3.5504,-3.5504,-3.5504,-3.5504,-3.5504,-3.5504,-3.5504,-3.5504,-3.5504,-3.5504,-3.5504,-3.5504,-3.5504,-3.5504,-3.5415,-3.519,-3.4936,-3.5011,-3.5489,-3.4218,-3.3903,-3.4786,-3.4592,-3.4577,-3.4801,-3.528,-3.5504,-3.5504,-3.528,-3.5295,-0.9681,-0.9402,-0.9318,0.0,0.0,0.0,0.0,0.0,0.0,0.0,0.0,-1.8108,-1.8193,0.0,0.0,-1.9915,-2.1255,-2.2504,-2.4066,-2.457,-2.4795,-2.4795,-2.5115,-2.4097,-2.0906,-2.0635,-2.0257,-1.935,-1.935,-1.9775,-2.0755,-2.0815,-2.0815,-2.0815,-2.1713,-2.1702,-2.0825,-2.1713,-2.2604,-2.3501,-2.3501,-2.4815,-2.7243,-2.676,-2.6138,-2.5561,-2.5046,-2.482,-2.4808,-2.4743,-2.482,-2.487,-2.5385,-2.5586,-2.5649,-2.6239,-2.6508,-2.6596,-2.7067,-2.6917,-2.671,-2.7733,-2.885,-2.9767,-2.9767,-2.8222,-2.6533,-2.6521,-3.0876,-3.516,-3.3858,-3.4487,-3.525,-3.4397,-3.4188,-3.4233,-3.4427,-3.4472,-3.4681,-3.537,-3.5504,-3.5504,-3.5504,-3.5504,-3.5504,-3.5504,-3.5504,-3.5504,-3.5504,-3.5489,-3.5489,-3.5489,-3.5489,-3.5489,-3.5489,-3.5489,-3.519,-3.4502,-3.51,-3.5489,-3.5489,-3.4218,-3.4143,-3.5474,-3.4816,-3.4816,-3.5489,-3.5489,-3.5489,-3.5474,-3.4801,-3.4846,-0.8961,-0.9348,0.0,0.0,0.0,0.0,0.0,0.0,0.0,0.0,0.0,-1.6689,-1.6951,0.0,0.0,-1.8251,-1.9498,-2.067,-2.1567,-2.2486,-2.3173,-2.3577,-2.4243,-2.4014,-2.2515,-2.2049,-2.1417,-2.0535,-2.0503,-2.064,-2.0913,-2.0597,-2.0346,-2.0346,-2.1007,-2.124,-2.0913,-2.2274,-2.3077,-2.3356,-2.4054,-2.4797,-2.5548,-2.5385,-2.5222,-2.5046,-2.4895,-2.4607,-2.4179,-2.357,-2.3931,-2.4768,-2.4291,-2.4497,-2.5071,-2.5247,-2.531,-2.5335,-2.5498,-2.595,-2.6584,-2.6841,-2.7168,-2.7457,-2.7457,-2.6979,-2.6973,-2.938,-3.1333,-3.3051,-3.4532,-3.3814,-3.2675,-3.2737,-3.2992,-3.3469,-3.4292,-3.4472,-3.4681,-3.537,-3.5504,-3.5504,-3.5504,-3.5504,-3.5504,-3.5504,-3.5504,-3.5504,-3.5504,-3.5085,-3.4786,-3.4786,-3.4367,-3.4083,-3.4083,-3.4083,-3.4008,-3.3799,-3.3978,-3.4083,-3.4083,-3.4622,-3.4876,-3.4786,-3.4577,-3.4577,-3.4786,-3.4786,-3.4547,-3.4098,-3.4352,-3.4337,-0.8492,0.0,0.0,0.0,0.0,0.0,0.0,0.0,0.0,0.0,0.0,-1.6164,-1.6675,-1.6181,0.0,-1.7466,-1.8173,-1.9124,-2.0742,-2.1369,-2.1669,-2.1763,-2.2639,-2.2849,-2.2007,-2.1659,-2.1126,-2.0253,-2.0167,-2.0167,-2.0167,-1.9879,-1.9662,-1.9662,-2.0012,-2.0167,-2.0167,-2.1111,-2.1719,-2.2111,-2.27,-2.317,-2.3514,-2.3954,-2.4092,-2.413,-2.369,-2.3439,-2.3265,-2.2739,-2.3195,-2.4104,-2.3793,-2.402,-2.4519,-2.4745,-2.482,-2.482,-2.482,-2.5259,-2.5812,-2.5812,-2.5498,-2.5134,-2.5134,-2.6687,-2.8939,-3.0896,-3.1482,-3.184,-3.3514,-3.3125,-3.2378,-3.2566,-3.2892,-3.314,-3.3275,-3.3724,-3.4262,-3.4876,-3.4981,-3.4921,-3.4741,-3.4921,-3.51,-3.51,-3.5325,-3.5504,-3.5504,-3.4906,-3.4472,-3.4472,-3.3888,-3.3499,-3.3499,-3.3499,-3.338,-3.3125,-3.335,-3.326,-3.2736,-3.3754,-3.4247,-3.4098,-3.3829,-3.3829,-3.4083,-3.4083,-3.3888,-3.3499,-3.3634,-3.3619,-0.8162,0.0,0.0,0.0,0.0,0.0,0.0,0.0,-1.5143,-1.4809,0.0,-1.6124,-1.6733,-1.531,-1.4861,-1.7093,-1.714,-1.7821,-2.0638,-2.0661,-2.0179,-1.9548,-2.0548,-2.094,-2.0056,-2.0082,-1.983,-1.8958,-1.8888,-1.8888,-1.8888,-1.8843,-1.8832,-1.8832,-1.8865,-1.891,-1.8955,-1.8955,-1.94,-2.0213,-2.0165,-2.0564,-2.1368,-2.2485,-2.2927,-2.2924,-2.192,-2.1782,-2.2234,-2.2118,-2.2464,-2.2977,-2.3503,-2.3704,-2.3828,-2.433,-2.4519,-2.4519,-2.4519,-2.4582,-2.4669,-2.4669,-2.3966,-2.3125,-2.3412,-2.7079,-3.1108,-3.1108,-3.1108,-3.1168,-3.1422,-3.2422,-3.332,-3.332,-3.332,-3.2991,-3.1735,-3.2482,-3.3484,-3.4038,-3.4098,-3.3933,-3.3514,-3.3963,-3.4412,-3.4472,-3.5011,-3.5415,-3.5415,-3.4816,-3.4367,-3.4307,-3.3709,-3.332,-3.332,-3.332,-3.3066,-3.2467,-3.2976,-3.2781,-3.1526,-3.2213,-3.2856,-3.3395,-3.2826,-3.2811,-3.341,-3.341,-3.338,-3.3305,-3.2766,-3.2796,0.0,-0.821,0.0,0.0,0.0,0.0,0.0,-1.3588,-1.3861,-1.3105,-1.3779,-1.4377,-1.3992,-1.4024,-1.4297,-1.4797,-1.53,-1.5978,-1.7014,-1.7668,-1.781,-1.7302,-1.8572,-1.9183,-1.8264,-1.9226,-1.9608,-1.9034,-1.8958,-1.8958,-1.8958,-1.8556,-1.8336,-1.8336,-1.8739,-1.9206,-1.9597,-1.9609,-1.9937,-2.0598,-2.0097,-1.9992,-2.02,-2.133,-2.1845,-2.1832,-2.1594,-2.1556,-2.16,-2.0937,-2.1125,-2.1788,-2.1241,-2.1418,-2.2046,-2.2159,-2.2209,-2.2209,-2.2209,-2.2774,-2.3502,-2.3502,-2.3278,-2.3518,-2.5903,-2.7468,-2.8427,-2.8427,-2.8427,-2.8906,-3.1001,-3.1676,-3.1958,-3.1958,-3.1958,-3.1884,-3.1541,-3.1764,-3.2287,-3.3425,-3.3365,-3.3095,-3.2991,-3.338,-3.3873,-3.4397,-3.4607,-3.4696,-3.4696,-3.4113,-3.3499,-3.2991,-3.2347,-3.1958,-3.1958,-3.1958,-3.1898,-3.1691,-3.1884,-3.1824,-3.1482,-3.2662,-3.311,-3.2736,-3.2587,-3.2587,-3.2721,-3.2721,-3.2452,-3.1958,-3.2332,-3.2317,0.0,0.0,0.0,0.0,0.0,0.0,0.0,-1.3134,-1.3204,-1.2732,-1.3093,-1.3546,-1.3506,-1.3733,-1.39,-1.3838,-1.3972,-1.4198,-1.4482,-1.5873,-1.6765,-1.6515,-1.7749,-1.8432,-1.7915,-1.8559,-1.8932,-1.8656,-1.8631,-1.8631,-1.8631,-1.8355,-1.8204,-1.8204,-1.848,-1.8756,-1.9032,-1.9032,-1.9196,-1.9484,-1.9183,-1.9032,-1.9058,-1.9924,-2.0162,-1.9911,-1.9911,-2.0213,-2.0652,-1.9895,-2.0372,-2.14,-2.0723,-2.0897,-2.1493,-2.1493,-2.1493,-2.1493,-2.1493,-2.187,-2.2435,-2.2902,-2.241,-2.1797,-2.3396,-2.3858,-2.411,-2.5134,-2.5467,-2.5758,-2.7093,-2.7499,-2.785,-2.9282,-3.0612,-3.1482,-3.1482,-3.1482,-3.1676,-3.2422,-3.2362,-3.2154,-3.2154,-3.2662,-3.3245,-3.3903,-3.4008,-3.4008,-3.4008,-3.344,-3.2901,-3.2557,-3.1928,-3.1482,-3.1482,-3.1482,-3.1482,-3.1482,-3.1482,-3.1482,-3.1482,-3.2198,-3.2392,-3.2048,-3.2048,-3.2048,-3.2048,-3.2048,-3.1869,-3.1482,-3.1884,-3.1795,0.0,0.0,0.0,0.0,0.0,0.0,-1.2196,-1.2599,-1.2714,-1.2704,-1.2791,-1.3084,-1.3636,-1.3667,-1.3491,-1.3291,-1.2996,-1.2789,-1.2899,-1.46,-1.5892,-1.6079,-1.6987,-1.7622,-1.7622,-1.7669,-1.7763,-1.7763,-1.7856,-1.7915,-1.7915,-1.7915,-1.7915,-1.7915,-1.7915,-1.7965,-1.8066,-1.7965,-1.7965,-1.8066,-1.7859,-1.7716,-1.7634,-1.8175,-1.8346,-1.8204,-1.8204,-1.8706,-1.9497,-1.9058,-1.9698,-2.0878,-2.0426,-2.0526,-2.0928,-2.1029,-2.1066,-2.1079,-2.1167,-2.1192,-2.1343,-2.2259,-2.1305,-1.9798,-1.9798,-1.9798,-2.0188,-2.2046,-2.2836,-2.2977,-2.2602,-2.2777,-2.3741,-2.624,-2.8484,-3.0162,-3.0723,-3.0851,-3.0851,-3.0851,-3.1049,-3.1258,-3.1287,-3.1898,-3.2557,-3.323,-3.332,-3.329,-3.317,-3.2781,-3.2422,-3.2198,-3.1779,-3.1482,-3.1482,-3.1482,-3.1482,-3.1482,-3.1482,-3.1482,-3.1482,-3.1482,-3.1482,-3.1482,-3.1482,-3.1482,-3.1482,-3.1482,-3.1482,-3.1482,-3.1482,-3.1482,0.0,0.0,0.0,0.0,0.0,0.0,0.0,0.0,-1.2029,0.0,-1.2383,-1.2803,-1.2492,-1.2765,-1.2859,-1.2459,-1.2232,-1.2288,-1.2839,-1.3267,-1.3902,-1.4834,-1.5085,-1.5177,-1.5177,-1.5633,-1.5936,-1.5936,-1.6416,-1.6748,-1.6748,-1.6748,-1.6748,-1.6748,-1.6748,-1.6986,-1.7488,-1.6999,-1.6999,-1.7488,-1.6459,-1.5666,-1.5177,-1.5794,-1.6858,-1.8204,-1.8204,-1.8292,-1.8417,-1.8342,-1.8442,-1.8631,-1.8555,-1.8581,-1.8706,-1.9183,-1.9309,-1.9422,-1.9874,-2.0024,-2.0049,-2.02,-2.0049,-1.9798,-1.9798,-1.9798,-1.9861,-2.0162,-2.1644,-2.2686,-2.0752,-2.1681,-2.3185,-2.3636,-2.3974,-2.4936,-2.7533,-2.8098,-2.8098,-2.8098,-2.934,-3.0447,-3.0612,-3.121,-3.1884,-3.2542,-3.2647,-3.2437,-3.1869,-3.2213,-3.2063,-3.0896,-3.1225,-3.1482,-3.1482,-3.1482,-3.1482,-3.1482,-3.1482,-3.1482,-3.1482,-3.1482,-3.1482,-3.1482,-3.1482,-3.1482,-3.1482,-3.1482,-3.1482,-3.1482,-3.1482,-3.1482,-0.5778,0.0,0.0,0.0,0.0,0.0,-1.0017,0.0,-1.1002,-1.0891,-1.1194,-1.1514,-1.1807,-1.1855,-1.191,-1.1855,-1.168,-1.1641,-1.2098,-1.2518,-1.2946,-1.3423,-1.375,-1.3966,-1.3966,-1.4467,-1.4923,-1.5234,-1.5738,-1.6056,-1.5983,-1.6337,-1.6194,-1.5511,-1.582,-1.5941,-1.5877,-1.5641,-1.5641,-1.5877,-1.5358,-1.4971,-1.4698,-1.4971,-1.5714,-1.6773,-1.7115,-1.7438,-1.7714,-1.7388,-1.7626,-1.8179,-1.7865,-1.794,-1.8242,-1.848,-1.8769,-1.9008,-1.9284,-1.956,-1.9798,-1.9798,-1.9798,-1.9798,-1.9798,-1.9798,-1.9798,-1.9798,-2.0514,-2.1041,-2.0062,-2.1455,-2.3078,-2.3078,-2.2171,-2.1626,-2.2954,-2.4216,-2.5536,-2.718,-2.8586,-2.9579,-2.9924,-3.0238,-3.0537,-3.0821,-3.0881,-3.0761,-3.0477,-3.0687,-3.0642,-3.0058,-3.0253,-3.0582,-3.0926,-3.0956,-3.112,-3.1452,-3.1482,-3.1482,-3.1482,-3.1482,-3.1482,-3.1482,-3.1482,-3.1482,-3.1482,-3.1482,-3.1482,-3.1482,-3.1482,-3.1482,0.0,0.0,0.0,0.0,0.0,0.0,0.0,0.0,-0.9961,0.0,-0.9961,-1.0156,-1.0832,-1.1023,-1.1155,-1.1377,-1.1122,-1.1018,-1.1407,-1.1822,-1.2089,-1.2139,-1.2636,-1.294,-1.294,-1.3424,-1.3901,-1.4339,-1.4935,-1.526,-1.5198,-1.576,-1.5611,-1.4744,-1.5141,-1.5152,-1.4698,-1.4698,-1.4606,-1.4468,-1.4468,-1.4376,-1.4247,-1.4387,-1.4732,-1.5186,-1.5788,-1.6397,-1.6888,-1.6467,-1.6866,-1.7739,-1.7325,-1.7413,-1.779,-1.794,-1.8254,-1.8643,-1.8932,-1.9371,-1.9798,-1.9798,-1.9798,-1.9798,-1.9798,-1.9798,-1.9798,-1.9798,-1.9798,-1.9798,-1.9798,-2.1029,-2.2284,-2.2284,-2.1016,-1.995,-2.0577,-2.2048,-2.4013,-2.6665,-2.7929,-2.8732,-2.9265,-2.9475,-2.9579,-2.9579,-2.9579,-2.952,-2.9355,-2.9475,-2.952,-2.934,-2.949,-2.9759,-3.0223,-3.0268,-3.0492,-3.1001,-3.118,-3.127,-3.127,-3.1377,-3.1392,-3.127,-3.1377,-3.1482,-3.1482,-3.1482,-3.1482,-3.1482,-3.1482,-3.1482,0.0,0.0,0.0,0.0,0.0,0.0,0.0,0.0,-0.9072,-0.9072,-0.9072,-0.9082,-0.9131,-1.02,-1.1064,-1.094,-1.0605,-1.0516,-1.1037,-1.1026,-1.1023,-1.1147,-1.146,-1.1683,-1.1683,-1.2234,-1.2616,-1.2648,-1.3584,-1.4166,-1.42,-1.4586,-1.4744,-1.4698,-1.4744,-1.4744,-1.4698,-1.4698,-1.4422,-1.3862,-1.3862,-1.3552,-1.3017,-1.36,-1.3862,-1.3909,-1.4514,-1.5119,-1.5668,-1.5644,-1.6044,-1.6609,-1.6572,-1.6572,-1.6672,-1.7225,-1.7438,-1.7614,-1.8668,-1.9371,-1.9798,-1.9798,-1.9798,-1.9798,-1.9798,-1.9798,-1.9798,-1.9798,-1.9798,-1.9798,-1.9798,-1.9886,-1.9974,-1.9974,-1.9886,-2.0436,-2.2804,-2.3393,-2.4082,-2.613,-2.7111,-2.7817,-2.8532,-2.916,-2.9579,-2.9579,-2.9579,-2.9355,-2.8727,-2.9205,-2.934,-2.8727,-2.9205,-2.9594,-2.9624,-2.9624,-2.9639,-2.9684,-3.0238,-3.0552,-3.0552,-3.118,-3.1225,-3.0567,-3.121,-3.1482,-3.1482,-3.1482,-3.1482,-3.1482,-3.1482,-3.1482,0.0,0.0,0.0,0.0,0.0,-0.6286,-0.6854,-0.7369,-0.7666,-0.7491,-0.7849,-0.8168,-0.8178,-0.9256,-1.0121,-1.0078,-1.0195,-1.0381,-1.0574,-1.0546,-1.0517,-1.0562,-1.0682,-1.0783,-1.0783,-1.1245,-1.1718,-1.2105,-1.2737,-1.3133,-1.3065,-1.3582,-1.3498,-1.272,-1.335,-1.351,-1.3083,-1.3083,-1.2991,-1.2759,-1.2759,-1.2835,-1.2929,-1.3104,-1.3238,-1.3238,-1.343,-1.4107,-1.5017,-1.5017,-1.5152,-1.5377,-1.5776,-1.5908,-1.5988,-1.6604,-1.7061,-1.7488,-1.8242,-1.907,-1.9798,-1.9798,-1.9798,-1.9798,-1.9798,-1.9798,-1.9798,-1.9798,-1.9798,-1.9798,-1.9798,-1.9798,-1.9798,-1.9798,-1.9798,-2.004,-2.0926,-2.2405,-2.3884,-2.4987,-2.6168,-2.7157,-2.7859,-2.8143,-2.8344,-2.8344,-2.8344,-2.8203,-2.7979,-2.8143,-2.8203,-2.7964,-2.8143,-2.8472,-2.8906,-2.8951,-2.9131,-2.9549,-2.9789,-2.9909,-2.9909,-3.0148,-3.0163,-2.9924,-3.0163,-3.0477,-3.0866,-3.1315,-3.1482,-3.1482,-3.1482,-3.1482,0.0,0.0,0.0,0.0,0.0,-0.5392,-0.596,-0.6489,-0.6768,-0.649,-0.7103,-0.7655,-0.7512,-0.8413,-0.9258,-0.9359,-0.9668,-0.9853,-0.9853,-0.9853,-0.9902,-1.0049,-1.0068,-1.0127,-1.0273,-1.0572,-1.0925,-1.1313,-1.1786,-1.1999,-1.1985,-1.2478,-1.2446,-1.165,-1.226,-1.2422,-1.2002,-1.2002,-1.2002,-1.2002,-1.2002,-1.2158,-1.2488,-1.2598,-1.2666,-1.2666,-1.2812,-1.3478,-1.4376,-1.4376,-1.4514,-1.4744,-1.5141,-1.532,-1.5365,-1.5964,-1.6429,-1.688,-1.7681,-1.8518,-1.9321,-1.9685,-1.9798,-1.9798,-1.9798,-1.9798,-1.9798,-1.9798,-1.9798,-1.9798,-1.9798,-1.9798,-1.9798,-1.9798,-1.9798,-1.9798,-1.9798,-2.1146,-2.2701,-2.3913,-2.4962,-2.5888,-2.6777,-2.7096,-2.7245,-2.7245,-2.7475,-2.7625,-2.7625,-2.7625,-2.7625,-2.7625,-2.7625,-2.7754,-2.8218,-2.8248,-2.8442,-2.8876,-2.9131,-2.925,-2.925,-2.946,-2.9475,-2.925,-2.9475,-2.9684,-2.9864,-3.0761,-3.13,-3.1482,-3.1482,-3.1482,0.0,0.0,0.0,0.0,0.0,0.0,-0.5512,0.0,-0.6441,-0.6121,-0.6889,-0.7539,-0.7148,-0.7772,-0.8496,-0.8863,-0.8984,-0.9004,-0.9004,-0.9004,-0.916,-0.9524,-0.9573,-0.9748,-1.0225,-1.0264,-1.0273,-1.0283,-1.0654,-1.0889,-1.0889,-1.1289,-1.1577,-1.1587,-1.1587,-1.1587,-1.1587,-1.1587,-1.1587,-1.1587,-1.1587,-1.1596,-1.1636,-1.2031,-1.219,-1.2275,-1.2695,-1.3238,-1.3768,-1.3768,-1.4097,-1.4663,-1.4652,-1.4652,-1.4744,-1.5365,-1.5588,-1.576,-1.6938,-1.7714,-1.8329,-1.9409,-1.9736,-1.971,-1.9786,-1.9798,-1.9798,-1.9798,-1.9748,-1.9723,-1.9786,-1.9798,-1.9798,-1.9798,-1.9798,-1.9798,-1.9798,-1.9798,-2.0501,-2.2908,-2.3473,-2.3983,-2.5301,-2.609,-2.6557,-2.6557,-2.7111,-2.7595,-2.7595,-2.761,-2.7625,-2.7625,-2.7625,-2.7625,-2.7625,-2.7625,-2.7625,-2.7625,-2.8203,-2.8562,-2.8562,-2.919,-2.922,-2.8577,-2.919,-2.922,-2.8607,-2.9879,-3.0851,-3.1437,-3.1437,-3.1437,-0.2142,0.0,0.0,0.0,0.0,0.0,0.0,0.0,-0.5098,-0.5149,-0.5798,-0.6342,-0.6358,-0.6967,-0.7479,-0.7621,-0.8389,-0.9004,-0.9004,-0.9004,-0.9053,-0.916,-0.918,-0.9346,-0.9766,-0.9814,-0.9941,-1.0254,-1.0391,-1.0459,-1.0459,-1.0576,-1.0771,-1.1084,-1.1084,-1.1084,-1.1084,-1.1084,-1.1084,-1.1084,-1.1084,-1.1426,-1.2051,-1.2132,-1.2402,-1.2705,-1.2832,-1.2968,-1.3152,-1.3152,-1.3248,-1.343,-1.3873,-1.405,-1.4143,-1.4744,-1.4971,-1.504,-1.5788,-1.6438,-1.7174,-1.8292,-1.8091,-1.7727,-1.9321,-1.9798,-1.9798,-1.9798,-1.8656,-1.779,-1.9384,-1.9798,-1.9798,-1.9798,-1.9798,-1.9798,-1.9798,-1.9798,-2.0003,-2.0706,-2.1978,-2.32,-2.4085,-2.4774,-2.5248,-2.5248,-2.6179,-2.6856,-2.6856,-2.7275,-2.7625,-2.7625,-2.7625,-2.7625,-2.7625,-2.7625,-2.7625,-2.7625,-2.7754,-2.7859,-2.7859,-2.8023,-2.809,-2.7859,-2.809,-2.8278,-2.8607,-2.9879,-3.0612,-3.0791,-3.0791,-3.0791,0.0,0.0,0.0,0.0,0.0,0.0,-0.3467,-0.4001,-0.4413,0.0,-0.5143,-0.5698,-0.5696,-0.6175,-0.6652,-0.679,-0.7431,-0.8038,-0.8403,-0.8329,-0.8364,-0.8773,-0.8456,-0.8385,-0.8809,-0.8949,-0.9208,-0.9715,-0.9905,-1.004,-1.0283,-1.0283,-1.04,-1.0645,-1.0645,-1.0645,-1.0645,-1.0645,-1.0645,-1.0645,-1.0433,-1.0701,-1.1426,-1.1554,-1.1897,-1.24,-1.2725,-1.2881,-1.2881,-1.2881,-1.2881,-1.292,-1.3286,-1.342,-1.3515,-1.4107,-1.4329,-1.4419,-1.4987,-1.5406,-1.5852,-1.6522,-1.5927,-1.5417,-1.7745,-1.843,-1.843,-1.843,-1.7513,-1.681,-1.8103,-1.843,-1.8668,-1.9585,-1.9798,-1.9798,-1.9798,-1.9798,-1.9901,-2.0295,-2.1209,-2.2092,-2.2768,-2.3407,-2.3885,-2.3885,-2.4725,-2.5491,-2.5766,-2.6111,-2.6389,-2.6674,-2.6703,-2.6692,-2.6692,-2.6982,-2.7137,-2.7137,-2.7408,-2.7625,-2.7625,-2.7625,-2.7625,-2.7625,-2.7625,-2.7919,-2.8607,-2.9355,-2.9849,-3.0118,-3.0118,-3.0118,0.0,0.0,0.0,0.0,-0.2247,0.0,-0.2914,-0.3501,-0.399,-0.4012,-0.4739,-0.5262,-0.5023,-0.5411,-0.5876,-0.6213,-0.632,-0.6644,-0.7442,-0.7246,-0.7354,-0.826,-0.7575,-0.7247,-0.7749,-0.7965,-0.8339,-0.9023,-0.9369,-0.9804,-1.0283,-1.0283,-1.0283,-1.0283,-1.0283,-1.0283,-1.0283,-1.0283,-1.0283,-1.0283,-0.9804,-0.9862,-1.0381,-1.0714,-1.1176,-1.1724,-1.252,-1.2881,-1.2881,-1.2881,-1.2881,-1.2881,-1.2881,-1.2881,-1.2968,-1.3505,-1.3684,-1.3779,-1.4294,-1.4525,-1.4525,-1.4525,-1.3978,-1.3705,-1.5832,-1.6522,-1.6522,-1.6522,-1.6522,-1.6522,-1.6522,-1.6522,-1.7011,-1.897,-1.9434,-1.951,-1.9748,-1.9798,-2.0055,-2.0795,-2.0795,-2.0881,-2.1424,-2.2034,-2.2504,-2.2504,-2.3114,-2.3806,-2.4416,-2.4441,-2.4612,-2.5249,-2.5236,-2.5191,-2.5191,-2.5802,-2.6218,-2.6289,-2.6865,-2.7282,-2.7342,-2.7357,-2.7357,-2.7357,-2.7458,-2.7823,-2.8487,-2.8562,-2.8936,-2.9579,-2.9505,-2.9475,0.0,0.0,0.0,0.0,-0.1475,0.0,-0.2108,-0.2357,-0.2722,-0.346,-0.3682,-0.3839,-0.4081,-0.4563,-0.5046,-0.5384,-0.5807,-0.6232,-0.6665,-0.6669,-0.6695,-0.6902,-0.6749,-0.6915,-0.7658,-0.7457,-0.793,-0.9389,-0.9877,-1.0205,-1.0283,-1.0283,-1.0283,-1.0283,-1.0283,-1.0283,-1.0283,-1.0283,-1.0283,-1.0283,-1.0196,-1.038,-1.0811,-1.1233,-1.1669,-1.2129,-1.2656,-1.2881,-1.2881,-1.2881,-1.2881,-1.2881,-1.2881,-1.2881,-1.2929,-1.3017,-1.3055,-1.3104,-1.32,-1.3248,-1.3248,-1.3248,-1.4433,-1.5876,-1.638,-1.6522,-1.6522,-1.6522,-1.6522,-1.6522,-1.6522,-1.6522,-1.6622,-1.7061,-1.7162,-1.7639,-1.9422,-1.9798,-1.985,-2.0003,-2.0003,-2.0042,-2.0131,-2.0725,-2.1153,-2.1153,-2.2147,-2.2928,-2.3077,-2.3557,-2.3881,-2.4035,-2.4044,-2.401,-2.401,-2.4166,-2.4441,-2.4878,-2.5012,-2.5342,-2.5809,-2.5837,-2.5837,-2.5837,-2.639,-2.7055,-2.7784,-2.8323,-2.8936,-2.9564,-2.9041,-2.8801,0.0,0.0,0.0,-0.0706,-0.094,0.0,0.0,-0.1838,-0.2222,-0.2854,-0.2948,-0.2991,-0.3242,-0.366,-0.4053,-0.4346,-0.4848,-0.5192,-0.5204,-0.5844,-0.6358,-0.6485,-0.6144,-0.6059,-0.6466,-0.6569,-0.7156,-0.8496,-0.9449,-0.9961,-0.9961,-0.9925,-0.9922,-0.9922,-0.9637,-0.9518,-0.9518,-0.9518,-0.9518,-0.9478,-0.9239,-0.9336,-0.9826,-0.9959,-1.0401,-1.0976,-1.1808,-1.2214,-1.2393,-1.2774,-1.2881,-1.2881,-1.2881,-1.2881,-1.2881,-1.2881,-1.2881,-1.2881,-1.2881,-1.2881,-1.2881,-1.2881,-1.3705,-1.4698,-1.4698,-1.5567,-1.6522,-1.6522,-1.6522,-1.6522,-1.6522,-1.6522,-1.6522,-1.6522,-1.6522,-1.6823,-1.7928,-1.8154,-1.8329,-1.8894,-1.9007,-1.9171,-1.971,-2.0105,-2.0295,-2.0295,-2.0832,-2.1356,-2.1718,-2.2041,-2.235,-2.2596,-2.2604,-2.2631,-2.2631,-2.2936,-2.3268,-2.3513,-2.3898,-2.4246,-2.4512,-2.4816,-2.508,-2.5384,-2.5728,-2.6108,-2.6481,-2.6813,-2.7535,-2.8577,-2.8248,-2.8083,0.0,0.0,0.0,0.0,-0.0203,-0.0606,0.0,0.0,0.0,-0.2242,-0.2332,-0.2378,-0.2516,-0.2792,-0.306,-0.3396,-0.3822,-0.4044,-0.3879,-0.4835,-0.5687,-0.5953,-0.546,-0.5126,-0.5245,-0.568,-0.6387,-0.7324,-0.855,-0.9324,-0.9473,-0.9494,-0.9558,-0.9637,-0.9239,-0.8999,-0.8999,-0.8918,-0.8837,-0.8837,-0.8316,-0.8314,-0.8791,-0.8724,-0.9107,-0.9864,-1.0845,-1.1429,-1.1665,-1.2246,-1.2569,-1.2715,-1.2822,-1.2881,-1.2881,-1.2881,-1.2881,-1.2881,-1.2881,-1.2881,-1.2881,-1.2881,-1.2881,-1.2978,-1.343,-1.4926,-1.6522,-1.6522,-1.6522,-1.6522,-1.6522,-1.6522,-1.6522,-1.6522,-1.6522,-1.6522,-1.6522,-1.6522,-1.6785,-1.7702,-1.7877,-1.8292,-1.9585,-1.971,-1.9685,-1.9786,-1.9798,-2.0003,-2.056,-2.0565,-2.0701,-2.1186,-2.1202,-2.1154,-2.1154,-2.1727,-2.2128,-2.2246,-2.2814,-2.318,-2.3289,-2.37,-2.4259,-2.4984,-2.4997,-2.5108,-2.5218,-2.5218,-2.5926,-2.7188,-2.7306,-2.7408,0.0,0.0,0.135,0.1926,0.1308,0.0643,0.1153,0.0,-0.1008,-0.1507,0.0,-0.1841,-0.196,0.0,0.0,-0.2802,-0.2934,-0.3129,-0.3563,-0.3672,-0.3803,-0.4065,-0.4302,-0.4581,-0.4991,-0.5368,-0.5878,-0.6569,-0.748,-0.8299,-0.9013,-0.934,-0.9716,-1.0196,-1.0157,-1.0118,-1.0118,-0.9637,-0.9399,-0.9399,-0.8878,-0.8757,-0.9076,-0.9428,-0.9788,-1.0148,-1.0648,-1.0881,-1.0914,-1.1015,-1.1366,-1.1972,-1.2657,-1.2881,-1.2881,-1.2881,-1.2881,-1.2881,-1.2881,-1.2881,-1.2881,-1.2881,-1.2881,-1.3296,-1.5421,-1.6293,-1.6522,-1.6522,-1.6522,-1.6522,-1.6522,-1.6522,-1.6522,-1.6522,-1.6522,-1.6522,-1.6522,-1.6522,-1.6559,-1.6685,-1.671,-1.7363,-1.9447,-1.9422,-1.9271,-1.9736,-1.9798,-1.985,-1.9901,-1.9913,-1.995,-2.0002,-2.0001,-1.9999,-1.9999,-2.009,-2.037,-2.0876,-2.1008,-2.1224,-2.1733,-2.1809,-2.2424,-2.3586,-2.3655,-2.3973,-2.4609,-2.4609,-2.4954,-2.5673,-2.6336,-2.6616,0.0,0.0,0.2141,0.2006,0.1652,0.1276,0.113,0.0204,-0.0633,-0.0867,0.0,0.0,0.0,0.0,0.0,0.0,-0.2132,-0.2369,-0.244,-0.2532,-0.2896,-0.3767,-0.344,-0.3467,-0.4268,-0.473,-0.5107,-0.544,-0.6451,-0.7508,-0.8585,-0.8413,-0.8602,-0.935,-0.874,-0.8366,-0.8366,-0.8162,-0.8047,-0.8047,-0.7807,-0.7756,-0.7887,-0.8062,-0.8298,-0.8667,-0.9221,-0.9652,-1.0021,-1.0409,-1.083,-1.1266,-1.1584,-1.2157,-1.2881,-1.2881,-1.2881,-1.2881,-1.2881,-1.2881,-1.2881,-1.2881,-1.2881,-1.3113,-1.4107,-1.4433,-1.4698,-1.6107,-1.6522,-1.6522,-1.6522,-1.6522,-1.6522,-1.6522,-1.6522,-1.6522,-1.6522,-1.6522,-1.6522,-1.6522,-1.6522,-1.7024,-1.8606,-1.9208,-1.9547,-1.9773,-1.9798,-1.9798,-1.9798,-1.9798,-1.9798,-1.9798,-1.9798,-1.9798,-1.9798,-1.9798,-1.9911,-2.015,-2.0162,-2.0426,-2.0991,-2.1016,-2.142,-2.23,-2.2313,-2.2467,-2.2784,-2.2784,-2.2916,-2.3165,-2.4321,-2.4859,0.4431,0.3821,0.3461,0.2632,0.2494,0.232,0.1505,0.0595,-0.0097,-0.0186,-0.0404,0.0,0.0,0.0,-0.074,0.0,0.0,-0.1492,-0.1379,-0.1571,-0.212,-0.3196,-0.2679,-0.2599,-0.352,-0.3899,-0.4218,-0.4562,-0.5421,-0.6545,-0.7896,-0.7581,-0.778,-0.8667,-0.7889,-0.7474,-0.7474,-0.7314,-0.7238,-0.7238,-0.7063,-0.7068,-0.7141,-0.7141,-0.7308,-0.7641,-0.8225,-0.8714,-0.9153,-0.9714,-1.0192,-1.0517,-1.0517,-1.1283,-1.2363,-1.251,-1.2608,-1.2618,-1.2832,-1.2881,-1.2881,-1.2881,-1.2881,-1.2881,-1.2881,-1.2881,-1.3248,-1.5017,-1.5511,-1.5656,-1.6337,-1.6522,-1.6522,-1.6522,-1.6522,-1.6522,-1.6522,-1.6522,-1.6522,-1.6522,-1.6522,-1.6773,-1.7601,-1.8518,-1.9221,-1.9459,-1.9422,-1.9359,-1.9359,-1.9359,-1.9359,-1.9359,-1.9497,-1.9585,-1.9585,-1.9723,-1.9798,-1.9798,-1.9798,-1.9987,-2.0413,-2.0426,-2.069,-2.1255,-2.1267,-2.1267,-2.1267,-2.1267,-2.1179,-2.1083,-2.267,-2.3393,0.474,0.5119,0.5802,0.4596,0.4371,0.4145,0.3159,0.1944,0.0957,0.0647,0.0612,0.0629,0.0553,0.0448,0.0,0.0,0.0,0.0,0.0,-0.0895,-0.1237,-0.1798,-0.2016,-0.2304,-0.2783,-0.2778,-0.3186,-0.4228,-0.4464,-0.5224,-0.6773,-0.7145,-0.7748,-0.8667,-0.8675,-0.8635,-0.8635,-0.8111,-0.787,-0.787,-0.728,-0.7174,-0.7493,-0.7493,-0.7622,-0.7882,-0.8266,-0.8407,-0.8447,-0.8729,-0.9249,-0.9814,-0.9814,-1.0261,-1.0965,-1.1616,-1.1814,-1.1922,-1.2666,-1.2881,-1.2881,-1.2881,-1.2881,-1.2881,-1.2881,-1.2881,-1.2929,-1.2968,-1.3027,-1.3573,-1.5876,-1.6522,-1.6522,-1.6522,-1.6522,-1.6522,-1.6522,-1.6522,-1.6522,-1.6522,-1.6522,-1.6522,-1.6572,-1.7074,-1.7752,-1.8618,-1.8468,-1.8254,-1.8254,-1.8254,-1.8254,-1.8254,-1.8731,-1.9008,-1.9008,-1.951,-1.9798,-1.9798,-1.9798,-1.9811,-1.9823,-1.9823,-2.01,-2.0731,-2.0743,-2.0743,-2.0743,-2.0743,-2.0401,-1.9886,-2.1786,-2.2618,0.6922,0.6959,0.6823,0.4976,0.4906,0.5041,0.4012,0.3294,0.2675,0.2112,0.3203,0.3817,0.2321,0.0,0.0,0.0,0.0,0.0,0.0,-0.0267,-0.0624,-0.1023,-0.1513,-0.196,-0.2244,-0.2239,-0.26,-0.352,-0.3684,-0.4451,-0.6069,-0.6235,-0.6704,-0.753,-0.7584,-0.7505,-0.7295,-0.73,-0.7321,-0.7321,-0.7105,-0.7074,-0.7174,-0.7174,-0.7228,-0.7291,-0.7435,-0.7589,-0.7842,-0.8103,-0.8486,-0.888,-0.9082,-0.9256,-0.9614,-1.072,-1.1166,-1.1316,-1.251,-1.2881,-1.2881,-1.2881,-1.2881,-1.2881,-1.2881,-1.2881,-1.2881,-1.2881,-1.2881,-1.3113,-1.3931,-1.4118,-1.4118,-1.4118,-1.5344,-1.6522,-1.6522,-1.6522,-1.6522,-1.6522,-1.6522,-1.6522,-1.6522,-1.6685,-1.7074,-1.7865,-1.8103,-1.8204,-1.8204,-1.8204,-1.8204,-1.8204,-1.8367,-1.848,-1.848,-1.8643,-1.8894,-1.9271,-1.9284,-1.9447,-1.9786,-1.9798,-1.9899,-2.0087,-2.0087,-1.9924,-1.9585,-1.9924,-1.9823,-1.9309,-2.0271,-2.0771,0.8203,0.8187,0.7835,0.5674,0.5859,0.6145,0.4542,0.4118,0.4,0.3725,0.4709,0.5357,0.4403,0.0,0.0,0.0,0.0,0.0,0.0,0.0379,0.0067,-0.0267,-0.0933,-0.1471,-0.1696,-0.1828,-0.2203,-0.2944,-0.3132,-0.3889,-0.5396,-0.5488,-0.5844,-0.668,-0.6708,-0.6627,-0.6478,-0.672,-0.6867,-0.6867,-0.6974,-0.6979,-0.6979,-0.681,-0.6732,-0.6732,-0.6834,-0.6981,-0.7225,-0.7821,-0.8203,-0.8404,-0.8697,-0.8804,-0.8956,-1.0064,-1.0618,-1.1015,-1.2412,-1.2881,-1.2881,-1.2881,-1.2881,-1.2881,-1.2881,-1.2881,-1.2881,-1.2881,-1.2881,-1.2881,-1.2881,-1.2881,-1.2881,-1.2881,-1.4071,-1.5197,-1.5197,-1.5197,-1.5466,-1.6337,-1.5788,-1.5344,-1.58,-1.6207,-1.6672,-1.7149,-1.7438,-1.7601,-1.7601,-1.7601,-1.7601,-1.7601,-1.779,-1.799,-1.8191,-1.8204,-1.8355,-1.8719,-1.887,-1.9183,-1.951,-1.971,-1.9987,-2.0388,-1.9823,-1.9547,-1.961,-1.9359,-1.9158,-1.8983,-1.9371,-1.9623]}]]